[[{"header":{"parameterUnit":"m.s-1","parameterCategory":1,"la1":30.6,"la2":29.2853,"lo1":-89.7004,"lo2":-87.6739,"dy":0.0162,"dx":0.0183,"nx":112,"ny":82,"refTime":"2023-08-27T12:00:00:Z","depth":0,"parameterNumber":2,"parameterNumberName":"U-component_of_WINDS"},"data":[0.0,0.0,0.0,0.0,0.0,0.0,0.0,0.0,0.0,0.0,0.0,0.0,0.0,0.0,0.0,0.0,0.0,0.0,0.0,0.0,0.0,0.0,0.0,0.0,0.0,0.0,0.0,0.0,0.0,0.0,0.0,0.0,0.0,0.0,0.0,0.0,0.0,0.0,0.0,0.0,0.0,0.0,0.0,0.0,0.0,0.0,0.0,0.0,0.0,0.0,0.0,0.0,0.0,0.0,0.0,0.0,0.0,0.0,0.0,0.0,0.0,0.0,0.0,0.0,0.0,0.0,0.0,0.0,0.0,0.0,0.0,0.0,0.0,0.0,0.0,0.0,0.0,0.0,0.0,0.0,0.0,0.0,0.0,0.0,0.0,0.0,0.0,0.0,0.0,0.0,0.0,-2.2932,-2.7806,-3.1273,-3.2206,-3.1498,-3.0155,-2.8099,0.0,0.0,0.0,0.0,0.0,0.0,0.0,0.0,0.0,0.0,0.0,0.0,0.0,0.0,0.0,0.0,0.0,0.0,0.0,0.0,0.0,0.0,0.0,0.0,0.0,0.0,0.0,0.0,0.0,0.0,0.0,0.0,0.0,0.0,0.0,0.0,0.0,0.0,0.0,0.0,0.0,0.0,0.0,0.0,0.0,0.0,0.0,0.0,0.0,0.0,0.0,0.0,0.0,0.0,0.0,0.0,0.0,0.0,0.0,0.0,0.0,0.0,0.0,0.0,0.0,0.0,0.0,0.0,0.0,0.0,0.0,0.0,0.0,0.0,0.0,0.0,0.0,0.0,0.0,0.0,0.0,0.0,0.0,0.0,0.0,0.0,0.0,0.0,0.0,0.0,0.0,0.0,0.0,0.0,0.0,0.0,0.0,0.0,0.0,0.0,0.0,0.0,0.0,0.0,-2.3182,-2.7136,-2.9566,-3.1619,-3.3369,-3.0968,-2.9219,-2.8851,0.0,0.0,0.0,0.0,0.0,0.0,0.0,0.0,0.0,0.0,0.0,0.0,0.0,0.0,0.0,0.0,0.0,0.0,0.0,0.0,0.0,0.0,0.0,0.0,0.0,0.0,0.0,0.0,0.0,0.0,0.0,0.0,0.0,0.0,0.0,0.0,0.0,0.0,0.0,0.0,0.0,0.0,0.0,0.0,0.0,0.0,0.0,0.0,0.0,0.0,0.0,0.0,0.0,0.0,0.0,0.0,0.0,0.0,0.0,0.0,0.0,0.0,0.0,0.0,0.0,0.0,0.0,0.0,0.0,0.0,0.0,0.0,0.0,0.0,0.0,0.0,0.0,0.0,0.0,0.0,0.0,0.0,0.0,0.0,0.0,0.0,0.0,0.0,0.0,0.0,0.0,0.0,0.0,0.0,0.0,0.0,0.0,0.0,0.0,0.0,0.0,0.0,0.0,-2.2263,-2.4455,-2.8103,-2.9712,-3.1232,-3.2991,-3.021,-2.8356,-2.8356,-2.6429,0.0,0.0,0.0,0.0,0.0,0.0,0.0,0.0,0.0,0.0,0.0,0.0,0.0,0.0,0.0,0.0,0.0,0.0,0.0,0.0,0.0,0.0,0.0,0.0,0.0,0.0,0.0,0.0,0.0,0.0,0.0,0.0,0.0,0.0,0.0,0.0,0.0,0.0,0.0,0.0,0.0,0.0,0.0,0.0,0.0,0.0,0.0,0.0,0.0,0.0,0.0,0.0,0.0,0.0,0.0,0.0,0.0,0.0,0.0,0.0,0.0,0.0,0.0,0.0,0.0,0.0,0.0,0.0,0.0,0.0,0.0,0.0,0.0,0.0,0.0,0.0,0.0,0.0,0.0,0.0,0.0,0.0,0.0,0.0,0.0,0.0,0.0,0.0,0.0,0.0,0.0,0.0,0.0,0.0,0.0,0.0,0.0,0.0,0.0,0.0,0.0,0.0,-2.3241,-2.502,-2.8016,-2.9448,-3.0779,-3.221,-2.9365,-2.7603,-2.7787,-2.5364,0.0,0.0,0.0,0.0,0.0,0.0,0.0,0.0,0.0,0.0,0.0,0.0,0.0,0.0,0.0,0.0,0.0,0.0,0.0,0.0,0.0,0.0,0.0,0.0,0.0,0.0,0.0,0.0,0.0,0.0,0.0,0.0,0.0,0.0,0.0,0.0,0.0,0.0,0.0,0.0,0.0,0.0,0.0,0.0,0.0,0.0,0.0,0.0,0.0,0.0,0.0,0.0,0.0,0.0,0.0,0.0,0.0,0.0,0.0,0.0,0.0,0.0,0.0,0.0,0.0,0.0,0.0,0.0,0.0,0.0,0.0,0.0,0.0,0.0,0.0,0.0,0.0,0.0,0.0,0.0,0.0,0.0,0.0,0.0,0.0,0.0,0.0,0.0,0.0,0.0,0.0,0.0,0.0,0.0,0.0,0.0,0.0,0.0,0.0,0.0,0.0,0.0,-2.3522,-2.4863,-2.7559,-2.9274,-3.0558,-3.1403,-2.8539,-2.6998,-2.775,-2.4832,0.0,0.0,0.0,0.0,0.0,0.0,0.0,0.0,0.0,0.0,0.0,0.0,0.0,0.0,0.0,0.0,0.0,0.0,0.0,0.0,0.0,0.0,0.0,0.0,0.0,0.0,0.0,0.0,0.0,0.0,0.0,0.0,0.0,0.0,0.0,0.0,0.0,0.0,0.0,0.0,0.0,0.0,0.0,0.0,0.0,0.0,0.0,0.0,0.0,0.0,0.0,0.0,0.0,0.0,0.0,0.0,0.0,0.0,0.0,0.0,0.0,0.0,0.0,0.0,0.0,0.0,0.0,0.0,0.0,0.0,0.0,0.0,0.0,0.0,0.0,0.0,0.0,0.0,0.0,0.0,0.0,0.0,0.0,0.0,0.0,0.0,0.0,0.0,0.0,0.0,0.0,0.0,0.0,0.0,0.0,0.0,0.0,0.0,0.0,0.0,0.0,0.0,-2.4272,-2.5557,0.0,-2.8796,-2.9586,-2.9879,-2.7402,-2.597,-2.6284,0.0,0.0,0.0,0.0,0.0,0.0,0.0,0.0,0.0,0.0,0.0,0.0,0.0,0.0,0.0,0.0,0.0,0.0,0.0,0.0,0.0,0.0,0.0,0.0,0.0,0.0,0.0,0.0,0.0,0.0,0.0,0.0,0.0,0.0,0.0,0.0,0.0,0.0,0.0,0.0,0.0,0.0,0.0,0.0,0.0,0.0,0.0,0.0,0.0,0.0,0.0,0.0,0.0,0.0,0.0,0.0,0.0,0.0,0.0,0.0,0.0,0.0,0.0,0.0,0.0,0.0,0.0,0.0,0.0,0.0,0.0,0.0,0.0,0.0,0.0,0.0,0.0,0.0,0.0,0.0,0.0,0.0,0.0,0.0,0.0,0.0,0.0,0.0,0.0,0.0,0.0,0.0,0.0,0.0,0.0,0.0,0.0,0.0,0.0,0.0,0.0,0.0,-2.3505,-2.447,-2.555,0.0,-2.7989,-2.8521,-2.8264,-2.6025,-2.485,-2.5384,0.0,0.0,0.0,0.0,0.0,0.0,0.0,0.0,0.0,0.0,0.0,0.0,0.0,0.0,0.0,0.0,0.0,0.0,0.0,0.0,0.0,0.0,0.0,0.0,0.0,0.0,0.0,0.0,0.0,0.0,0.0,0.0,0.0,0.0,0.0,0.0,0.0,0.0,0.0,0.0,0.0,0.0,0.0,0.0,0.0,0.0,0.0,0.0,0.0,0.0,0.0,0.0,0.0,0.0,0.0,0.0,0.0,0.0,0.0,0.0,0.0,0.0,0.0,0.0,0.0,0.0,0.0,0.0,0.0,0.0,0.0,0.0,0.0,0.0,0.0,0.0,0.0,0.0,0.0,0.0,0.0,0.0,0.0,0.0,0.0,0.0,0.0,0.0,0.0,0.0,0.0,0.0,0.0,0.0,0.0,0.0,0.0,0.0,0.0,0.0,0.0,0.0,-2.3473,-2.3996,-2.452,-2.5329,-2.6833,-2.7475,-2.6667,-2.4392,-2.3676,0.0,0.0,0.0,0.0,0.0,0.0,0.0,0.0,0.0,0.0,0.0,0.0,0.0,0.0,0.0,0.0,0.0,0.0,0.0,0.0,0.0,0.0,0.0,0.0,0.0,0.0,0.0,0.0,0.0,0.0,0.0,0.0,0.0,0.0,0.0,0.0,0.0,0.0,0.0,0.0,0.0,0.0,0.0,0.0,0.0,0.0,0.0,0.0,0.0,0.0,0.0,0.0,0.0,0.0,0.0,0.0,0.0,0.0,0.0,0.0,0.0,0.0,0.0,0.0,0.0,0.0,0.0,0.0,0.0,0.0,0.0,0.0,0.0,0.0,0.0,0.0,0.0,0.0,0.0,0.0,0.0,0.0,0.0,0.0,0.0,0.0,0.0,0.0,0.0,0.0,0.0,0.0,0.0,0.0,0.0,0.0,0.0,0.0,0.0,0.0,0.0,0.0,0.0,-2.3888,-2.4627,-2.5146,-2.5384,-2.6833,-2.7236,-2.586,-2.4061,-2.3437,-2.4483,0.0,0.0,0.0,0.0,0.0,0.0,0.0,0.0,0.0,0.0,0.0,0.0,0.0,0.0,0.0,0.0,0.0,0.0,0.0,0.0,0.0,0.0,0.0,0.0,0.0,0.0,0.0,0.0,0.0,0.0,0.0,0.0,0.0,0.0,0.0,0.0,0.0,0.0,0.0,0.0,0.0,0.0,0.0,0.0,0.0,0.0,0.0,0.0,0.0,0.0,0.0,0.0,0.0,0.0,0.0,0.0,0.0,0.0,0.0,0.0,0.0,0.0,0.0,0.0,0.0,0.0,0.0,0.0,0.0,0.0,0.0,0.0,0.0,0.0,0.0,0.0,0.0,0.0,0.0,0.0,0.0,0.0,0.0,0.0,0.0,0.0,0.0,0.0,0.0,0.0,0.0,0.0,0.0,0.0,0.0,0.0,0.0,0.0,0.0,0.0,0.0,0.0,-2.4004,-2.4337,-2.4557,-2.4887,-2.6062,-2.6319,-2.5016,-2.3456,-2.2868,-2.3676,0.0,0.0,0.0,0.0,0.0,0.0,0.0,0.0,0.0,0.0,0.0,0.0,0.0,0.0,0.0,0.0,0.0,0.0,0.0,0.0,0.0,0.0,0.0,0.0,0.0,0.0,0.0,0.0,0.0,0.0,0.0,0.0,0.0,0.0,0.0,0.0,0.0,0.0,0.0,0.0,0.0,0.0,0.0,0.0,0.0,0.0,0.0,0.0,0.0,0.0,0.0,0.0,0.0,0.0,0.0,0.0,0.0,0.0,0.0,0.0,0.0,0.0,0.0,0.0,0.0,0.0,0.0,0.0,0.0,0.0,0.0,0.0,0.0,0.0,0.0,0.0,0.0,0.0,0.0,0.0,0.0,0.0,0.0,0.0,0.0,0.0,0.0,0.0,0.0,0.0,0.0,0.0,0.0,0.0,0.0,0.0,0.0,0.0,0.0,0.0,0.0,0.0,-2.393,-2.3602,-2.3474,-2.4135,-2.4905,-2.5072,-2.4263,-2.2721,-2.2134,-2.296,0.0,0.0,0.0,0.0,0.0,0.0,0.0,0.0,0.0,0.0,0.0,0.0,0.0,0.0,0.0,0.0,0.0,0.0,0.0,0.0,0.0,0.0,0.0,0.0,0.0,0.0,0.0,0.0,0.0,0.0,0.0,0.0,0.0,0.0,0.0,0.0,0.0,0.0,0.0,0.0,0.0,0.0,0.0,0.0,0.0,0.0,0.0,0.0,0.0,0.0,0.0,0.0,0.0,0.0,0.0,0.0,0.0,0.0,0.0,0.0,-2.6723,0.0,0.0,0.0,0.0,0.0,0.0,0.0,0.0,0.0,0.0,0.0,0.0,0.0,0.0,0.0,0.0,0.0,0.0,0.0,0.0,0.0,0.0,0.0,0.0,0.0,0.0,0.0,0.0,0.0,0.0,0.0,0.0,0.0,0.0,0.0,0.0,0.0,0.0,0.0,0.0,0.0,-2.3801,-2.4438,-2.4704,-2.4245,-2.4905,-2.5072,-2.4263,-2.2721,-2.2134,-2.296,-2.1602,0.0,0.0,0.0,0.0,0.0,0.0,0.0,0.0,0.0,0.0,0.0,0.0,0.0,0.0,0.0,0.0,0.0,0.0,0.0,0.0,0.0,0.0,0.0,0.0,0.0,0.0,0.0,0.0,0.0,0.0,0.0,0.0,0.0,0.0,0.0,0.0,0.0,0.0,0.0,0.0,0.0,0.0,0.0,0.0,0.0,0.0,0.0,0.0,0.0,0.0,0.0,0.0,0.0,0.0,0.0,0.0,0.0,0.0,0.0,0.0,-2.7061,0.0,0.0,0.0,0.0,0.0,0.0,0.0,0.0,0.0,0.0,0.0,0.0,0.0,0.0,0.0,0.0,0.0,0.0,0.0,0.0,0.0,0.0,0.0,0.0,0.0,0.0,0.0,0.0,0.0,0.0,0.0,0.0,0.0,0.0,0.0,0.0,0.0,0.0,0.0,0.0,-2.4411,-2.435,-2.4226,-2.419,-2.4557,-2.4649,-2.4245,-2.2721,-2.1969,-2.2391,-2.1602,0.0,0.0,0.0,0.0,0.0,0.0,0.0,0.0,0.0,0.0,0.0,0.0,0.0,0.0,0.0,0.0,0.0,0.0,0.0,0.0,0.0,0.0,0.0,0.0,0.0,0.0,0.0,0.0,0.0,0.0,0.0,0.0,0.0,0.0,0.0,0.0,0.0,0.0,0.0,0.0,0.0,0.0,0.0,0.0,0.0,0.0,0.0,0.0,0.0,0.0,0.0,0.0,0.0,-3.5555,-3.5623,-3.6253,-3.5207,-3.4354,-3.366,-3.1207,-2.8789,-2.6691,0.0,0.0,0.0,0.0,0.0,0.0,0.0,0.0,0.0,0.0,0.0,0.0,0.0,0.0,0.0,0.0,0.0,0.0,0.0,0.0,0.0,0.0,0.0,0.0,0.0,-2.8393,-2.7451,0.0,0.0,0.0,0.0,0.0,0.0,0.0,0.0,0.0,0.0,0.0,0.0,-2.4917,-2.4005,-2.3474,-2.4135,-2.419,-2.419,-2.419,-2.285,-2.2006,-2.2006,-2.1894,-2.1876,0.0,0.0,0.0,0.0,0.0,0.0,0.0,0.0,0.0,0.0,0.0,0.0,0.0,0.0,0.0,0.0,0.0,0.0,0.0,0.0,0.0,0.0,0.0,0.0,0.0,0.0,0.0,0.0,0.0,0.0,0.0,0.0,-2.6765,-2.7676,0.0,0.0,0.0,0.0,0.0,0.0,0.0,0.0,0.0,0.0,0.0,0.0,0.0,-3.7392,-3.8361,-3.8486,-3.8198,-3.7524,-3.7286,-3.6824,-3.6285,-3.5722,-3.538,-3.5318,-3.4912,0.0,-3.0328,-2.867,0.0,0.0,0.0,0.0,0.0,0.0,0.0,0.0,0.0,0.0,0.0,0.0,0.0,0.0,0.0,0.0,0.0,0.0,0.0,0.0,0.0,0.0,-2.88,-2.8957,-2.8393,-2.7728,0.0,-2.7698,-2.783,-2.7675,-2.725,0.0,0.0,0.0,0.0,0.0,0.0,0.0,-2.4013,-2.3998,-2.408,-2.419,-2.419,-2.419,-2.419,-2.3364,-2.285,-2.285,-2.2189,-2.2097,-2.2813,-2.2942,0.0,0.0,0.0,0.0,0.0,0.0,0.0,0.0,0.0,0.0,0.0,0.0,0.0,0.0,0.0,0.0,0.0,0.0,0.0,0.0,0.0,0.0,0.0,0.0,0.0,0.0,0.0,0.0,0.0,-2.9345,-2.9953,-2.9132,-3.0372,-3.1078,0.0,0.0,0.0,0.0,0.0,0.0,0.0,0.0,0.0,-3.6532,-3.7664,-3.824,-3.819,-3.8725,-3.8887,-3.8696,-3.8709,-3.8653,-3.8423,-3.8204,-3.8125,-3.8108,-3.7702,-3.6552,-3.4793,-3.251,-3.1664,-3.1782,0.0,0.0,0.0,0.0,-3.1108,-3.0455,-3.1332,-3.1302,0.0,-3.1456,0.0,0.0,0.0,0.0,0.0,0.0,0.0,0.0,0.0,0.0,-3.0356,-3.0356,-3.0081,-2.9934,-3.0393,-2.9787,-2.8888,0.0,-2.8246,-2.8594,-2.8503,0.0,0.0,0.0,0.0,-2.5175,-2.5306,-2.5065,-2.4869,-2.4869,-2.4465,-2.419,-2.419,-2.3474,-2.2997,-2.2997,-2.2666,-2.263,-2.2997,-2.3437,-2.3841,0.0,0.0,0.0,0.0,0.0,0.0,0.0,0.0,0.0,0.0,0.0,0.0,0.0,0.0,0.0,0.0,0.0,0.0,0.0,0.0,0.0,0.0,0.0,0.0,0.0,0.0,0.0,0.0,-3.0834,-3.1407,-2.9783,-3.1448,-3.2235,0.0,0.0,0.0,0.0,0.0,0.0,-3.5689,-3.7236,-3.7944,-3.7673,-3.8997,-3.9523,-3.9104,-3.9698,-4.0121,-4.0358,-4.0354,-4.0349,-4.0358,-4.0358,-4.0257,-4.0054,-3.9512,-3.8954,-3.8261,-3.5588,-3.3947,-3.3152,-3.3339,-3.3169,-3.2906,-3.3304,-3.3037,-3.2633,-3.338,-3.3401,-3.2986,-3.275,0.0,-3.2774,-3.1306,0.0,0.0,0.0,0.0,-3.174,-3.0667,-3.1024,-3.1751,-3.1953,-3.1861,-3.1861,-3.2485,-3.1659,-3.0283,0.0,-2.8906,-2.9402,-2.8815,0.0,0.0,0.0,0.0,-2.5645,-2.6499,-2.5713,-2.5182,-2.5384,-2.4667,-2.419,-2.419,-2.3657,-2.3309,-2.3309,-2.3309,-2.3309,-2.3309,-2.3878,-2.419,-2.419,0.0,0.0,0.0,0.0,0.0,0.0,0.0,0.0,0.0,0.0,0.0,0.0,0.0,0.0,0.0,0.0,0.0,0.0,0.0,0.0,0.0,0.0,0.0,0.0,0.0,0.0,0.0,0.0,0.0,-2.8504,-3.0544,0.0,0.0,0.0,0.0,-3.4539,-3.6767,-3.7776,-3.6958,-3.8493,-3.9581,-4.0042,-4.0923,-4.2051,-4.3487,-4.2977,-4.2808,-4.3016,-4.2432,-4.1831,-4.1136,-4.1136,-4.0747,-4.007,-4.0037,-4.0003,-3.9681,-3.6011,-3.4878,-3.5318,-3.3931,-3.3812,-3.433,-3.3711,-3.3316,-3.2979,-3.2406,-3.2119,-3.2299,-3.4147,-3.5523,-3.6396,-3.6035,-3.5132,0.0,0.0,-3.2793,-3.205,-3.2354,-3.2496,-3.2742,-3.3495,-3.3109,-3.2559,-3.2596,-3.2559,-3.1788,0.0,-2.8393,-2.7897,-2.786,0.0,-2.7695,-2.7787,-2.7068,-2.6536,-2.6594,-2.5236,-2.4538,-2.5329,-2.4667,-2.419,-2.419,-2.4153,-2.4135,-2.4135,-2.4135,-2.4135,-2.4135,-2.4171,-2.419,-2.419,-2.419,0.0,0.0,0.0,0.0,0.0,0.0,0.0,0.0,0.0,0.0,0.0,0.0,0.0,0.0,0.0,0.0,0.0,0.0,0.0,0.0,0.0,0.0,0.0,0.0,0.0,0.0,0.0,0.0,-3.2801,-3.4708,0.0,0.0,-3.5259,-3.5522,-3.5909,-3.6904,-3.7736,-3.8253,-4.0381,-4.1601,-4.174,-4.2596,-4.3353,-4.3924,-4.2914,-4.2671,-4.3192,-4.2568,-4.1914,-4.1204,-4.1204,-4.0798,-4.007,-4.007,-4.007,-3.9969,-3.8633,-3.7973,-3.7702,-3.6705,-3.6163,-3.6034,-3.6641,-3.6475,-3.6068,-3.6467,-3.638,-3.5982,-3.5452,-3.4929,-3.4534,-3.4649,-3.4751,-3.4775,-3.4596,-3.4649,-3.4794,-3.4954,-3.4578,-3.4202,-3.4495,-3.3972,-3.3366,-3.3366,-3.3366,-3.2963,-3.1586,-3.0265,-2.9347,-2.9347,-2.8062,-2.72,-2.7714,-2.7548,-2.7365,-2.7365,-2.6869,-2.6429,-2.619,-2.5438,-2.4759,-2.4245,-2.419,-2.419,-2.419,-2.419,-2.419,-2.419,-2.419,-2.419,-2.419,-2.419,-2.419,0.0,0.0,0.0,0.0,0.0,0.0,0.0,0.0,0.0,0.0,0.0,0.0,0.0,0.0,0.0,0.0,0.0,0.0,0.0,0.0,0.0,0.0,0.0,0.0,0.0,0.0,-3.5268,-3.6105,-3.7739,-3.8525,-3.7941,-3.7433,-3.7522,-3.8467,-3.8943,-3.9835,-4.1262,-4.2691,-4.345,-4.3412,-4.3755,-4.4003,-4.4103,-4.3266,-4.3128,-4.3649,-4.3263,-4.2675,-4.1948,-4.1948,-4.1542,-4.0815,-4.0561,-4.046,-4.0443,-4.0189,-3.9915,-3.9552,-3.8899,-3.8303,-3.7934,-3.8947,-3.9017,-3.8581,-3.8959,-3.9013,-3.8618,-3.687,-3.5946,-3.5526,-3.5475,-3.5642,-3.5899,-3.6164,-3.6285,-3.6358,-3.6615,-3.6083,-3.5459,-3.5459,-3.4816,-3.4284,-3.4578,-3.4412,-3.4137,-3.3899,-3.232,-3.0852,-3.0301,-2.887,-2.8007,-2.8521,-2.8154,-2.7989,-2.8539,-2.7897,-2.7181,-2.6667,-2.5878,-2.5072,-2.4263,-2.4447,-2.4483,-2.4208,-2.4447,-2.4483,-2.4208,-2.419,-2.419,-2.419,-2.419,-2.419,-2.419,0.0,0.0,0.0,0.0,0.0,0.0,0.0,0.0,0.0,0.0,0.0,0.0,0.0,0.0,0.0,0.0,0.0,0.0,0.0,0.0,0.0,0.0,0.0,-3.221,-3.5473,-3.7829,-3.7885,-3.9135,-3.9703,-3.8933,-3.9575,-4.0726,-4.2286,-4.3149,-4.4287,-4.581,-4.5391,-4.507,-4.5047,-4.4343,-4.409,-4.4302,-4.4302,-4.4386,-4.4604,-4.4637,-4.4231,-4.3453,-4.3453,-4.3031,-4.2252,-4.1542,-4.1221,-4.1153,-4.046,-4.0434,-4.0874,-4.0336,-4.0021,-3.9919,-4.0486,-4.0521,-4.0239,-3.948,-3.9519,-3.9708,-3.8425,-3.8882,-3.979,-3.9019,-3.823,-3.7753,-3.856,-3.7661,-3.6615,-3.7367,-3.6964,-3.6376,-3.634,-3.5679,-3.5275,-3.6119,-3.5642,-3.5284,-3.6138,-3.4357,-3.221,-3.0595,-3.0265,-3.0228,-3.021,-2.887,0.0,-2.9971,-2.8117,-2.6686,-2.6686,-2.597,-2.5182,-2.4355,-2.4979,-2.509,-2.4245,-2.4924,-2.5017,-2.4226,-2.419,-2.419,-2.419,-2.419,-2.419,-2.419,0.0,0.0,0.0,0.0,0.0,0.0,0.0,0.0,0.0,0.0,0.0,0.0,0.0,0.0,0.0,0.0,0.0,0.0,0.0,0.0,0.0,0.0,-3.6028,-3.5488,-3.6793,-3.8234,-3.9397,-4.1047,-4.2189,-4.2429,-4.3155,-4.396,-4.4838,-4.5663,-4.6082,-4.6051,-4.647,-4.6534,-4.609,-4.4942,-4.432,-4.439,-4.4451,-4.4514,-4.4461,-4.5656,-4.55,-4.4265,-4.4265,-4.3538,-4.2286,-4.2083,-4.1694,-4.1239,-4.1439,-4.1267,-4.0903,-4.075,-4.092,-4.1321,-4.1899,-4.1976,-4.1732,-4.1494,-4.1123,-4.0712,-4.0357,-4.0482,-4.0744,-4.0524,-4.0304,-4.0157,-4.0396,-4.012,-3.9698,-3.9331,-3.8634,-3.7881,-3.7294,-3.6541,-3.6009,-3.6248,-3.6101,-3.6009,-3.6248,-3.5752,-3.4761,-3.3109,-3.1843,-3.087,-3.0283,-2.9824,0.0,-2.9365,-2.8737,-2.8333,-2.8333,-2.8154,-2.7457,-2.6062,-2.6135,-2.5676,-2.4281,-2.441,-2.4428,-2.4208,-2.419,-2.419,-2.419,-2.419,-2.419,0.0,0.0,0.0,0.0,0.0,0.0,0.0,0.0,0.0,0.0,0.0,0.0,0.0,0.0,0.0,0.0,0.0,0.0,0.0,0.0,0.0,0.0,-3.7003,-3.8917,-3.9575,-4.0045,-4.0686,-4.1672,-4.2736,-4.3527,-4.3906,-4.4603,-4.5323,-4.6055,-4.6855,-4.7119,-4.6749,-4.7251,-4.7072,-4.61,-4.5234,-4.4656,-4.436,-4.4368,-4.4533,-4.4822,-4.5463,-4.5488,-4.5043,-4.4722,-4.4096,0.0,-4.2912,-4.2496,-4.2056,-4.2078,-4.1928,0.0,0.0,0.0,0.0,0.0,-4.2721,-4.2304,-4.2304,-4.1992,-4.1552,-4.1222,-4.135,-4.1552,-4.1203,-4.1111,-4.1038,-4.0689,-4.0598,-4.0414,-3.9606,-3.9056,-3.8579,-3.8102,-3.7386,-3.689,-3.7221,-3.7037,-3.689,-3.7239,-3.7019,0.0,-3.5073,-3.3495,-3.2008,-3.087,-3.0411,-3.0026,-2.9567,-2.9195,-2.8865,-2.8539,-2.8503,-2.786,-2.6227,-2.641,0.0,0.0,0.0,-2.4538,-2.4208,-2.419,0.0,0.0,0.0,-2.419,-2.419,0.0,0.0,0.0,-2.419,-2.419,0.0,0.0,0.0,0.0,0.0,0.0,0.0,0.0,0.0,0.0,0.0,0.0,0.0,0.0,0.0,0.0,-3.9409,-4.089,-4.3706,-4.4198,-4.4192,-4.4074,-4.4032,-4.4102,-4.4149,-4.4906,-4.5764,-4.6601,-4.736,-4.7752,-4.7752,0.0,0.0,0.0,0.0,-4.5105,-4.4437,-4.425,-4.454,-4.5355,-4.4877,-4.5108,-4.594,-4.5263,-4.4857,-4.4671,-4.4071,-4.3526,-4.3141,-4.2658,-4.2581,-4.2732,-4.2185,-4.2324,-4.2864,-4.3321,-4.3039,-4.2433,-4.2433,0.0,0.0,-4.1607,-4.1864,-4.2304,-4.1589,-4.1387,-4.1222,-4.0506,-4.023,-3.9992,-3.9184,-3.8982,-3.8927,-3.8744,-3.8212,-3.7936,-3.8579,-3.8138,-3.7845,-3.856,-3.812,-3.7367,-3.656,-3.5055,-3.3385,-3.177,-3.0852,-3.0301,-3.021,-2.9512,-2.8778,-2.8136,0.0,0.0,-2.5825,-2.6319,-2.6007,-2.43,-2.4869,-2.4924,-2.4226,-2.419,-2.419,-2.419,-2.419,-2.419,-2.419,-2.419,-2.419,-2.419,-2.419,-2.419,0.0,0.0,0.0,0.0,0.0,0.0,0.0,0.0,0.0,0.0,0.0,0.0,0.0,0.0,0.0,-4.083,-4.2955,-4.4533,-4.5233,-4.6272,-4.6242,-4.4449,-4.4372,-4.466,-4.5145,-4.6395,-4.7509,-4.8226,-4.9018,-4.9186,-4.8603,-4.8633,0.0,-4.8345,-4.6412,-4.5309,-4.5005,-4.4946,-4.501,-4.5282,0.0,0.0,-4.7496,-4.7344,-4.6616,-4.554,-4.5826,-4.4924,-4.3273,-4.4103,-4.3996,-4.3321,-4.3232,-4.3232,-4.3375,-4.3444,-4.3387,-4.3259,-4.3259,-4.3259,-4.3222,-4.3075,-4.313,-4.3222,-4.3075,-4.3039,0.0,-4.2837,-4.2341,-4.1644,-4.0855,-4.0653,-4.0322,-3.9019,-3.9074,-3.9294,-3.8817,-3.8579,-3.8505,-3.867,-3.8579,-3.8212,-3.7404,-3.5881,-3.4202,-3.2614,-3.1678,-3.0925,-3.0283,-2.9512,-2.92,-2.9677,-2.9751,-2.9072,-2.7457,-2.7475,-2.6594,-2.4337,-2.4337,-2.4355,-2.4208,-2.419,-2.419,-2.419,-2.419,-2.419,-2.419,-2.419,-2.419,-2.419,-2.419,-2.419,0.0,0.0,0.0,0.0,0.0,0.0,0.0,0.0,0.0,0.0,0.0,-3.6921,0.0,0.0,-4.2258,-4.4057,-4.5964,-4.7129,-4.6828,-4.7363,-4.7227,-4.5731,-4.5665,-4.5806,-4.6093,-4.7158,-4.7945,-4.8245,-4.899,-4.9114,-4.8367,-4.8751,-4.8626,-4.7902,-4.6518,-4.5627,-4.5133,-4.4507,-4.4475,-4.4984,-4.5955,-4.6668,-4.7204,-4.6945,-4.6537,-4.6148,-4.608,-4.5309,-4.4121,-4.4213,-4.4069,-4.3758,-4.3758,-4.3646,-4.3513,-4.3693,-4.3646,-4.3497,-4.3497,-4.3497,-4.3497,-4.3497,-4.3497,-4.3497,-4.3497,-4.3497,-4.3406,-4.3002,-4.2598,-4.2121,-4.1313,-4.1111,-4.091,-4.0102,-4.0212,-4.0286,-3.9478,-3.9294,-3.9184,-3.8781,-3.8707,-3.8432,-3.7624,-3.6798,-3.5569,-3.3513,-3.2522,-3.1568,-3.0356,-2.9861,-2.9604,-2.9604,-2.9604,-2.9108,-2.7897,-2.7053,-2.5897,-2.43,-2.419,-2.419,-2.419,-2.419,-2.419,-2.419,-2.419,-2.419,-2.419,-2.419,-2.441,-2.4795,-2.4795,-2.4795,0.0,0.0,0.0,0.0,0.0,0.0,0.0,0.0,-3.5531,-3.8061,-3.8643,-3.972,-4.2939,-4.4317,-4.5527,-4.6969,-4.837,-4.8984,-4.8253,-4.8257,-4.7971,-4.7131,-4.7016,-4.7016,-4.698,-4.7657,-4.8081,-4.8081,-4.8629,-4.8798,-4.8369,-4.8731,-4.845,-4.7204,-4.6566,-4.5847,-4.5024,-4.3854,-4.3771,-4.4796,-4.5136,-4.5837,-4.6699,-4.6478,-4.651,-4.6776,-4.5976,-4.5556,-4.5309,-4.4181,-4.3933,-4.424,-4.4162,-4.3912,-4.3612,-4.3912,-4.3772,-4.3497,-4.3497,-4.3497,-4.3497,-4.3497,-4.3497,-4.3497,-4.3497,-4.3497,-4.3351,-4.2708,-4.2415,-4.2158,-4.1515,-4.135,-4.1295,-4.1148,-4.124,-4.1111,-4.0304,-4.001,-3.9698,-3.9056,-3.8817,-3.8487,-3.7826,-3.7588,-3.6707,-3.4376,-3.3348,-3.232,-3.0852,-3.054,-3.0118,-2.9305,-2.9214,-2.8851,-2.7879,-2.6465,-2.5273,-2.4483,-2.4428,-2.4355,-2.4208,-2.4355,-2.4355,-2.419,-2.4355,-2.4428,-2.4428,-2.4428,-2.485,-2.5642,-2.5807,-2.5788,-3.1765,-3.2912,0.0,-3.499,-3.5504,-3.7023,0.0,0.0,-4.0631,-4.3004,-4.3649,-4.4086,-4.5213,-4.6018,-4.7022,-4.8477,-4.9436,-4.9723,-4.9001,-4.943,-4.9365,-4.7937,-4.7759,-4.7802,-4.7784,-4.8463,-4.8866,-4.8866,-4.8951,-4.9249,-4.9841,-4.9283,-4.8811,-4.8514,-4.6989,-4.573,-4.4837,-4.3804,-4.3771,-4.4812,-4.5698,-4.6548,-4.7523,-4.8291,-4.8267,-4.7521,-4.6547,-4.6372,-4.6725,-4.5187,-4.4783,-4.5034,-4.4655,-4.429,-4.3955,-4.3986,-4.3772,-4.3497,-4.3497,-4.3497,-4.3497,-4.3497,-4.3497,-4.3497,-4.3497,-4.3497,-4.3461,-4.3387,-4.2837,-4.2286,-4.2194,-4.2176,-4.1992,-4.1277,-4.1662,-4.1956,-4.1148,-4.0396,-3.9863,-3.9772,-3.9184,-3.867,-3.8579,-3.7955,-3.689,-3.5119,-3.4192,-3.3348,-3.2467,-3.1715,-3.0962,-3.0155,-3.0081,-2.9457,-2.7934,-2.6979,-2.6117,-2.5329,-2.5274,-2.4962,-2.4226,-2.4887,-2.4924,-2.4208,-2.4887,-2.5274,-2.5274,-2.5274,-2.5676,-2.6484,-2.72,-2.7145,-3.3719,0.0,0.0,0.0,-3.8105,-4.0019,-4.1954,-4.2343,-4.2853,-4.4742,-4.5534,-4.6355,-4.7945,-4.9183,-5.0094,0.0,-5.1232,-5.1302,-4.9277,-4.9266,-4.8904,-4.7471,-4.7268,-4.7445,-4.7841,-4.8156,-4.8555,-4.8968,-4.943,-4.9763,-5.0062,-4.9674,-4.9389,-4.9247,-4.7508,-4.6309,-4.5882,-4.4921,-4.4695,-4.508,-4.6004,-4.6818,-4.7362,-4.7869,-4.798,-4.7625,-4.7486,-4.7325,-4.7003,-4.5369,-4.4912,-4.5165,-4.4766,-4.4346,-4.4046,-4.4261,-4.3974,-4.3497,-4.3497,-4.3497,-4.3497,-4.3497,-4.3497,-4.3497,-4.3497,-4.3497,-4.3497,-4.3497,-4.3259,-4.3002,-4.3002,-4.3002,-4.291,-4.258,-4.2745,-4.2782,-4.1974,-4.1534,-4.102,-4.0065,-3.9625,-3.9239,-3.8781,-3.8414,-3.779,-3.6633,-3.5349,-3.4211,-3.3403,-3.2596,-3.1604,-3.0338,-3.021,-2.9549,-2.7934,-2.7493,-2.6961,-2.6153,-2.6098,-2.5952,-2.5621,-2.5915,-2.5933,-2.5603,-2.5933,-2.6098,-2.6098,-2.6098,-2.6502,-2.731,-2.764,-2.786,-3.4942,0.0,0.0,-3.8064,-4.0283,-4.2535,-4.2715,-4.3588,-4.4732,-4.6049,-4.6666,-4.748,-4.9045,-5.0221,-5.0858,-5.0558,-5.1633,-5.1625,-4.9321,-4.8832,-4.8122,-4.6666,-4.6116,-4.6152,-4.6928,-4.7127,-4.7614,-4.8591,-4.8916,-4.9341,-4.9991,-4.9501,-4.9232,-4.9215,-4.7572,-4.6575,-4.6333,-4.5619,-4.5289,-4.5289,-4.6257,-4.6886,-4.7229,-4.7901,-4.8049,-4.79,-4.8447,-4.8196,-4.7315,-4.57,-4.521,-4.545,-4.4731,-4.428,-4.4046,-4.4337,-4.4035,-4.3497,-4.3497,-4.3497,-4.3497,-4.3497,-4.3497,-4.3497,-4.3497,-4.3497,-4.3497,-4.3497,-4.3497,-4.3497,-4.3497,-4.3497,-4.3497,-4.3497,-4.3497,-4.3332,-4.2763,-4.2451,-4.1956,-4.0781,-4.0194,-3.9698,-3.9129,-3.8854,-3.8505,-3.7918,-3.6615,-3.5312,-3.4284,-3.3238,-3.2082,-3.0687,-3.0338,-2.9641,-2.8246,-2.8136,-2.7787,-2.6979,-2.6924,-2.6833,-2.6612,-2.6814,-2.6833,-2.6612,-2.6833,-2.6924,-2.6924,-2.6924,-2.7346,-2.8136,-2.8136,-2.8448,-3.4688,0.0,-3.8751,-3.94,-4.1451,-4.3923,-4.6146,-4.6639,-4.6879,-4.7656,-4.7694,-4.7596,-4.7669,-4.7666,-4.7904,-4.8661,-4.9521,-4.9825,-4.9124,-4.8392,-4.7394,-4.5906,-4.4418,-4.3826,0.0,-4.5218,-4.6205,-4.7788,-4.6888,-4.7304,-4.9589,-4.8695,-4.8101,-4.787,-4.7068,-4.6238,-4.5322,-4.5296,-4.5289,-4.5289,-4.6257,-4.6886,-4.7285,-4.8987,-4.9427,-4.8696,-4.9301,-4.9058,-4.8141,-4.6526,-4.6041,-4.622,-4.4631,-4.3998,-4.4016,-4.3998,-4.3804,-4.3497,-4.3497,-4.3497,-4.3497,-4.3497,-4.3497,-4.3497,-4.3497,-4.3497,-4.3497,-4.3497,-4.3497,-4.3497,-4.3497,-4.3497,-4.3497,-4.3497,-4.3497,-4.3479,-4.3461,-4.2837,-4.2286,-4.2249,-4.0965,-3.9882,-3.9863,-3.9221,-3.8689,-3.867,-3.7955,-3.6817,-3.5174,-3.356,-3.2284,-3.1439,-3.0668,-2.9861,-2.9012,-2.8957,-2.8631,-2.7805,-2.775,-2.7402,-2.6631,-2.7346,-2.7402,-2.6631,-2.7365,-2.775,-2.775,-2.775,-2.8172,-2.8957,-2.8957,-2.8975,-3.8397,0.0,-4.1107,-4.2562,-4.4649,-4.6582,-4.7383,-4.7882,-4.8054,-4.7327,-4.6174,-4.5407,-4.5915,-4.5875,-4.6373,-4.8235,-4.929,-4.9794,-4.9711,-4.946,-4.8274,-4.5314,-4.5382,0.0,0.0,0.0,0.0,-4.7764,-4.7832,-4.8384,-4.9644,-4.8945,-4.8499,-4.8475,-4.7561,-4.696,-4.664,-4.6666,-4.6636,-4.6621,-4.7293,-4.7696,-4.7853,-4.9808,-5.0238,-4.951,-5.0137,-4.9921,-4.9022,-4.7388,-4.6765,-4.6742,-4.5342,-4.4647,-4.4417,-4.4098,-4.3772,-4.3497,-4.3497,-4.3497,-4.3497,-4.3497,-4.3497,-4.3497,-4.3497,-4.3497,-4.3497,-4.3497,-4.3497,-4.3497,-4.3497,-4.3497,-4.3497,-4.3497,-4.3497,-4.3497,-4.3497,-4.3277,-4.2928,-4.2396,-4.1864,-4.1148,-4.0065,-3.968,-3.9313,-3.8781,-3.801,-3.689,-3.521,-3.4513,-3.3697,-3.2339,-3.1476,-3.0668,-2.9861,-2.9329,-2.8865,-2.8613,-2.8613,-2.8484,-2.8187,-2.8466,-2.8484,-2.8187,-2.8466,-2.8613,-2.8613,-2.8613,-2.8741,-2.8994,-2.8994,-2.9287,-4.1064,-4.2797,-4.4041,-4.5727,-4.7843,-4.9453,-4.9138,-4.9179,-4.8759,-4.6639,-4.4524,-4.3068,-4.2959,-4.257,-4.315,-4.5912,-4.6674,-4.7397,-4.8924,-4.8565,-4.7428,-4.5585,-4.5737,0.0,0.0,0.0,0.0,-4.6437,-4.7436,-4.8158,-4.8624,-4.8401,-4.8226,-4.8226,-4.7677,-4.7309,-4.7309,-4.7309,-4.7309,-4.7279,-4.7809,-4.8205,-4.853,-5.0269,-5.0622,-4.9839,-5.0514,-5.0178,-4.9022,-4.7664,-4.7113,-4.6985,-4.5888,-4.5137,-4.4671,-4.4354,-4.3919,-4.3497,-4.3497,-4.3497,-4.3497,-4.3497,-4.3497,-4.3497,-4.3497,-4.3497,-4.3497,-4.3497,-4.3497,-4.3497,-4.3497,-4.3497,-4.3497,-4.3497,-4.3497,-4.3497,-4.3497,-4.3497,-4.3332,-4.2818,-4.2506,-4.1882,-4.0561,-3.9845,-3.9294,-3.8781,-3.8267,-3.7331,-3.5697,-3.5174,-3.4367,-3.2779,-3.188,-3.1072,-3.0265,-2.9475,-2.8994,-2.8994,-2.8994,-2.8994,-2.8994,-2.8994,-2.8994,-2.8994,-2.8994,-2.9122,-2.9439,-2.9535,-2.9732,-3.0009,-3.0009,-3.0286,-4.265,-4.4963,-4.7329,-4.8779,-5.0831,-5.223,-5.1338,-5.0414,-4.8823,-4.5564,-4.2828,-4.0522,0.0,0.0,-3.8624,-4.206,-4.2199,-4.3243,-4.7242,-4.6157,-4.5415,0.0,0.0,0.0,0.0,0.0,0.0,-4.4154,0.0,-4.678,-4.6748,-4.7122,-4.7309,-4.7309,-4.7309,-4.7309,-4.7309,-4.7309,-4.7279,-4.7291,-4.7856,-4.849,-4.9233,-5.054,-5.0606,-4.9803,-5.0501,-4.9884,-4.8306,-4.7498,-4.7186,-4.7095,-4.6287,-4.5498,-4.4819,-4.4745,-4.4213,-4.3552,-4.3497,-4.3497,-4.3497,-4.3497,-4.3497,-4.3497,-4.3497,-4.3497,-4.3497,-4.3497,-4.3497,-4.3497,-4.3497,-4.3497,-4.3497,-4.3497,-4.3497,-4.3497,-4.3497,-4.3497,-4.3497,-4.3497,-4.2837,-4.2047,-4.1258,-3.9808,-3.8762,-3.8707,-3.8707,-3.812,-3.6505,-3.5587,-3.444,-3.2834,-3.1935,-3.1146,-3.0393,-2.9549,-2.9049,-2.9049,-2.9049,-2.9049,-2.9049,-2.9085,-2.9104,-2.9104,-2.9104,-2.9512,-3.027,-3.0535,-3.1057,-3.1803,-3.1803,-3.18,-4.6376,-4.9001,-5.1059,-5.1402,-5.2337,-5.2637,-5.0682,-4.8657,-4.6341,-4.3155,-3.9477,-3.6912,0.0,0.0,0.0,-4.3414,-4.4689,0.0,-5.0488,-5.0152,0.0,-4.8528,0.0,-4.8319,-4.5172,-4.6957,0.0,0.0,-4.5295,-4.6408,-4.7413,-4.738,-4.7309,-4.7309,-4.7309,-4.7309,-4.7309,-4.7309,-4.7416,-4.7596,-4.7912,-4.8589,-4.955,-5.0593,-5.0891,-5.0579,-5.0738,-5.0215,-4.9187,-4.8361,-4.7994,-4.7921,-4.7113,-4.6691,-4.6361,-4.5149,-4.458,-4.4305,-4.3699,-4.3497,-4.3497,-4.3497,-4.3497,-4.3497,-4.3497,-4.3497,-4.3497,-4.3497,-4.3497,-4.3497,-4.3497,-4.3497,-4.3497,-4.3497,-4.3497,-4.3497,-4.3497,-4.3497,-4.3497,-4.3497,-4.2837,-4.2047,-4.1258,-4.0267,-3.9386,-3.8799,-3.8707,-3.812,-3.6505,-3.6101,-3.533,-3.3678,-3.2779,-3.221,-3.2027,-3.0705,-2.9898,-2.9898,-2.9898,-2.9898,-2.9898,-3.0467,-3.0797,-3.0797,-3.0797,-3.0996,-3.1392,-3.1461,-3.1598,-3.1803,-3.1803,-3.2001,-4.9894,-5.2218,-5.3744,-5.344,-5.362,-5.3064,-4.9964,-4.7734,-4.5183,-4.1151,-3.7703,0.0,0.0,0.0,0.0,0.0,0.0,0.0,-4.9992,-5.0149,-4.9813,0.0,-5.071,0.0,-4.6795,-4.847,-4.8675,0.0,-4.657,-4.7157,-4.7531,-4.7684,-4.7863,-4.8162,-4.786,-4.7575,-4.7309,-4.7309,-4.741,-4.7698,-4.8337,-4.9078,-5.0137,-5.1105,-5.1293,-5.0853,0.0,-5.0123,-4.8985,-4.8508,-4.8306,-4.8269,-4.781,-4.7425,-4.7003,-4.6104,-4.5314,-4.4654,-4.4176,-4.403,-4.3975,-4.3608,-4.3497,-4.3497,-4.3497,-4.3497,-4.3497,-4.3497,-4.3497,-4.3497,-4.3497,-4.3497,-4.3497,-4.3497,-4.3497,-4.3497,-4.3497,-4.3497,-4.3497,-4.3497,-4.2837,-4.2158,-4.1699,-4.0671,-3.9753,-3.9294,-3.8927,-3.8248,-3.6982,-3.6505,-3.5789,-3.4486,-3.3293,-3.2614,-3.2614,-3.1458,-3.0723,-3.0723,-3.0723,-3.0723,-3.0723,-3.1146,-3.1458,-3.1589,-3.1589,-3.1879,-3.2497,-3.2617,-3.2883,-3.326,-3.3139,-3.3299,-5.2978,-5.4738,-5.5772,-5.4871,-5.4467,-5.3243,-4.9171,-4.6908,-4.4262,-3.9289,0.0,-3.481,-3.3755,-3.376,-3.5257,-3.9239,0.0,-4.2582,-4.8017,-4.839,-4.8944,-5.1099,-5.1307,-5.0625,-4.8941,-4.9447,-4.9329,-4.8055,-4.85,-4.8444,-4.7538,-4.792,-4.8416,-4.8985,-4.8546,-4.7959,-4.7309,-4.7422,-4.7562,-4.7791,-4.8885,-4.9886,-5.0776,-5.1672,-5.1673,-5.0949,0.0,0.0,-4.8618,-4.8398,-4.8379,-4.8471,-4.8361,-4.7884,-4.726,-4.715,-4.6232,-4.5002,-4.4911,-4.48,-4.458,-4.3754,-4.3626,-4.3773,-4.3552,-4.3552,-4.3626,-4.3516,-4.3497,-4.3497,-4.3497,-4.3497,-4.3497,-4.3497,-4.3497,-4.3497,-4.3497,-4.3497,-4.3497,-4.3497,-4.2928,-4.2433,-4.2323,-4.113,-4.0139,-3.9918,-3.9313,-3.8579,-3.7753,-3.6945,-3.6083,-3.5082,-3.3743,-3.2889,-3.2779,-3.2027,-3.1549,-3.1549,-3.1549,-3.1574,-3.1605,-3.1716,-3.1903,-3.2182,-3.2182,-3.2666,-3.362,-3.3855,-3.4358,-3.5088,-3.487,-3.487,-5.4778,-5.6401,-5.7261,-5.5852,-5.4454,-5.2358,-4.8239,-4.4752,0.0,0.0,-3.463,-3.3171,-3.2302,-3.3596,0.0,-3.9331,0.0,0.0,0.0,0.0,-5.0189,0.0,0.0,0.0,0.0,0.0,0.0,0.0,0.0,-4.8743,-4.8527,-4.787,-4.7534,-4.7638,-4.8064,-4.7959,-4.7309,-4.8094,-4.8372,-4.8056,-4.9674,-5.0634,-5.1055,-5.1748,-5.1982,-5.1738,-5.1096,0.0,-5.027,-4.8875,-4.8728,-4.9297,-4.8581,-4.8214,-4.8012,-4.737,-4.6929,-4.6599,-4.592,-4.5259,-4.458,-4.3754,-4.4397,-4.5241,-4.3883,-4.3956,-4.436,-4.3681,-4.3497,-4.3497,-4.3497,-4.3497,-4.3497,-4.3497,-4.3497,-4.3497,-4.3497,-4.3497,-4.3497,-4.3497,-4.3387,-4.3075,-4.2415,-4.2066,-4.1423,-4.0102,-3.9772,-3.9405,-3.8597,-3.779,-3.6688,-3.5155,-3.4734,-3.4321,-3.3642,-3.2852,-3.2394,-3.2394,-3.2394,-3.2502,-3.2711,-3.3366,-3.3877,-3.4199,-3.4199,-3.4415,-3.4805,-3.484,-3.4952,-3.5105,-3.5034,-3.4944,-5.5965,-5.7272,-5.7629,-5.6025,-5.3794,-5.0674,-4.5736,0.0,0.0,0.0,-3.3004,-3.2416,-3.189,0.0,0.0,0.0,0.0,0.0,0.0,0.0,0.0,0.0,0.0,0.0,0.0,0.0,0.0,0.0,0.0,-4.9119,-4.859,-4.8365,-4.8162,-4.7833,-4.8085,-4.8022,-4.7309,-4.7912,-4.8367,-4.8673,-5.0023,-5.1031,-5.1616,-5.1919,-5.1798,-5.1353,-5.0967,0.0,-4.9481,-4.9114,-4.8948,-4.8875,-4.8471,-4.8306,-4.8251,-4.7884,-4.748,-4.702,-4.6673,-4.6287,-4.5828,-4.5002,-4.4984,-4.5131,-4.436,-4.469,-4.5168,-4.4342,-4.4121,-4.403,-4.3608,-4.3497,-4.3497,-4.3497,-4.3497,-4.3497,-4.3497,-4.3497,-4.3497,-4.3497,-4.3497,-4.3369,-4.2983,-4.258,-4.2047,-4.1258,-4.0432,-3.9753,-3.9368,-3.8615,-3.7661,-3.6431,-3.5936,-3.5532,-3.5128,-3.4339,-3.3835,-3.3835,-3.3578,-3.3493,-3.3622,-3.4547,-3.5216,-3.5533,-3.5533,-3.5872,-3.6623,-3.6147,-3.6166,-3.6623,-3.647,-3.6171,-5.6403,-5.7307,-5.7134,-5.5684,-5.2656,-4.86,-4.3309,-3.9807,0.0,0.0,-3.1956,-3.2034,-3.1456,0.0,-3.455,0.0,0.0,0.0,0.0,0.0,0.0,0.0,0.0,0.0,0.0,0.0,0.0,0.0,0.0,0.0,-4.8565,-4.885,-4.882,-4.8297,-4.8282,-4.804,-4.7624,-4.7942,-4.8531,-4.9556,-5.0385,-5.1129,-5.1846,-5.1767,-5.1389,-5.0802,-5.0618,0.0,0.0,-4.937,-4.9297,-4.8838,-4.8838,-4.8728,-4.8581,-4.8581,-4.8067,-4.737,-4.737,-4.726,-4.7021,-4.6361,-4.5847,-4.5424,-4.5057,-4.5516,-4.5957,-4.4984,-4.4709,-4.4525,-4.3699,-4.3497,-4.3497,-4.3497,-4.3497,-4.3497,-4.3497,-4.3497,-4.3497,-4.3497,-4.3497,-4.3497,-4.3497,-4.2983,-4.2506,-4.2323,-4.1075,-4.0084,-3.9918,-3.9203,-3.8469,-3.7808,-3.7037,-3.6486,-3.6303,-3.5679,-3.5303,-3.5367,-3.4964,-3.4792,-3.4911,-3.5788,-3.6388,-3.6659,-3.6659,-3.7105,-3.8007,-3.7315,-3.7334,-3.7988,-3.7775,-3.7428,-5.5616,-5.6053,-5.5592,-5.473,-5.0967,-4.6415,-4.239,0.0,0.0,-3.1984,-3.1801,-3.1732,-3.0187,-3.0891,-3.2125,-3.3284,-3.4736,-3.7023,0.0,0.0,0.0,0.0,0.0,0.0,0.0,0.0,0.0,0.0,0.0,0.0,-4.9224,-4.8671,-4.8341,-4.8282,-4.8282,-4.8445,-4.8677,-4.8969,-4.9658,-5.0561,-5.0856,-5.1012,-5.1005,-5.0936,-5.089,-5.0765,-5.0013,0.0,0.0,-4.9866,-4.9976,-5.0582,-5.0582,-5.0123,-4.9462,-4.9462,-4.893,-4.8196,-4.8196,-4.7719,-4.7113,-4.7021,-4.7443,-4.77,-4.6232,-4.6361,-4.6691,-4.5149,-4.4709,-4.4525,-4.3699,-4.3497,-4.3497,-4.3497,-4.3497,-4.3497,-4.3497,-4.3497,-4.3497,-4.3497,-4.3497,-4.3497,-4.3497,-4.3424,-4.313,-4.2415,-4.1552,-4.0726,-3.9992,-3.9203,-3.867,-3.8597,-3.7863,-3.7074,-3.6358,-3.6229,-3.6261,-3.6533,-3.6491,-3.6723,-3.7262,-3.7394,-3.7575,-3.7843,-3.7843,-3.7896,-3.8007,-3.7911,-3.7911,-3.8007,-3.7973,-3.7935,-5.3171,-5.4962,-5.5152,-5.339,-4.9279,-4.4651,-4.0841,0.0,-3.2996,-3.0928,-3.0623,-3.0487,-2.9809,-3.0634,-3.1485,-3.1715,-3.227,0.0,0.0,0.0,0.0,0.0,0.0,0.0,0.0,0.0,0.0,0.0,0.0,0.0,-4.9299,-4.8641,-4.8102,-4.7713,-4.7698,-4.7825,-4.814,-4.8004,-4.8862,-5.0678,-5.001,-5.0319,-5.1522,-5.0527,-5.0068,-5.0046,-4.9722,0.0,0.0,-4.9517,-4.9774,-5.0068,-5.0068,-4.9866,-4.9591,-4.9591,-4.904,-4.8306,-4.8306,-4.8104,-4.7829,-4.7829,-4.7719,-4.748,-4.6838,-4.6856,-4.6893,-4.5755,-4.5424,-4.5131,-4.3828,-4.3497,-4.3608,-4.4103,-4.3846,-4.3497,-4.3497,-4.3497,-4.3497,-4.3497,-4.3497,-4.3497,-4.3497,-4.3497,-4.3387,-4.3057,-4.2341,-4.1717,-4.1387,-4.0653,-4.0157,-4.0157,-3.9001,-3.8083,-3.7771,-3.747,-3.731,-3.7403,-3.7303,-3.7336,-3.7583,-3.8257,-3.8661,-3.8777,-3.8777,-3.9008,-3.9488,-3.9008,-3.9027,-3.9488,-3.9488,-3.9238,-4.9709,-5.214,-5.2968,-5.1022,-4.6893,-4.2423,0.0,0.0,-3.1447,-3.0333,-2.9896,-2.9696,-2.9696,-3.0142,-3.0545,-3.0578,-3.0487,-3.1659,-3.5277,0.0,0.0,0.0,0.0,0.0,0.0,0.0,0.0,0.0,0.0,0.0,0.0,-4.8698,-4.8072,-4.7608,-4.7714,-4.7904,-4.8184,-4.791,-4.8745,-5.0763,-4.9387,-4.9604,-5.1252,-4.985,-4.9207,-4.9203,0.0,0.0,0.0,-4.9205,-4.9572,-4.9609,-4.9848,-4.9793,-4.9591,-4.9591,-4.904,-4.8306,-4.8306,-4.8306,-4.8269,-4.8031,-4.7407,-4.6801,-4.704,-4.7113,-4.6948,-4.6122,-4.5902,-4.5535,-4.392,-4.3663,-4.3938,-4.4268,-4.3901,-4.3497,-4.3497,-4.3497,-4.3497,-4.3497,-4.3497,-4.3497,-4.3497,-4.3497,-4.3497,-4.3497,-4.2818,-4.2304,-4.2304,-4.1607,-4.1126,-4.1248,-4.0013,-3.9142,-3.9056,-3.8878,-3.8683,-3.8415,-3.8357,-3.8363,-3.8452,-3.9234,-3.9642,-3.9642,-3.9642,-3.9931,-4.0489,-3.9931,-3.995,-4.0489,-4.0489,-4.02,-4.5237,-4.701,-4.8196,-4.737,-4.3534,-3.943,0.0,0.0,-3.0818,-3.0459,-3.0022,-2.9696,-2.9696,-2.9008,-2.8784,-2.992,-2.9787,-3.0693,-3.405,0.0,0.0,0.0,0.0,0.0,0.0,0.0,0.0,0.0,0.0,0.0,0.0,-4.8905,-4.8282,-4.8282,-4.8645,-4.8967,-4.9266,-4.9391,-4.9984,-5.0964,-4.9301,-4.891,-4.9591,-4.871,-4.8324,0.0,0.0,0.0,0.0,-4.9169,-4.9536,-4.9664,-5.0472,-5.0288,-4.9591,-4.9591,-4.904,-4.8306,-4.8306,-4.8306,-4.8177,-4.7388,-4.6581,-4.6067,-4.6874,-4.7113,-4.6948,-4.6122,-4.5902,-4.5535,-4.392,-4.4085,-4.4488,-4.3699,-4.3497,-4.3497,-4.3497,-4.3497,-4.3497,-4.3497,-4.3497,-4.3497,-4.3497,-4.3497,-4.3497,-4.3497,-4.2818,-4.2304,-4.2304,-4.1607,-4.1235,-4.1547,-4.0812,-4.0195,-3.9895,-4.051,-4.049,-3.9637,-3.9882,-4.0194,-4.0469,-4.0469,-4.0489,-4.0489,-4.0489,-4.0489,-4.0489,-4.0489,-4.0489,-4.0489,-4.0489,-4.0489,-3.9883,-4.186,-4.2772,-4.205,-3.9415,-3.6614,-3.5093,-3.2424,-3.0308,-3.0381,-3.0022,-2.9696,-2.9696,-2.9659,-2.9906,-3.0729,-3.121,-3.186,0.0,0.0,0.0,0.0,0.0,0.0,0.0,0.0,0.0,0.0,0.0,0.0,0.0,-4.7767,-4.7925,-4.8615,-4.8255,-4.8324,-4.8779,-4.8261,-4.8517,-4.9493,-4.8332,-4.8387,-4.9551,-4.871,0.0,0.0,0.0,0.0,0.0,-4.8581,-4.9042,-4.9614,-4.9887,-4.9811,-4.9591,-4.9591,-4.904,-4.8306,-4.8306,-4.8306,-4.8177,-4.737,-4.6562,-4.5957,-4.6214,-4.6287,-4.6232,-4.5975,-4.5902,-4.5773,-4.5259,-4.4929,-4.4929,-4.5773,-4.4709,-4.3644,-4.4195,-4.3883,-4.3497,-4.3497,-4.3497,-4.3497,-4.3497,-4.3497,-4.3497,-4.3497,-4.3277,-4.3177,-4.3415,-4.3256,-4.3223,-4.3603,-4.3617,-4.2994,-4.1533,-4.0749,-4.0475,-4.0741,-4.0519,-4.0406,-4.0489,-4.0489,-4.0489,-4.0489,-4.0489,-4.0489,-4.0489,-4.0489,-4.0489,-4.0489,-4.0489,-4.0489,-3.5058,-3.72,-3.8091,-3.7652,-3.5687,-3.3652,-3.2916,-3.1093,-2.968,-3.0151,-2.9958,-2.9678,-2.9607,-2.9447,-2.9566,-3.0269,-3.0534,0.0,0.0,0.0,0.0,0.0,0.0,0.0,0.0,0.0,0.0,0.0,0.0,0.0,0.0,-4.7694,-4.8171,-4.8984,-4.8561,-4.8413,-4.8608,-4.8386,-4.813,-4.79,-4.7461,-4.7627,-4.8194,-4.7976,0.0,0.0,0.0,0.0,0.0,-4.8306,-4.862,-4.9099,-4.9116,-4.9095,-4.9095,-4.9095,-4.8765,-4.8306,-4.8306,-4.8306,-4.8122,-4.7021,-4.6305,-4.5957,-4.6269,-4.6361,-4.6361,-4.6361,-4.6581,-4.6673,-4.6067,-4.5755,-4.5718,-4.6122,-4.5278,-4.4378,-4.4268,-4.4085,-4.3864,-4.3552,-4.3497,-4.3497,-4.3497,-4.3497,-4.3497,-4.3497,-4.3497,-4.3612,-4.3955,-4.4016,-4.4204,-4.4732,-4.468,-4.4293,-4.3488,-4.2354,-4.1705,-4.178,-4.1602,-4.1335,-4.0989,-4.0989,-4.0835,-4.0508,-4.0489,-4.0489,-4.0489,-4.0489,-4.0662,-4.0969,-4.0642,-4.0681,0.0,-3.2902,-3.3867,-3.4005,-3.2314,-3.0734,-3.0991,-2.9912,0.0,-2.9846,-2.9829,-2.9644,-2.9509,-2.8639,-2.8227,-2.9089,0.0,0.0,0.0,0.0,0.0,0.0,0.0,0.0,0.0,0.0,0.0,0.0,0.0,0.0,0.0,-4.8164,-4.892,-4.9281,-4.9245,-4.9022,-4.8528,-4.9348,-4.8582,-4.6389,-4.6876,-4.6728,-4.6012,-4.6709,0.0,0.0,0.0,0.0,0.0,-4.8306,-4.8306,-4.8306,-4.8306,-4.8306,-4.8306,-4.8306,-4.8306,-4.8306,-4.8306,-4.8306,-4.8049,-4.6489,-4.5993,-4.6122,-4.6893,-4.715,-4.7186,-4.7094,-4.77,-4.7939,-4.6397,-4.6544,-4.6764,-4.5314,-4.5406,-4.5424,-4.3975,-4.4176,-4.4397,-4.3644,-4.3497,-4.3497,-4.3497,-4.3497,-4.3497,-4.3497,-4.3513,-4.3646,-4.4016,-4.4058,-4.4354,-4.5074,-4.4412,-4.4382,-4.5491,-4.4739,-4.3787,-4.2794,-4.2963,-4.2739,-4.1931,-4.1835,-4.145,-4.07,-4.0681,-4.0642,-4.0585,-4.0585,-4.1008,-4.1777,-4.0969,-4.1066,-2.75,0.0,-2.8593,-2.9276,-2.9365,-2.9341,0.0,-2.9527,-2.9585,-2.9931,-2.9731,-2.964,-3.0213,-2.9192,-2.9024,0.0,0.0,0.0,0.0,0.0,0.0,0.0,0.0,0.0,0.0,0.0,0.0,0.0,0.0,0.0,0.0,-4.7721,-4.8356,-4.9266,-4.8956,-4.8562,-4.8102,-4.8638,-4.8116,-4.6383,-4.6858,-4.7021,-4.6819,-4.6379,0.0,0.0,0.0,0.0,-4.8306,-4.8306,-4.8306,-4.8306,-4.8306,-4.8306,-4.8306,-4.8306,-4.8306,-4.8306,-4.8306,-4.8306,-4.8141,-4.715,-4.6838,-4.6874,-4.702,-4.7535,-4.7902,-4.7297,-4.77,-4.8086,-4.7095,-4.6966,-4.7186,-4.7407,-4.6195,-4.5057,-4.5278,-4.4507,-4.3718,-4.3534,-4.3497,-4.3497,-4.3497,-4.3497,-4.3497,-4.3497,-4.3726,-4.4016,-4.4419,-4.4663,-4.5011,-4.5438,-4.5303,-4.5302,-4.5586,-4.4239,-4.353,-4.3881,-4.3398,-4.3008,-4.2797,-4.2162,-4.2027,-4.247,-4.2489,-4.2162,-4.1489,-4.1489,-4.1604,-4.1797,-4.1585,-4.197,-2.574,-2.6233,-2.6773,-2.7532,-2.7963,-2.8221,-2.8229,-2.8685,-2.8997,-2.8652,0.0,0.0,0.0,0.0,0.0,0.0,0.0,0.0,0.0,0.0,0.0,0.0,0.0,0.0,0.0,0.0,0.0,0.0,0.0,0.0,0.0,-4.7858,-4.843,-4.8339,-4.8622,-4.85,-4.7936,-4.8415,-4.7586,-4.5304,-4.6172,-4.6177,-4.5461,-4.5755,-4.614,0.0,0.0,0.0,-4.8306,-4.8513,-4.8458,-4.8306,-4.8306,-4.8306,-4.8306,-4.8306,-4.8306,-4.8306,-4.8306,-4.8067,-4.7755,-4.7682,-4.7407,-4.7186,-4.7553,-4.7957,-4.8214,-4.7774,-4.7976,-4.8214,-4.7774,-4.7664,-4.7682,-4.7737,-4.704,-4.6177,-4.5498,-4.4966,-4.4378,-4.3626,-4.3497,-4.3497,-4.3497,-4.3497,-4.3497,-4.3497,-4.3646,-4.3974,-4.4527,-4.4776,-4.5074,-4.555,-4.5586,-4.5586,-4.5586,-4.4759,-4.4432,-4.4874,-4.4489,-4.4066,-4.3662,-4.3201,-4.3008,-4.3104,-4.3104,-4.2874,-4.2412,-4.2412,-4.2585,-4.2951,-4.2566,-4.2854,-2.4974,-2.5719,-2.66,-2.6942,-2.7068,-2.7157,-2.7132,-2.771,-2.8034,0.0,0.0,0.0,0.0,0.0,0.0,0.0,0.0,0.0,0.0,0.0,0.0,0.0,0.0,0.0,0.0,0.0,0.0,0.0,0.0,0.0,0.0,-4.7792,-4.8206,-4.7061,-4.8034,-4.8287,-4.7597,-4.8189,-4.7113,-4.4375,-4.5515,-4.5369,-4.4085,-4.5333,-4.5975,0.0,0.0,0.0,-4.8344,-4.8657,-4.8604,-4.8306,-4.8306,-4.8306,-4.8306,-4.8306,-4.8306,-4.8306,-4.8306,-4.7865,-4.7407,-4.8086,-4.7847,-4.7425,-4.8104,-4.8306,-4.8306,-4.8306,-4.8306,-4.8306,-4.8306,-4.8306,-4.8141,-4.7462,-4.7719,-4.7572,-4.5516,-4.5406,-4.5314,-4.3938,-4.3571,-4.3497,-4.3497,-4.3497,-4.3513,-4.3563,-4.3563,-4.3836,-4.458,-4.4676,-4.4919,-4.5531,-4.5586,-4.5586,-4.5586,-4.5586,-4.5586,-4.5586,-4.5586,-4.5201,-4.4335,-4.4432,-4.4124,-4.3297,-4.3412,-4.3412,-4.3278,-4.3278,-4.3624,-4.4278,-4.3605,-4.372,-2.4828,-2.5447,-2.5887,-2.5011,-2.5186,-2.5782,-2.6673,-2.7182,-2.7757,0.0,0.0,0.0,0.0,0.0,0.0,0.0,0.0,0.0,0.0,0.0,0.0,0.0,0.0,0.0,0.0,0.0,0.0,0.0,0.0,0.0,0.0,0.0,-4.6225,-4.6191,-4.6633,-4.6612,-4.6058,-4.7195,-4.7179,-4.6012,-4.6604,-4.6801,-4.6544,-4.6104,-4.6269,-4.6948,0.0,-4.7739,-4.8306,-4.8364,-4.8364,-4.8306,-4.8306,-4.8306,-4.8306,-4.8306,-4.8306,-4.8306,-4.8306,-4.8233,-4.8141,-4.8269,-4.8233,-4.8141,-4.8269,-4.8306,-4.8306,-4.8306,-4.8306,-4.8306,-4.8306,-4.8306,-4.8269,-4.8159,-4.77,-4.7186,-4.6819,-4.5773,-4.4819,-4.4562,-4.3975,-4.3497,-4.3497,-4.3497,-4.3597,-4.3881,-4.3924,-4.4175,-4.4943,-4.5011,-4.5161,-4.5568,-4.5586,-4.5586,-4.5586,-4.5586,-4.5586,-4.5586,-4.5586,-4.5201,-4.4335,-4.5009,-4.4989,-4.4124,-4.4836,-4.4855,-4.4124,-4.4124,-4.4182,-4.4297,-4.4162,-4.4586,-2.4588,-2.4901,-2.4989,-2.4174,-2.5254,-2.6423,-2.6158,-2.7198,-2.8139,0.0,0.0,0.0,0.0,0.0,0.0,0.0,0.0,0.0,0.0,0.0,0.0,0.0,0.0,0.0,0.0,0.0,0.0,0.0,0.0,0.0,0.0,0.0,-4.5809,-4.6103,-4.5961,-4.6038,-4.6295,-4.6742,-4.6542,-4.5729,-4.6699,-4.6893,-4.6452,-4.6526,-4.6874,-4.7455,0.0,-4.8288,-4.8621,-4.8621,-4.8477,-4.8306,-4.8306,-4.8306,-4.8306,-4.8306,-4.8306,-4.8306,-4.8306,-4.8306,-4.8306,-4.8306,-4.8306,-4.8306,-4.8306,-4.8306,-4.8306,-4.8306,-4.8306,-4.8306,-4.8306,-4.8306,-4.8306,-4.8306,-4.8031,-4.7517,-4.6654,-4.5883,-4.5094,-4.4213,-4.3754,-4.3497,-4.3497,-4.3646,-4.3818,-4.3986,-4.4175,-4.4508,-4.5033,-4.5096,-4.5222,-4.5568,-4.5586,-4.5586,-4.5586,-4.5586,-4.5586,-4.5586,-4.5586,-4.5413,-4.5009,-4.5374,-4.5413,-4.5009,-4.5393,-4.5393,-4.4989,-4.4989,-4.4989,-4.4989,-4.4989,-4.522,-2.4338,-2.4355,-2.4192,-2.3717,-2.5226,-2.6781,-2.6548,-2.7862,-2.9022,0.0,0.0,0.0,0.0,0.0,0.0,0.0,0.0,0.0,0.0,0.0,0.0,0.0,0.0,0.0,0.0,0.0,0.0,0.0,0.0,0.0,0.0,0.0,-4.5192,-4.5639,-4.5096,-4.5351,-4.6459,-4.6409,-4.6065,-4.5481,-4.6789,-4.7076,-4.6489,-4.7187,-4.7679,-4.8002,-4.8617,-4.8897,-4.8897,-4.8813,-4.8568,-4.8306,-4.8306,-4.8306,-4.8306,-4.8306,-4.8306,-4.8306,-4.8306,-4.8306,-4.8306,-4.8306,-4.8306,-4.8306,-4.8306,-4.8306,-4.8306,-4.8306,-4.8306,-4.8306,-4.8306,-4.8306,-4.8306,-4.8306,-4.8306,-4.7957,-4.6728,-4.6177,-4.5535,-4.4287,-4.3754,-4.3513,-4.3597,-4.3836,-4.4058,-4.4233,-4.4455,-4.4732,-4.5161,-4.5159,-4.5222,-4.5568,-4.5586,-4.5586,-4.5586,-4.5586,-4.5586,-4.5586,-4.5586,-4.5586,-4.5586,-4.5586,-4.5586,-4.5586,-4.5586,-4.5586,-4.5586,-4.5586,-4.5586,-4.5586,-4.5586,-4.5586,-2.4133,-2.3998,-2.3674,-2.3305,-2.3886,-2.5387,-2.8655,-2.9437,0.0,-3.4035,0.0,0.0,0.0,0.0,0.0,0.0,0.0,0.0,0.0,0.0,0.0,0.0,0.0,0.0,0.0,0.0,0.0,0.0,0.0,0.0,0.0,0.0,0.0,-4.4134,-4.3517,-4.3953,-4.558,-4.6116,-4.6348,-4.6342,-4.7606,-4.8196,-4.8122,-4.8563,-4.8788,-4.8822,-4.8859,-4.8897,-4.8863,-4.8477,-4.8344,-4.8306,-4.8306,-4.8306,-4.8306,-4.8306,-4.8306,-4.8306,-4.8306,-4.8306,-4.8306,-4.8306,-4.8306,-4.8306,-4.8306,-4.8306,-4.8306,-4.8306,-4.8306,-4.8306,-4.8306,-4.8306,-4.8306,-4.8306,-4.8306,-4.8269,-4.8159,-4.6948,-4.5865,-4.5755,-4.4507,-4.3597,-4.3893,-4.3967,-4.4233,-4.4919,-4.4781,-4.483,-4.5495,-4.5302,-4.5222,-4.5568,-4.5586,-4.5586,-4.5586,-4.5586,-4.5586,-4.5586,-4.5586,-4.5586,-4.5586,-4.5586,-4.5586,-4.5586,-4.5586,-4.5586,-4.5586,-4.5586,-4.5586,-4.5586,-4.5586,-4.5586,-2.35,-2.401,-2.424,-2.3407,-2.4509,-2.6134,0.0,-2.9248,-3.1113,-3.3072,-3.4145,0.0,0.0,0.0,0.0,0.0,0.0,0.0,0.0,0.0,0.0,0.0,0.0,0.0,0.0,0.0,0.0,0.0,0.0,0.0,0.0,0.0,0.0,-4.4644,-4.401,-4.4467,-4.6152,-4.634,-4.6618,-4.7044,-4.7897,-4.8306,-4.8306,-4.8458,-4.8813,-4.9234,-4.8744,-4.8813,-4.9234,-4.8586,-4.8306,-4.8306,-4.8306,-4.8306,-4.8306,-4.8306,-4.8306,-4.8306,-4.8306,-4.8306,-4.8306,-4.8306,-4.8306,-4.8306,-4.8306,-4.8306,-4.8306,-4.8306,-4.8306,-4.8306,-4.8306,-4.8306,-4.8306,-4.8306,-4.8306,-4.8159,-4.7682,-4.7095,-4.6507,-4.5993,-4.5406,-4.4941,-4.4761,-4.4942,-4.5111,-4.5106,-4.5161,-4.5303,-4.5568,-4.5495,-4.5457,-4.5586,-4.5586,-4.5586,-4.5586,-4.5586,-4.5586,-4.5586,-4.5586,-4.5586,-4.5586,-4.5586,-4.5586,-4.5586,-4.5586,-4.5586,-4.5586,-4.5586,-4.5586,-4.5586,-4.5586,-4.5586,-2.3064,-2.3513,-2.3791,-2.3499,-2.5057,-2.6953,-2.7913,-3.0074,-3.2371,-3.3987,-3.4992,0.0,0.0,0.0,0.0,0.0,0.0,0.0,0.0,0.0,0.0,0.0,0.0,0.0,0.0,0.0,0.0,0.0,0.0,0.0,0.0,0.0,0.0,0.0,-4.3754,-4.4393,-4.6499,-4.6209,-4.6551,-4.7715,-4.7837,-4.8067,-4.8306,-4.8586,-4.8915,-4.9295,-4.8881,-4.8915,-4.9265,-4.8568,-4.8306,-4.8306,-4.8306,-4.8306,-4.8306,-4.8306,-4.8306,-4.8306,-4.8306,-4.8306,-4.8306,-4.8306,-4.8306,-4.8306,-4.8306,-4.8306,-4.8306,-4.8306,-4.8306,-4.8306,-4.8306,-4.8306,-4.8306,-4.8306,-4.8306,-4.8159,-4.7609,-4.7371,-4.7131,-4.6559,-4.6366,-4.6118,-4.5621,-4.5787,-4.5797,-4.5316,-4.5438,-4.5586,-4.5586,-4.5586,-4.5586,-4.5586,-4.5836,-4.5893,-4.5605,-4.5586,-4.5586,-4.5586,-4.5586,-4.5586,-4.5586,-4.5586,-4.5586,-4.5586,-4.5586,-4.5586,-4.5586,-4.5586,-4.5586,-4.5586,-4.5586,-4.5586,-2.2906,-2.2428,-2.1985,0.0,0.0,0.0,-3.0497,-3.2341,-3.4406,-3.794,0.0,-3.6096,0.0,0.0,0.0,0.0,0.0,0.0,0.0,0.0,0.0,0.0,0.0,0.0,0.0,0.0,0.0,0.0,0.0,0.0,0.0,0.0,0.0,0.0,-4.2365,-4.3431,-4.6365,-4.5587,-4.6237,-4.8269,-4.7498,-4.7535,-4.8344,-4.9126,-4.9265,-4.893,-4.9326,-4.9265,-4.8863,-4.8458,-4.8306,-4.8306,-4.8306,-4.8306,-4.8306,-4.8306,-4.8306,-4.8306,-4.8306,-4.8306,-4.8306,-4.8306,-4.8306,-4.8306,-4.8306,-4.8306,-4.8306,-4.8306,-4.8306,-4.8306,-4.8306,-4.8306,-4.8306,-4.8306,-4.8306,-4.8306,-4.8306,-4.7992,-4.7718,-4.7718,-4.7387,-4.6947,-4.6405,-4.632,-4.6158,-4.5666,-4.5586,-4.5586,-4.5586,-4.5586,-4.5586,-4.5586,-4.6374,-4.6547,-4.5663,-4.5586,-4.5586,-4.5586,-4.5586,-4.5586,-4.5586,-4.5586,-4.5586,-4.5586,-4.5586,-4.5586,-4.5586,-4.5586,-4.5586,-4.5586,-4.5586,-4.5586,-2.2493,-2.2928,0.0,-2.4167,0.0,0.0,0.0,-3.2341,0.0,0.0,0.0,0.0,0.0,0.0,0.0,0.0,0.0,0.0,0.0,0.0,0.0,0.0,0.0,0.0,0.0,0.0,0.0,0.0,0.0,0.0,0.0,0.0,0.0,0.0,-4.2301,-4.3081,-4.5552,-4.4792,-4.5161,-4.6617,-4.6948,-4.7535,-4.8306,-4.855,-4.8763,-4.8897,-4.8728,-4.8763,-4.8863,-4.8458,-4.8306,-4.8306,-4.8306,-4.8306,-4.8306,-4.8306,-4.8306,-4.8306,-4.8306,-4.8306,-4.8306,-4.8306,-4.8306,-4.8306,-4.8306,-4.8306,-4.8306,-4.8306,-4.8306,-4.8306,-4.8306,-4.8306,-4.8306,-4.8306,-4.8513,-4.8579,-4.7988,-4.845,-4.8781,-4.8179,-4.8436,-4.8426,-4.7334,-4.7133,-4.6787,-4.5762,-4.5586,-4.5586,-4.5586,-4.5586,-4.5586,-4.5586,-4.5817,-4.5874,-4.5605,-4.5586,-4.5586,-4.5586,-4.5586,-4.5586,-4.5586,-4.5586,-4.5586,-4.5586,-4.5586,-4.5586,-4.5586,-4.5586,-4.5586,-4.5586,-4.5586,-4.5586,-2.1786,-2.2351,0.0,-2.4975,-2.7248,-2.9776,-3.2347,0.0,0.0,0.0,0.0,0.0,0.0,0.0,0.0,0.0,0.0,0.0,0.0,0.0,0.0,0.0,0.0,0.0,0.0,0.0,0.0,0.0,0.0,0.0,0.0,0.0,0.0,0.0,-4.1641,-4.2572,-4.4756,-4.3996,-4.4372,-4.5902,-4.6085,-4.6581,-4.737,-4.8182,-4.8568,-4.8657,-4.8402,-4.8421,-4.8621,-4.8383,-4.8306,-4.8306,-4.8306,-4.8306,-4.8269,-4.7957,-4.8031,-4.8214,-4.7572,-4.7572,-4.7774,-4.7462,-4.7352,-4.7407,-4.7737,-4.7829,-4.7902,-4.8214,-4.8306,-4.8306,-4.8306,-4.8306,-4.8306,-4.8306,-4.8604,-4.8665,-4.7871,-4.8768,-4.9481,-4.8602,-4.8998,-4.9091,-4.7958,-4.7482,-4.6894,-4.578,-4.5586,-4.5586,-4.5586,-4.5893,-4.597,-4.5624,-4.5913,-4.597,-4.5624,-4.5586,-4.5586,-4.5586,-4.5586,-4.5586,-4.5586,-4.5586,-4.5586,-4.5586,-4.5586,-4.5586,-4.5586,-4.5586,-4.5586,-4.5586,-4.5586,-4.5586,-2.1075,0.0,0.0,-2.5795,-2.8619,0.0,0.0,0.0,0.0,0.0,0.0,0.0,0.0,0.0,0.0,0.0,0.0,0.0,0.0,0.0,0.0,0.0,0.0,0.0,0.0,0.0,0.0,0.0,0.0,0.0,0.0,0.0,0.0,-3.9902,-4.058,-4.1929,-4.3961,-4.327,-4.3804,0.0,-4.5021,-4.5094,-4.5847,-4.7766,-4.849,-4.8196,-4.8269,-4.8306,-4.8306,-4.8306,-4.8306,-4.8306,-4.8233,-4.8196,-4.8104,-4.7297,-4.7462,-4.7884,-4.6416,-4.6379,-4.6874,-4.614,-4.5902,-4.6049,-4.6874,-4.7113,-4.7297,-4.8086,-4.8306,-4.8306,-4.8306,-4.8251,-4.8196,-4.8254,-4.862,-4.872,-4.7829,-4.8966,-4.9873,-4.8914,-4.9099,-4.9125,-4.8259,-4.7432,-4.6605,-4.572,-4.5586,-4.5586,-4.5586,-4.6297,-4.649,-4.5682,-4.6317,-4.6471,-4.5663,-4.5586,-4.5586,-4.5586,-4.5586,-4.5586,-4.5586,-4.5586,-4.5586,-4.5586,-4.5586,-4.5586,-4.5586,-4.5586,-4.5586,-4.5586,-4.5586,-4.5586,-2.187,-2.2496,0.0,0.0,-3.0142,-3.4066,0.0,0.0,0.0,0.0,0.0,0.0,0.0,0.0,0.0,0.0,0.0,0.0,0.0,0.0,0.0,0.0,0.0,0.0,0.0,0.0,0.0,0.0,0.0,0.0,0.0,0.0,0.0,-3.9886,-4.0519,-4.1579,-4.3147,-4.2887,-4.3172,0.0,-4.4488,-4.48,-4.5002,-4.6047,-4.6856,-4.7407,-4.8031,-4.8306,-4.8306,-4.8306,-4.8306,-4.8251,-4.7609,-4.737,-4.7278,-4.6452,-4.6269,-4.6379,-4.6012,-4.6012,-4.614,-4.5957,-4.5902,-4.6049,-4.6874,-4.7113,-4.7297,-4.8086,-4.8306,-4.8306,-4.8306,-4.7847,-4.7445,-4.7754,-4.8623,-4.8977,-4.7466,-4.8947,-5.0105,-4.8548,-4.8875,-4.9125,-4.8259,-4.7432,-4.6605,-4.572,-4.5586,-4.5586,-4.5586,-4.5759,-4.5797,-4.5605,-4.5759,-4.5797,-4.5605,-4.5586,-4.5586,-4.5586,-4.5586,-4.5586,-4.5586,-4.5586,-4.5586,-4.5586,-4.5586,-4.5586,-4.5586,-4.5586,-4.5586,-4.5586,-4.5586,-4.5586,-2.1831,0.0,0.0,-2.7178,0.0,0.0,0.0,0.0,0.0,0.0,0.0,0.0,0.0,0.0,0.0,0.0,0.0,0.0,0.0,0.0,0.0,0.0,0.0,0.0,0.0,0.0,0.0,0.0,0.0,0.0,0.0,-3.7933,-3.8594,-3.9405,-4.037,-4.1311,-4.2351,-4.2597,-4.2976,-4.3497,-4.392,-4.4121,-4.4176,-4.5351,-4.614,-4.6581,-4.7388,-4.7737,-4.7774,-4.8141,-4.8306,-4.8233,-4.7425,-4.7113,-4.6966,-4.5773,-4.5571,-4.5792,-4.5021,-4.5002,-4.5259,-4.4874,-4.4745,-4.4966,-4.6159,-4.6544,-4.6801,-4.8199,-4.8604,-4.8512,-4.8087,-4.7716,-4.7453,-4.7644,-4.8347,-4.8512,-4.698,-4.8805,-5.0067,-4.7952,-4.8202,-4.8509,-4.7682,-4.6836,-4.6124,-4.5663,-4.5586,-4.5586,-4.5586,-4.5951,-4.622,-4.622,-4.622,-4.622,-4.622,-4.5836,-4.5778,-4.6201,-4.5817,-4.5778,-4.6201,-4.5817,-4.5586,-4.5586,-4.5586,-4.5586,-4.5586,-4.5586,-4.5586,-4.5586,-4.5586,-4.5586,-2.1627,0.0,-2.4185,-2.8368,-3.0869,0.0,0.0,0.0,0.0,0.0,0.0,0.0,0.0,0.0,0.0,0.0,0.0,0.0,0.0,0.0,0.0,0.0,0.0,0.0,0.0,0.0,0.0,0.0,0.0,0.0,-3.7002,-3.7393,-3.7929,-3.8619,-3.9953,-4.1007,-4.1706,-4.2343,-4.2923,-4.3497,-4.3497,-4.3497,-4.3534,-4.4874,-4.5553,-4.5736,-4.6544,-4.6985,-4.713,-4.7829,-4.8177,-4.8214,-4.7278,-4.6911,-4.6709,-4.5094,-4.4911,-4.5296,-4.3956,-4.3938,-4.4378,-4.3718,-4.3589,-4.3975,-4.5443,-4.6066,-4.6596,-4.8386,-4.8963,-4.8842,-4.8021,-4.7684,-4.7554,-4.7467,-4.7711,-4.7694,-4.6703,-4.8587,-4.9779,-4.7375,-4.7451,-4.7625,-4.6817,-4.6086,-4.5586,-4.5586,-4.5586,-4.5586,-4.5586,-4.6355,-4.6913,-4.6913,-4.6913,-4.6971,-4.7105,-4.6317,-4.6124,-4.6855,-4.622,-4.6086,-4.6644,-4.597,-4.5586,-4.5586,-4.5586,-4.5586,-4.5586,-4.5586,-4.5586,-4.5586,-4.5586,-4.5586,0.0,0.0,-2.5443,0.0,-2.9627,-3.0382,0.0,0.0,0.0,0.0,0.0,0.0,0.0,0.0,0.0,0.0,0.0,0.0,0.0,0.0,0.0,0.0,0.0,0.0,0.0,0.0,0.0,0.0,0.0,0.0,-3.4898,-3.6162,-3.71,-3.7681,-3.9008,-4.0273,-4.1461,-4.2031,-4.2732,-4.3497,-4.3497,-4.3497,-4.3497,-4.3718,-4.4195,-4.4911,-4.5718,-4.6471,-4.7131,-4.7241,-4.7682,-4.8159,-4.6654,-4.6067,-4.5865,-4.425,-4.3718,-4.3773,-4.3552,-4.3552,-4.3626,-4.3516,-4.3975,-4.4709,-4.5626,-4.6611,-4.7657,-4.8636,-4.9139,-4.9227,-4.8361,-4.7627,-4.6994,-4.6581,-4.653,-4.6706,-4.721,-4.8537,-4.9048,-4.7259,-4.699,-4.6797,-4.5913,-4.5682,-4.5586,-4.5586,-4.5586,-4.5586,-4.5586,-4.6355,-4.6913,-4.6913,-4.6913,-4.7182,-4.7875,-4.7201,-4.6778,-4.6894,-4.6797,-4.6432,-4.5797,-4.5663,-4.5586,-4.5586,-4.5586,-4.5586,-4.5586,-4.5586,-4.5586,-4.5586,-4.5586,-4.5586,-2.2961,-2.4007,-2.5331,0.0,-2.7654,0.0,0.0,0.0,0.0,0.0,0.0,0.0,0.0,0.0,0.0,0.0,0.0,0.0,0.0,0.0,0.0,0.0,0.0,0.0,0.0,0.0,0.0,0.0,0.0,-3.4435,-3.57,-3.6238,-3.7023,-3.8071,-3.9259,-4.0141,-4.0726,-4.1334,-4.2029,-4.2818,-4.3277,-4.3497,-4.3497,-4.3497,-4.3681,-4.4066,-4.4874,-4.5443,-4.581,-4.625,-4.6911,-4.748,-4.5865,-4.5498,-4.57,-4.4085,-4.3497,-4.3497,-4.3497,-4.3497,-4.3497,-4.3497,-4.4048,-4.4799,-4.5352,-4.6517,-4.7839,-4.8635,-4.9313,-4.9523,-4.8194,-4.7612,-4.7162,-4.6485,-4.666,-4.7048,-4.7136,-4.7951,-4.8318,-4.7144,-4.6509,-4.6047,-4.5663,-4.5586,-4.5586,-4.5586,-4.5586,-4.5778,-4.6278,-4.7067,-4.7759,-4.8259,-4.8298,-4.8432,-4.8798,-4.7644,-4.7086,-4.7548,-4.6682,-4.622,-4.6317,-4.5855,-4.5586,-4.5586,-4.5586,-4.5586,-4.5586,-4.5586,-4.5586,-4.5586,-4.5586,-4.5586,0.0,0.0,-2.4753,-2.5344,-2.5788,0.0,0.0,0.0,0.0,0.0,0.0,0.0,0.0,0.0,0.0,0.0,0.0,0.0,0.0,0.0,0.0,0.0,0.0,0.0,0.0,0.0,0.0,0.0,0.0,-3.3852,-3.5531,-3.5736,-3.6388,-3.7582,-3.8734,-3.9463,-3.984,-4.0656,-4.1515,-4.2304,-4.291,-4.3296,-4.3497,-4.3497,-4.3497,-4.3516,-4.4121,-4.4525,-4.4764,-4.5351,-4.6085,-4.6673,-4.5259,-4.5076,-4.5424,-4.4011,-4.3497,-4.3497,-4.3497,-4.3497,-4.3497,-4.3497,-4.4081,-4.4878,-4.5133,-4.6501,-4.8085,-4.865,-4.9491,-4.9905,-4.8436,-4.7881,-4.7518,-4.6677,-4.6963,-4.739,-4.7242,-4.7528,-4.7548,-4.674,-4.622,-4.5853,-4.5624,-4.5586,-4.5586,-4.5586,-4.5586,-4.5817,-4.649,-4.7298,-4.8048,-4.8702,-4.8952,-4.9163,-4.9375,-4.8259,-4.7798,-4.8394,-4.7048,-4.6432,-4.6894,-4.6067,-4.5586,-4.5586,-4.5586,-4.5586,-4.5586,-4.5586,-4.5586,-4.5586,-4.5586,-4.5586,0.0,-2.3728,0.0,-2.4282,0.0,0.0,0.0,0.0,0.0,0.0,0.0,0.0,0.0,0.0,0.0,0.0,0.0,0.0,0.0,0.0,0.0,0.0,0.0,0.0,0.0,0.0,0.0,0.0,0.0,-3.2512,-3.2607,-3.3634,-3.4457,-3.4995,-3.6217,-3.7482,-3.8786,-4.0308,-4.1515,-4.2304,-4.2341,-4.2763,-4.3497,-4.3497,-4.3497,-4.3497,-4.3534,-4.3993,-4.4709,-4.4764,-4.5241,-4.5883,-4.5039,-4.4745,-4.4672,-4.3809,-4.3497,-4.3497,-4.3497,-4.3497,-4.3497,-4.3497,-4.428,-4.5196,-4.5177,-4.6864,-4.8767,-4.8791,-4.9707,-5.0452,-4.9529,-4.8683,-4.7875,-4.7068,-4.6914,-4.7125,-4.7874,-4.7468,-4.6718,-4.5853,-4.6313,-4.6564,-4.5738,-4.5586,-4.5586,-4.5586,-4.5586,-4.5605,-4.5663,-4.6432,-4.699,-4.7028,-4.7721,-4.8509,-4.9336,-4.9317,-4.9279,-4.9336,-4.849,-4.7644,-4.6932,-4.6067,-4.5586,-4.5586,-4.5586,-4.5586,-4.5586,-4.5586,-4.5586,-4.5586,-4.5586,-4.5586,0.0,0.0,0.0,-2.3817,0.0,0.0,0.0,0.0,0.0,0.0,0.0,0.0,0.0,0.0,0.0,0.0,0.0,0.0,0.0,0.0,0.0,0.0,0.0,0.0,0.0,0.0,0.0,0.0,0.0,0.0,-3.3413,-3.3703,-3.4288,-3.5232,-3.6046,-3.6924,-3.7918,-3.9533,-4.0469,-4.0763,-4.1809,-4.2451,-4.2745,-4.3259,-4.3497,-4.3497,-4.3497,-4.3644,-4.392,-4.392,-4.4397,-4.5057,-4.4232,-4.425,-4.4617,-4.3791,-4.3497,-4.3497,-4.3497,-4.3497,-4.3497,-4.3497,-4.4262,-4.5146,-4.489,-4.6278,-4.8018,-4.8292,-4.9086,-4.9779,-4.9471,-4.8759,-4.7894,-4.7086,-4.6913,-4.699,-4.7259,-4.6661,-4.5969,-4.5643,-4.5853,-4.5969,-4.5643,-4.6067,-4.6432,-4.6432,-4.6432,-4.6624,-4.7144,-4.7028,-4.7105,-4.7625,-4.7932,-4.8452,-4.9336,-4.8894,-4.8798,-4.9356,-4.8105,-4.7201,-4.6913,-4.6067,-4.5586,-4.5586,-4.5586,-4.5586,-4.5586,-4.5586,-4.5586,-4.5586,-4.5586,-4.5586,-2.4016,0.0,0.0,0.0,0.0,0.0,0.0,0.0,0.0,0.0,0.0,0.0,0.0,0.0,0.0,0.0,0.0,0.0,0.0,0.0,0.0,0.0,0.0,0.0,0.0,0.0,0.0,0.0,0.0,0.0,-3.2876,-3.3317,-3.4082,-3.5289,-3.5681,-3.6395,-3.7477,-3.8542,-3.9368,-3.9918,-4.1258,-4.2047,-4.2323,-4.313,-4.3497,-4.3497,-4.3497,-4.3497,-4.3497,-4.3497,-4.3809,-4.425,-4.3699,-4.3828,-4.4232,-4.3699,-4.3497,-4.3497,-4.3497,-4.3497,-4.3497,-4.3497,-4.4175,-4.4945,-4.4697,-4.606,-4.7771,-4.801,-4.8933,-4.9837,-4.9837,-4.8971,-4.8048,-4.7798,-4.7086,-4.6624,-4.7182,-4.6624,-4.595,-4.5643,-4.5834,-4.595,-4.5643,-4.6317,-4.6797,-4.6509,-4.6721,-4.699,-4.7221,-4.6797,-4.6663,-4.7201,-4.7759,-4.824,-4.8529,-4.8548,-4.8663,-4.8952,-4.7682,-4.6913,-4.6913,-4.6067,-4.5586,-4.5586,-4.5586,-4.5586,-4.5586,-4.5586,-4.5586,-4.5586,-4.5586,-4.5586,0.0,0.0,0.0,0.0,0.0,0.0,0.0,0.0,0.0,0.0,0.0,0.0,0.0,0.0,0.0,0.0,0.0,0.0,0.0,0.0,0.0,0.0,0.0,0.0,0.0,0.0,0.0,0.0,0.0,-3.0682,-3.0699,-3.2282,-3.3735,-3.4935,-3.4972,-3.5789,-3.747,-3.7477,-3.8285,-3.9863,-4.0689,-4.1497,-4.2286,-4.3094,-4.3461,-4.3497,-4.3497,-4.3497,-4.3497,-4.3497,-4.3497,-4.3497,-4.3497,-4.3497,-4.3497,-4.3497,-4.3497,-4.3497,-4.3497,-4.3497,-4.3479,-4.3513,-4.4023,-4.4606,-4.4606,-4.6221,-4.8029,-4.8067,-4.9279,-5.0587,-5.0587,-4.9375,-4.8336,-4.9106,-4.7432,-4.6105,-4.7682,-4.7412,-4.6602,-4.5757,-4.6294,-4.6602,-4.5796,-4.6355,-4.6644,-4.5797,-4.6394,-4.6624,-4.574,-4.5624,-4.5624,-4.5624,-4.7086,-4.7759,-4.7009,-4.8394,-4.8971,-4.8144,-4.7336,-4.6913,-4.6913,-4.6067,-4.5586,-4.5586,-4.5586,-4.5586,-4.5586,-4.5586,-4.5586,-4.5586,-4.5586,-4.5586,-2.3369,0.0,0.0,0.0,0.0,0.0,0.0,0.0,0.0,0.0,0.0,0.0,0.0,0.0,0.0,0.0,0.0,0.0,0.0,0.0,0.0,0.0,0.0,0.0,0.0,0.0,0.0,0.0,-2.9782,-3.0101,-3.0749,-3.2045,-3.3186,-3.41,-3.4706,-3.5532,-3.6615,-3.7202,-3.801,-3.9038,-3.9845,-4.0653,-4.1479,-4.2268,-4.2947,-4.3497,-4.3497,-4.3497,-4.3497,-4.3497,-4.3497,-4.3497,-4.3497,-4.3497,-4.3497,-4.3497,-4.3497,-4.3497,-4.3497,-4.3497,-4.3548,-4.3772,-4.4194,-4.465,-4.4896,-4.5588,-4.6413,-4.7048,-4.7586,-4.7952,-4.7952,-4.849,-4.8644,-4.7028,-4.7028,-4.7201,-4.6451,-4.6123,-4.5892,-4.5643,-4.5796,-4.6067,-4.6472,-4.7222,-4.7702,-4.7432,-4.7605,-4.7471,-4.6644,-4.6547,-4.6547,-4.6547,-4.6971,-4.7394,-4.774,-4.7663,-4.774,-4.8086,-4.7336,-4.6913,-4.6913,-4.6067,-4.5586,-4.5586,-4.5586,-4.5586,-4.5586,-4.5586,-4.5586,-4.5586,-4.5586,-4.5586,-2.3117,-2.2972,0.0,0.0,0.0,0.0,0.0,-2.231,0.0,0.0,0.0,0.0,0.0,0.0,0.0,0.0,0.0,0.0,0.0,0.0,0.0,0.0,0.0,0.0,0.0,0.0,0.0,-2.8539,-2.9059,-2.9986,-3.1474,-3.2208,-3.2981,-3.377,-3.4266,-3.4908,-3.5752,-3.6578,-3.7386,-3.8212,-3.935,-4.0139,-4.0653,-4.1772,-4.2561,-4.302,-4.3332,-4.3497,-4.3497,-4.3497,-4.3497,-4.3497,-4.3497,-4.3497,-4.3497,-4.3497,-4.3497,-4.3497,-4.3497,-4.3497,-4.3548,-4.3912,-4.4261,-4.4657,-4.5007,-4.5571,-4.624,-4.6759,-4.7144,-4.7413,-4.7413,-4.7875,-4.8067,-4.6913,-4.6855,-4.6894,-4.6259,-4.5855,-4.5586,-4.5586,-4.5586,-4.5759,-4.626,-4.7049,-4.7605,-4.7605,-4.7894,-4.7817,-4.7009,-4.6913,-4.6913,-4.6913,-4.7201,-4.7451,-4.7586,-4.749,-4.7298,-4.7067,-4.6624,-4.6355,-4.6355,-4.5874,-4.5586,-4.5586,-4.5586,-4.5586,-4.5586,-4.5586,-4.5586,-4.5586,-4.5586,-4.5586,-2.3014,-2.2873,-2.266,0.0,0.0,0.0,-2.2327,-2.2361,0.0,0.0,0.0,0.0,0.0,0.0,0.0,0.0,0.0,0.0,0.0,0.0,0.0,0.0,0.0,0.0,0.0,-2.6833,-2.7385,-2.7247,-2.8376,-3.0052,-3.2214,-3.243,-3.2852,-3.3642,-3.3752,-3.4192,-3.499,-3.5862,-3.6688,-3.7514,-3.9038,-3.9808,-3.9937,-4.1387,-4.2139,-4.2341,-4.3057,-4.3406,-4.3497,-4.3497,-4.3497,-4.3497,-4.3497,-4.3497,-4.3497,-4.3497,-4.3497,-4.3497,-4.3497,-4.3497,-4.3563,-4.3924,-4.429,-4.4657,-4.5052,-4.5917,-4.6759,-4.6759,-4.7278,-4.7817,-4.7817,-4.7355,-4.7067,-4.7682,-4.6759,-4.5932,-4.6605,-4.6144,-4.5586,-4.5586,-4.5586,-4.5624,-4.572,-4.6394,-4.6913,-4.6913,-4.7509,-4.7721,-4.699,-4.6913,-4.6932,-4.7028,-4.7586,-4.7682,-4.6971,-4.7471,-4.7182,-4.5682,-4.5586,-4.5586,-4.5586,-4.5586,-4.5586,-4.5586,-4.5586,-4.5586,-4.5586,-4.5586,-4.5586,-4.5586,-4.5586,-4.5586,0.0,0.0,0.0,0.0,0.0,0.0,-2.2446,-2.2767,0.0,0.0,0.0,0.0,0.0,0.0,0.0,0.0,0.0,0.0,0.0,0.0,0.0,0.0,0.0,0.0,0.0,-2.4762,-2.5647,-2.6803,-2.8214,-2.9497,-3.0613,-3.1274,-3.2008,-3.2816,-3.3458,-3.4192,-3.499,-3.5862,-3.6688,-3.7526,-3.8469,-3.9276,-3.99,-4.023,-4.1075,-4.2304,-4.247,-4.2892,-4.3497,-4.3497,-4.3497,-4.3497,-4.3497,-4.3497,-4.3497,-4.3497,-4.3497,-4.3497,-4.3497,-4.3497,-4.3597,-4.428,-4.4527,-4.4707,-4.5322,-4.5666,-4.5855,-4.5855,-4.597,-4.6086,-4.6086,-4.649,-4.6759,-4.622,-4.6374,-4.6509,-4.597,-4.572,-4.5586,-4.5586,-4.5586,-4.5817,-4.6528,-4.6797,-4.6913,-4.6913,-4.7028,-4.7086,-4.6932,-4.6913,-4.7163,-4.7798,-4.7432,-4.7067,-4.6913,-4.6394,-4.5951,-4.5605,-4.5586,-4.5586,-4.5586,-4.5586,-4.5586,-4.5586,-4.5586,-4.5586,-4.5586,-4.5586,-4.5586,-4.5586,-4.5586,-4.5586,0.0,0.0,0.0,-2.2767,0.0,0.0,0.0,-2.2852,-2.2852,0.0,0.0,0.0,0.0,0.0,0.0,0.0,0.0,0.0,0.0,0.0,0.0,0.0,0.0,0.0,0.0,-2.4113,-2.5357,-2.6871,-2.7882,-2.8925,-3.0136,-3.0962,-3.177,-3.2577,-3.3385,-3.4192,-3.499,-3.544,-3.6266,-3.7507,-3.79,-3.8524,-3.9313,-3.9717,-4.0561,-4.1735,-4.2139,-4.2763,-4.3497,-4.3497,-4.3497,-4.3497,-4.3497,-4.3497,-4.3497,-4.3497,-4.3497,-4.3497,-4.3497,-4.3497,-4.3597,-4.4136,-4.4447,-4.4682,-4.5201,-4.5476,-4.5586,-4.5586,-4.5586,-4.5586,-4.5586,-4.5913,-4.6144,-4.5701,-4.5932,-4.6124,-4.5682,-4.5586,-4.5586,-4.5586,-4.5586,-4.574,-4.6182,-4.624,-4.6394,-4.6836,-4.6913,-4.6913,-4.6913,-4.6895,-4.7049,-4.7471,-4.7144,-4.6913,-4.6913,-4.6509,-4.6067,-4.5624,-4.5586,-4.5586,-4.5586,-4.5586,-4.5586,-4.5586,-4.5586,-4.5586,-4.5586,-4.5586,-4.5586,-4.5586,-4.5586,-4.5586,0.0,0.0,0.0,0.0,0.0,-2.2632,0.0,0.0,0.0,-2.2984,0.0,0.0,0.0,0.0,0.0,0.0,0.0,0.0,0.0,0.0,0.0,0.0,0.0,0.0,0.0,-2.3955,-2.5393,-2.6657,-2.741,-2.8356,-2.9677,-3.065,-3.1531,-3.2339,-3.3146,-3.3972,-3.4752,-3.5082,-3.5936,-3.7257,-3.7569,-3.8065,-3.8726,-3.9368,-4.0102,-4.0928,-4.1717,-4.2525,-4.3277,-4.3424,-4.3497,-4.3497,-4.3497,-4.3497,-4.3497,-4.3497,-4.3497,-4.3497,-4.3497,-4.3497,-4.3548,-4.3912,-4.4318,-4.4757,-4.5096,-4.54,-4.5586,-4.5586,-4.5586,-4.5586,-4.5586,-4.5586,-4.5586,-4.5586,-4.5586,-4.5586,-4.5586,-4.5586,-4.5586,-4.5586,-4.5586,-4.5586,-4.5586,-4.5586,-4.5836,-4.6547,-4.6644,-4.6721,-4.6894,-4.6742,-4.6703,-4.6894,-4.6759,-4.6644,-4.6644,-4.6644,-4.6355,-4.5624,-4.5586,-4.5586,-4.5586,-4.5586,-4.5586,-4.5586,-4.5586,-4.5586,-4.5586,-4.5586,-4.5586,-4.5586,-4.5586,-4.5586,0.0,0.0,0.0,0.0,-2.2852,0.0,0.0,0.0,-2.3001,-2.2026,0.0,0.0,0.0,0.0,0.0,0.0,0.0,0.0,0.0,0.0,0.0,0.0,0.0,0.0,0.0,0.0,-2.4675,-2.5131,-2.6808,-2.7879,-2.8062,-2.9512,-3.0705,-3.1513,-3.232,-3.3128,-3.3935,-3.5404,-3.6248,-3.645,-3.7881,-3.8615,-3.8707,-3.8799,-3.9276,-4.0084,-4.0891,-4.1699,-4.2488,-4.3204,-4.3497,-4.3497,-4.3497,-4.3497,-4.3497,-4.3497,-4.3497,-4.3497,-4.3497,-4.3497,-4.3548,-4.3912,-4.4463,-4.5096,-4.5438,-4.5568,-4.5586,-4.5586,-4.5586,-4.5586,-4.5586,-4.5586,-4.5586,-4.5586,-4.5586,-4.5586,-4.5586,-4.5586,-4.5586,-4.5586,-4.5586,-4.5586,-4.5586,-4.5586,-4.5624,-4.572,-4.574,-4.6028,-4.6797,-4.624,-4.6047,-4.6817,-4.6201,-4.574,-4.574,-4.574,-4.5701,-4.5605,-4.5586,-4.5586,-4.5586,-4.5586,-4.5586,-4.5586,-4.5586,-4.5586,-4.5586,-4.5586,-4.5586,-4.5586,-4.5586,-4.5586,0.0,0.0,0.0,0.0,0.0,0.0,0.0,0.0,-2.2651,0.0,0.0,0.0,0.0,0.0,0.0,0.0,0.0,0.0,0.0,0.0,0.0,0.0,0.0,0.0,0.0,0.0,0.0,0.0,0.0,-2.731,-2.7769,-2.9329,-3.0577,-3.1366,-3.2192,-3.322,-3.4486,-3.5202,-3.6028,-3.7,-3.7679,-3.8248,-3.8707,-3.8707,-3.9386,-4.0616,-4.0965,-4.1827,-4.302,-4.3351,-4.3497,-4.3497,-4.3497,-4.3497,-4.3497,-4.3497,-4.3497,-4.3497,-4.3497,-4.3497,-4.3597,-4.4165,-4.4707,-4.5161,-4.5495,-4.5586,-4.5586,-4.5586,-4.5586,-4.5586,-4.5586,-4.5586,-4.5586,-4.5586,-4.5586,-4.5586,-4.5586,-4.5586,-4.5586,-4.5586,-4.5586,-4.5586,-4.5586,-4.5586,-4.5586,-4.5586,-4.5586,-4.572,-4.6105,-4.5817,-4.574,-4.6105,-4.5817,-4.5586,-4.5586,-4.5586,-4.5586,-4.5586,-4.5586,-4.5586,-4.5586,-4.5586,-4.5586,-4.5586,-4.5586,-4.5586,-4.5586,-4.5586,-4.5586,-4.5603,-4.568,-4.5723,-2.231,0.0,0.0,0.0,0.0,0.0,0.0,0.0,0.0,0.0,0.0,0.0,0.0,0.0,0.0,0.0,0.0,0.0,0.0,0.0,0.0,0.0,0.0,0.0,0.0,0.0,0.0,-2.5016,-2.6025,-2.6851,-2.7438,-2.8998,-3.0338,-3.1366,-3.1971,-3.3054,-3.4642,-3.488,-3.5734,-3.7165,-3.7397,-3.7918,-3.8707,-3.8707,-3.935,-4.0487,-4.0928,-4.1772,-4.2873,-4.3314,-4.3497,-4.3497,-4.3497,-4.3497,-4.3497,-4.3497,-4.3497,-4.3513,-4.3597,-4.3712,-4.3899,-4.4527,-4.4896,-4.5161,-4.5495,-4.5586,-4.5586,-4.5586,-4.5586,-4.5586,-4.5586,-4.5586,-4.5586,-4.5586,-4.5586,-4.5586,-4.5586,-4.5586,-4.5586,-4.5586,-4.5586,-4.5586,-4.5586,-4.5586,-4.5586,-4.5586,-4.5586,-4.5586,-4.5586,-4.5586,-4.5586,-4.5586,-4.5586,-4.5586,-4.5586,-4.5586,-4.5586,-4.5586,-4.5586,-4.5586,-4.5586,-4.5586,-4.5586,-4.5586,-4.5586,-4.5586,-4.5586,-4.5586,-4.562,-4.5668,-4.5761,-4.5796,0.0,0.0,0.0,-2.2344,0.0,0.0,0.0,0.0,-2.3224,0.0,0.0,0.0,0.0,0.0,-2.0862,-2.0382,-2.0314,0.0,0.0,0.0,0.0,0.0,0.0,0.0,0.0,0.0,0.0,-2.4207,-2.5713,-2.6612,-2.6649,-2.8172,-2.9769,-3.1347,-3.1421,-3.221,-3.3825,-3.4605,-3.5459,-3.634,-3.711,-3.7918,-3.8707,-3.8707,-3.8726,-3.8872,-4.0432,-4.1148,-4.1313,-4.2855,-4.3497,-4.3497,-4.3497,-4.3497,-4.3497,-4.3497,-4.3497,-4.3548,-4.3881,-4.4233,-4.4606,-4.4966,-4.5096,-4.5161,-4.5495,-4.5586,-4.5586,-4.5586,-4.5586,-4.5586,-4.5586,-4.5586,-4.5586,-4.5586,-4.5586,-4.5586,-4.5586,-4.5586,-4.5586,-4.5586,-4.5586,-4.5586,-4.5586,-4.5586,-4.5586,-4.5586,-4.5586,-4.5586,-4.5586,-4.5586,-4.5586,-4.5586,-4.5586,-4.5586,-4.5586,-4.5586,-4.5586,-4.5586,-4.5586,-4.5586,-4.5586,-4.5586,-4.5586,-4.5586,-4.5586,-4.5586,-4.5586,-4.5586,-4.5665,-4.5796,-4.5796,-4.5796,0.0,0.0,-2.2429,-2.2919,0.0,0.0,0.0,0.0,0.0,0.0,0.0,0.0,0.0,0.0,-2.0483,-2.0314,-2.0314,-2.0314,0.0,0.0,0.0,0.0,0.0,0.0,0.0,0.0,0.0,-2.4393,-2.5777,-2.6657,-2.6782,-2.8206,-2.9751,-3.1347,-3.1384,-3.2155,-3.377,-3.4614,-3.5459,-3.6303,-3.711,-3.7918,-3.8707,-3.8707,-3.9001,-3.9515,-4.0065,-4.091,-4.1937,-4.2488,-4.302,-4.3497,-4.3497,-4.3497,-4.3497,-4.3497,-4.3497,-4.3548,-4.3881,-4.4428,-4.4943,-4.5074,-4.5243,-4.5438,-4.5568,-4.5586,-4.5586,-4.5586,-4.5586,-4.5586,-4.5586,-4.5586,-4.5586,-4.5586,-4.5586,-4.5586,-4.5586,-4.5586,-4.5586,-4.5586,-4.5586,-4.5586,-4.5586,-4.5586,-4.5586,-4.5586,-4.5586,-4.5586,-4.5586,-4.5586,-4.5586,-4.5586,-4.5586,-4.5586,-4.5586,-4.5586,-4.5586,-4.5586,-4.5586,-4.5586,-4.5586,-4.5586,-4.5586,-4.5586,-4.5586,-4.5586,-4.5586,-4.5677,-4.5761,-4.5809,-4.5939,-4.5994,-2.231,-2.231,0.0,-2.2885,-2.3207,0.0,-2.3714,0.0,0.0,0.0,0.0,0.0,0.0,0.0,-2.0866,-2.0581,-2.0416,-2.0416,0.0,-2.1648,0.0,0.0,0.0,0.0,0.0,0.0,-2.4247,-2.4393,-2.5777,-2.6657,0.0,0.0,-2.9622,-3.0925,-3.0962,-3.1751,-3.3366,-3.3899,-3.4724,-3.5862,-3.667,-3.7477,-3.8285,-3.8579,-3.8982,-3.9478,-3.9772,-4.0487,-4.1497,-4.2066,-4.2598,-4.3094,-4.3387,-4.3497,-4.3497,-4.3497,-4.3664,-4.3931,-4.4136,-4.4688,-4.5282,-4.5282,-4.5419,-4.5586,-4.5586,-4.5586,-4.5586,-4.5586,-4.5586,-4.5586,-4.5586,-4.5586,-4.5586,-4.5586,-4.5586,-4.5586,-4.5586,-4.5586,-4.5586,-4.5586,-4.5586,-4.5586,-4.5586,-4.5586,-4.5586,-4.5586,-4.5586,-4.5586,-4.5586,-4.5586,-4.5586,-4.5586,-4.5586,-4.5586,-4.5586,-4.5586,-4.5586,-4.5586,-4.5586,-4.5586,-4.5586,-4.5586,-4.574,-4.6067,-4.5806,-4.58,-4.6089,-4.5925,-4.5859,-4.5911,-4.6047,-4.614]},{"header":{"parameterUnit":"m.s-1","parameterCategory":1,"la1":30.6,"la2":29.2853,"lo1":-89.7004,"lo2":-87.6739,"dy":0.0162,"dx":0.0183,"nx":112,"ny":82,"refTime":"2023-08-27T12:00:00:Z","depth":0,"parameterNumber":3,"parameterNumberName":"V-component_of_WINDS"},"data":[0.0,0.0,0.0,0.0,0.0,0.0,0.0,0.0,0.0,0.0,0.0,0.0,0.0,0.0,0.0,0.0,0.0,0.0,0.0,0.0,0.0,0.0,0.0,0.0,0.0,0.0,0.0,0.0,0.0,0.0,0.0,0.0,0.0,0.0,0.0,0.0,0.0,0.0,0.0,0.0,0.0,0.0,0.0,0.0,0.0,0.0,0.0,0.0,0.0,0.0,0.0,0.0,0.0,0.0,0.0,0.0,0.0,0.0,0.0,0.0,0.0,0.0,0.0,0.0,0.0,0.0,0.0,0.0,0.0,0.0,0.0,0.0,0.0,0.0,0.0,0.0,0.0,0.0,0.0,0.0,0.0,0.0,0.0,0.0,0.0,0.0,0.0,0.0,0.0,0.0,0.0,-1.2451,-1.2599,-1.2794,-1.3094,-1.2012,-1.0975,-1.0227,0.0,0.0,0.0,0.0,0.0,0.0,0.0,0.0,0.0,0.0,0.0,0.0,0.0,0.0,0.0,0.0,0.0,0.0,0.0,0.0,0.0,0.0,0.0,0.0,0.0,0.0,0.0,0.0,0.0,0.0,0.0,0.0,0.0,0.0,0.0,0.0,0.0,0.0,0.0,0.0,0.0,0.0,0.0,0.0,0.0,0.0,0.0,0.0,0.0,0.0,0.0,0.0,0.0,0.0,0.0,0.0,0.0,0.0,0.0,0.0,0.0,0.0,0.0,0.0,0.0,0.0,0.0,0.0,0.0,0.0,0.0,0.0,0.0,0.0,0.0,0.0,0.0,0.0,0.0,0.0,0.0,0.0,0.0,0.0,0.0,0.0,0.0,0.0,0.0,0.0,0.0,0.0,0.0,0.0,0.0,0.0,0.0,0.0,0.0,0.0,0.0,0.0,0.0,0.0,-1.2521,-1.1799,-1.2322,-1.2615,-1.2476,-1.1425,-1.0635,-1.0501,0.0,0.0,0.0,0.0,0.0,0.0,0.0,0.0,0.0,0.0,0.0,0.0,0.0,0.0,0.0,0.0,0.0,0.0,0.0,0.0,0.0,0.0,0.0,0.0,0.0,0.0,0.0,0.0,0.0,0.0,0.0,0.0,0.0,0.0,0.0,0.0,0.0,0.0,0.0,0.0,0.0,0.0,0.0,0.0,0.0,0.0,0.0,0.0,0.0,0.0,0.0,0.0,0.0,0.0,0.0,0.0,0.0,0.0,0.0,0.0,0.0,0.0,0.0,0.0,0.0,0.0,0.0,0.0,0.0,0.0,0.0,0.0,0.0,0.0,0.0,0.0,0.0,0.0,0.0,0.0,0.0,0.0,0.0,0.0,0.0,0.0,0.0,0.0,0.0,0.0,0.0,0.0,0.0,0.0,0.0,0.0,0.0,0.0,0.0,0.0,0.0,0.0,0.0,-1.1962,-1.1145,-1.1569,-1.1704,-1.1833,-1.2089,-1.0995,-1.0321,-1.0321,-0.9619,0.0,0.0,0.0,0.0,0.0,0.0,0.0,0.0,0.0,0.0,0.0,0.0,0.0,0.0,0.0,0.0,0.0,0.0,0.0,0.0,0.0,0.0,0.0,0.0,0.0,0.0,0.0,0.0,0.0,0.0,0.0,0.0,0.0,0.0,0.0,0.0,0.0,0.0,0.0,0.0,0.0,0.0,0.0,0.0,0.0,0.0,0.0,0.0,0.0,0.0,0.0,0.0,0.0,0.0,0.0,0.0,0.0,0.0,0.0,0.0,0.0,0.0,0.0,0.0,0.0,0.0,0.0,0.0,0.0,0.0,0.0,0.0,0.0,0.0,0.0,0.0,0.0,0.0,0.0,0.0,0.0,0.0,0.0,0.0,0.0,0.0,0.0,0.0,0.0,0.0,0.0,0.0,0.0,0.0,0.0,0.0,0.0,0.0,0.0,0.0,0.0,0.0,-1.0653,-0.9919,-1.1106,-1.1083,-1.1202,-1.1724,-1.0688,-1.0047,-1.0114,-0.9232,0.0,0.0,0.0,0.0,0.0,0.0,0.0,0.0,0.0,0.0,0.0,0.0,0.0,0.0,0.0,0.0,0.0,0.0,0.0,0.0,0.0,0.0,0.0,0.0,0.0,0.0,0.0,0.0,0.0,0.0,0.0,0.0,0.0,0.0,0.0,0.0,0.0,0.0,0.0,0.0,0.0,0.0,0.0,0.0,0.0,0.0,0.0,0.0,0.0,0.0,0.0,0.0,0.0,0.0,0.0,0.0,0.0,0.0,0.0,0.0,0.0,0.0,0.0,0.0,0.0,0.0,0.0,0.0,0.0,0.0,0.0,0.0,0.0,0.0,0.0,0.0,0.0,0.0,0.0,0.0,0.0,0.0,0.0,0.0,0.0,0.0,0.0,0.0,0.0,0.0,0.0,0.0,0.0,0.0,0.0,0.0,0.0,0.0,0.0,0.0,0.0,0.0,-1.0167,-0.9731,-1.0167,-1.0655,-1.1122,-1.143,-1.0388,-0.9826,-1.01,-0.9038,0.0,0.0,0.0,0.0,0.0,0.0,0.0,0.0,0.0,0.0,0.0,0.0,0.0,0.0,0.0,0.0,0.0,0.0,0.0,0.0,0.0,0.0,0.0,0.0,0.0,0.0,0.0,0.0,0.0,0.0,0.0,0.0,0.0,0.0,0.0,0.0,0.0,0.0,0.0,0.0,0.0,0.0,0.0,0.0,0.0,0.0,0.0,0.0,0.0,0.0,0.0,0.0,0.0,0.0,0.0,0.0,0.0,0.0,0.0,0.0,0.0,0.0,0.0,0.0,0.0,0.0,0.0,0.0,0.0,0.0,0.0,0.0,0.0,0.0,0.0,0.0,0.0,0.0,0.0,0.0,0.0,0.0,0.0,0.0,0.0,0.0,0.0,0.0,0.0,0.0,0.0,0.0,0.0,0.0,0.0,0.0,0.0,0.0,0.0,0.0,0.0,0.0,-0.9684,-0.9555,0.0,-1.0481,-1.0768,-1.0875,-0.9973,-0.9452,-0.9502,0.0,0.0,0.0,0.0,0.0,0.0,0.0,0.0,0.0,0.0,0.0,0.0,0.0,0.0,0.0,0.0,0.0,0.0,0.0,0.0,0.0,0.0,0.0,0.0,0.0,0.0,0.0,0.0,0.0,0.0,0.0,0.0,0.0,0.0,0.0,0.0,0.0,0.0,0.0,0.0,0.0,0.0,0.0,0.0,0.0,0.0,0.0,0.0,0.0,0.0,0.0,0.0,0.0,0.0,0.0,0.0,0.0,0.0,0.0,0.0,0.0,0.0,0.0,0.0,0.0,0.0,0.0,0.0,0.0,0.0,0.0,0.0,0.0,0.0,0.0,0.0,0.0,0.0,0.0,0.0,0.0,0.0,0.0,0.0,0.0,0.0,0.0,0.0,0.0,0.0,0.0,0.0,0.0,0.0,0.0,0.0,0.0,0.0,0.0,0.0,0.0,0.0,-0.9857,-0.9393,-0.9236,0.0,-1.0187,-1.0381,-1.0287,-0.9472,-0.9045,-0.9176,0.0,0.0,0.0,0.0,0.0,0.0,0.0,0.0,0.0,0.0,0.0,0.0,0.0,0.0,0.0,0.0,0.0,0.0,0.0,0.0,0.0,0.0,0.0,0.0,0.0,0.0,0.0,0.0,0.0,0.0,0.0,0.0,0.0,0.0,0.0,0.0,0.0,0.0,0.0,0.0,0.0,0.0,0.0,0.0,0.0,0.0,0.0,0.0,0.0,0.0,0.0,0.0,0.0,0.0,0.0,0.0,0.0,0.0,0.0,0.0,0.0,0.0,0.0,0.0,0.0,0.0,0.0,0.0,0.0,0.0,0.0,0.0,0.0,0.0,0.0,0.0,0.0,0.0,0.0,0.0,0.0,0.0,0.0,0.0,0.0,0.0,0.0,0.0,0.0,0.0,0.0,0.0,0.0,0.0,0.0,0.0,0.0,0.0,0.0,0.0,0.0,0.0,-0.9783,-0.9211,-0.8925,-0.9157,-0.9766,-1.0,-0.9706,-0.8878,-0.8617,0.0,0.0,0.0,0.0,0.0,0.0,0.0,0.0,0.0,0.0,0.0,0.0,0.0,0.0,0.0,0.0,0.0,0.0,0.0,0.0,0.0,0.0,0.0,0.0,0.0,0.0,0.0,0.0,0.0,0.0,0.0,0.0,0.0,0.0,0.0,0.0,0.0,0.0,0.0,0.0,0.0,0.0,0.0,0.0,0.0,0.0,0.0,0.0,0.0,0.0,0.0,0.0,0.0,0.0,0.0,0.0,0.0,0.0,0.0,0.0,0.0,0.0,0.0,0.0,0.0,0.0,0.0,0.0,0.0,0.0,0.0,0.0,0.0,0.0,0.0,0.0,0.0,0.0,0.0,0.0,0.0,0.0,0.0,0.0,0.0,0.0,0.0,0.0,0.0,0.0,0.0,0.0,0.0,0.0,0.0,0.0,0.0,0.0,0.0,0.0,0.0,0.0,0.0,-0.911,-0.9086,-0.909,-0.9176,-0.9766,-0.9913,-0.9412,-0.8758,-0.853,-0.8911,0.0,0.0,0.0,0.0,0.0,0.0,0.0,0.0,0.0,0.0,0.0,0.0,0.0,0.0,0.0,0.0,0.0,0.0,0.0,0.0,0.0,0.0,0.0,0.0,0.0,0.0,0.0,0.0,0.0,0.0,0.0,0.0,0.0,0.0,0.0,0.0,0.0,0.0,0.0,0.0,0.0,0.0,0.0,0.0,0.0,0.0,0.0,0.0,0.0,0.0,0.0,0.0,0.0,0.0,0.0,0.0,0.0,0.0,0.0,0.0,0.0,0.0,0.0,0.0,0.0,0.0,0.0,0.0,0.0,0.0,0.0,0.0,0.0,0.0,0.0,0.0,0.0,0.0,0.0,0.0,0.0,0.0,0.0,0.0,0.0,0.0,0.0,0.0,0.0,0.0,0.0,0.0,0.0,0.0,0.0,0.0,0.0,0.0,0.0,0.0,0.0,0.0,-0.8856,-0.8858,-0.8938,-0.9058,-0.9486,-0.9579,-0.9105,-0.8537,-0.8323,-0.8617,0.0,0.0,0.0,0.0,0.0,0.0,0.0,0.0,0.0,0.0,0.0,0.0,0.0,0.0,0.0,0.0,0.0,0.0,0.0,0.0,0.0,0.0,0.0,0.0,0.0,0.0,0.0,0.0,0.0,0.0,0.0,0.0,0.0,0.0,0.0,0.0,0.0,0.0,0.0,0.0,0.0,0.0,0.0,0.0,0.0,0.0,0.0,0.0,0.0,0.0,0.0,0.0,0.0,0.0,0.0,0.0,0.0,0.0,0.0,0.0,0.0,0.0,0.0,0.0,0.0,0.0,0.0,0.0,0.0,0.0,0.0,0.0,0.0,0.0,0.0,0.0,0.0,0.0,0.0,0.0,0.0,0.0,0.0,0.0,0.0,0.0,0.0,0.0,0.0,0.0,0.0,0.0,0.0,0.0,0.0,0.0,0.0,0.0,0.0,0.0,0.0,0.0,-0.8888,-0.8649,-0.8544,-0.8784,-0.9065,-0.9064,-0.8831,-0.827,-0.8056,-0.8357,0.0,0.0,0.0,0.0,0.0,0.0,0.0,0.0,0.0,0.0,0.0,0.0,0.0,0.0,0.0,0.0,0.0,0.0,0.0,0.0,0.0,0.0,0.0,0.0,0.0,0.0,0.0,0.0,0.0,0.0,0.0,0.0,0.0,0.0,0.0,0.0,0.0,0.0,0.0,0.0,0.0,0.0,0.0,0.0,0.0,0.0,0.0,0.0,0.0,0.0,0.0,0.0,0.0,0.0,0.0,0.0,0.0,0.0,0.0,0.0,-1.5196,0.0,0.0,0.0,0.0,0.0,0.0,0.0,0.0,0.0,0.0,0.0,0.0,0.0,0.0,0.0,0.0,0.0,0.0,0.0,0.0,0.0,0.0,0.0,0.0,0.0,0.0,0.0,0.0,0.0,0.0,0.0,0.0,0.0,0.0,0.0,0.0,0.0,0.0,0.0,0.0,0.0,-0.9496,-0.9259,-0.8991,-0.8824,-0.9065,-0.9064,-0.8831,-0.827,-0.8056,-0.8357,-0.7862,0.0,0.0,0.0,0.0,0.0,0.0,0.0,0.0,0.0,0.0,0.0,0.0,0.0,0.0,0.0,0.0,0.0,0.0,0.0,0.0,0.0,0.0,0.0,0.0,0.0,0.0,0.0,0.0,0.0,0.0,0.0,0.0,0.0,0.0,0.0,0.0,0.0,0.0,0.0,0.0,0.0,0.0,0.0,0.0,0.0,0.0,0.0,0.0,0.0,0.0,0.0,0.0,0.0,0.0,0.0,0.0,0.0,0.0,0.0,0.0,-1.5861,0.0,0.0,0.0,0.0,0.0,0.0,0.0,0.0,0.0,0.0,0.0,0.0,0.0,0.0,0.0,0.0,0.0,0.0,0.0,0.0,0.0,0.0,0.0,0.0,0.0,0.0,0.0,0.0,0.0,0.0,0.0,0.0,0.0,0.0,0.0,0.0,0.0,0.0,0.0,0.0,-0.9493,-0.9104,-0.8818,-0.8804,-0.8938,-0.8971,-0.8824,-0.827,-0.7996,-0.815,-0.7862,0.0,0.0,0.0,0.0,0.0,0.0,0.0,0.0,0.0,0.0,0.0,0.0,0.0,0.0,0.0,0.0,0.0,0.0,0.0,0.0,0.0,0.0,0.0,0.0,0.0,0.0,0.0,0.0,0.0,0.0,0.0,0.0,0.0,0.0,0.0,0.0,0.0,0.0,0.0,0.0,0.0,0.0,0.0,0.0,0.0,0.0,0.0,0.0,0.0,0.0,0.0,0.0,0.0,-1.7054,-1.8151,-2.1036,-2.1155,-2.0642,-1.9434,-1.8018,-1.6621,-1.541,0.0,0.0,0.0,0.0,0.0,0.0,0.0,0.0,0.0,0.0,0.0,0.0,0.0,0.0,0.0,0.0,0.0,0.0,0.0,0.0,0.0,0.0,0.0,0.0,0.0,-1.0334,-1.04,0.0,0.0,0.0,0.0,0.0,0.0,0.0,0.0,0.0,0.0,0.0,0.0,-0.9316,-0.8797,-0.8544,-0.8784,-0.8804,-0.8804,-0.8804,-0.8317,-0.8009,-0.8009,-0.7915,-0.7908,0.0,0.0,0.0,0.0,0.0,0.0,0.0,0.0,0.0,0.0,0.0,0.0,0.0,0.0,0.0,0.0,0.0,0.0,0.0,0.0,0.0,0.0,0.0,0.0,0.0,0.0,0.0,0.0,0.0,0.0,0.0,0.0,-0.0818,-0.2543,0.0,0.0,0.0,0.0,0.0,0.0,0.0,0.0,0.0,0.0,0.0,0.0,0.0,-0.9236,-1.2003,-1.4294,-1.5725,-1.6316,-1.8186,-1.9272,-1.9497,-2.0313,-2.0633,-2.0391,-2.0156,0.0,-1.751,-1.6553,0.0,0.0,0.0,0.0,0.0,0.0,0.0,0.0,0.0,0.0,0.0,0.0,0.0,0.0,0.0,0.0,0.0,0.0,0.0,0.0,0.0,0.0,-1.0696,-1.0611,-1.0334,-1.0161,0.0,-1.0356,-1.0336,-1.0416,-1.0324,0.0,0.0,0.0,0.0,0.0,0.0,0.0,-0.9702,-0.9152,-0.8764,-0.8804,-0.8804,-0.8804,-0.8804,-0.8504,-0.8317,-0.8317,-0.8076,-0.8043,-0.8303,-0.835,0.0,0.0,0.0,0.0,0.0,0.0,0.0,0.0,0.0,0.0,0.0,0.0,0.0,0.0,0.0,0.0,0.0,0.0,0.0,0.0,0.0,0.0,0.0,0.0,0.0,0.0,0.0,0.0,0.0,-0.0768,-0.295,-0.5071,-0.3931,-0.2651,0.0,0.0,0.0,0.0,0.0,0.0,0.0,0.0,0.0,-0.7932,-0.9828,-1.16,-1.315,-1.5254,-1.6707,-1.7431,-1.9405,-2.066,-2.1408,-2.1835,-2.2012,-2.2002,-2.1768,-2.1103,-2.0088,-1.8769,-1.8281,-1.835,0.0,0.0,0.0,0.0,-1.76,-1.7406,-1.6747,-1.7173,0.0,-1.7257,0.0,0.0,0.0,0.0,0.0,0.0,0.0,0.0,0.0,0.0,-1.1049,-1.1049,-1.0949,-1.0895,-1.1062,-1.0842,-1.0514,0.0,-1.0281,-1.0408,-1.0374,0.0,0.0,0.0,0.0,-0.979,-0.9777,-0.9309,-0.9051,-0.9051,-0.8905,-0.8804,-0.8804,-0.8544,-0.8427,-0.8427,-0.825,-0.8237,-0.837,-0.853,-0.8677,0.0,0.0,0.0,0.0,0.0,0.0,0.0,0.0,0.0,0.0,0.0,0.0,0.0,0.0,0.0,0.0,0.0,0.0,0.0,0.0,0.0,0.0,0.0,0.0,0.0,0.0,0.0,0.0,-0.2969,-0.4834,-0.6876,-0.6184,-0.5467,0.0,0.0,0.0,0.0,0.0,0.0,-0.5892,-0.7322,-0.9197,-1.1518,-1.2389,-1.3416,-1.4815,-1.6443,-1.8073,-1.9684,-2.1119,-2.2366,-2.3301,-2.3301,-2.3242,-2.3125,-2.2812,-2.249,-2.209,-2.0547,-1.96,-1.9141,-1.9248,-1.915,-1.8903,-1.8556,-1.8313,-1.7996,-1.6916,-1.7388,-1.8284,-1.6777,0.0,-1.6074,-1.4102,0.0,0.0,0.0,0.0,-1.3147,-1.2313,-1.1831,-1.1557,-1.163,-1.1597,-1.1597,-1.1824,-1.1523,-1.1022,0.0,-1.0521,-1.0701,-1.0488,0.0,0.0,0.0,0.0,-1.0037,-0.9711,-0.9359,-0.9103,-0.9176,-0.8978,-0.8804,-0.8804,-0.8611,-0.8484,-0.8484,-0.8484,-0.8484,-0.8484,-0.8691,-0.8804,-0.8804,0.0,0.0,0.0,0.0,0.0,0.0,0.0,0.0,0.0,0.0,0.0,0.0,0.0,0.0,0.0,0.0,0.0,0.0,0.0,0.0,0.0,0.0,0.0,0.0,0.0,0.0,0.0,0.0,0.0,-0.7571,-0.8184,0.0,0.0,0.0,0.0,-0.7895,-0.8404,-0.8721,-0.8873,-1.0134,-1.229,-1.5371,-1.4091,-1.4891,-1.8013,-1.9247,-2.0763,-2.2393,-2.3642,-2.403,-2.375,-2.375,-2.3525,-2.3135,-2.3115,-2.3096,-2.291,-2.0791,-2.0137,-2.0391,-1.959,-1.9521,-1.9522,-1.7084,-1.652,-1.6713,-1.4175,-1.4722,-1.6457,-1.6105,-1.5723,-1.5076,-1.3653,-1.3662,0.0,0.0,-1.2835,-1.3112,-1.2177,-1.1908,-1.1917,-1.2191,-1.2051,-1.185,-1.1864,-1.185,-1.157,0.0,-1.0334,-1.0154,-1.014,0.0,-1.008,-1.0114,-0.9919,-0.9724,-0.9679,-0.9185,-0.8931,-0.9157,-0.8978,-0.8804,-0.8804,-0.8791,-0.8784,-0.8784,-0.8784,-0.8784,-0.8784,-0.8798,-0.8804,-0.8804,-0.8804,0.0,0.0,0.0,0.0,0.0,0.0,0.0,0.0,0.0,0.0,0.0,0.0,0.0,0.0,0.0,0.0,0.0,0.0,0.0,0.0,0.0,0.0,0.0,0.0,0.0,0.0,0.0,0.0,-0.995,-1.0116,0.0,0.0,-1.011,-0.9601,-1.0807,-1.0321,-1.0465,-1.1422,-1.2346,-1.4223,-1.7076,-1.6672,-1.7516,-1.9902,-2.0815,-2.1742,-2.2604,-2.3839,-2.4199,-2.3789,-2.3789,-2.3555,-2.3135,-2.3135,-2.3135,-2.3076,-2.2305,-2.1924,-2.1768,-2.1191,-2.0879,-2.0595,-1.9074,-1.8585,-1.818,-1.5856,-1.6008,-1.7066,-1.5692,-1.4736,-1.3953,-1.2955,-1.2906,-1.3175,-1.2763,-1.2955,-1.3182,-1.2808,-1.2585,-1.2533,-1.264,-1.2365,-1.2144,-1.2144,-1.2144,-1.1997,-1.1496,-1.1015,-1.0681,-1.0681,-1.0214,-0.99,-1.0087,-1.0027,-0.996,-0.996,-0.978,-0.9619,-0.9532,-0.9259,-0.9011,-0.8824,-0.8804,-0.8804,-0.8804,-0.8804,-0.8804,-0.8804,-0.8804,-0.8804,-0.8804,-0.8804,-0.8804,0.0,0.0,0.0,0.0,0.0,0.0,0.0,0.0,0.0,0.0,0.0,0.0,0.0,0.0,0.0,0.0,0.0,0.0,0.0,0.0,0.0,0.0,0.0,0.0,0.0,0.0,-0.9864,-1.1557,-1.1899,-1.2518,-1.3622,-1.2525,-1.2192,-1.3245,-1.2747,-1.2847,-1.4006,-1.5013,-1.6353,-1.8093,-1.8686,-1.9822,-2.1629,-2.2164,-2.2811,-2.3699,-2.4477,-2.4639,-2.4219,-2.4219,-2.3984,-2.3564,-2.3418,-2.3359,-2.335,-2.3203,-2.2698,-2.215,-2.2233,-2.1781,-2.0919,-2.0059,-1.9135,-1.8196,-1.6638,-1.636,-1.6492,-1.5461,-1.4523,-1.3726,-1.3088,-1.2973,-1.3066,-1.3252,-1.3206,-1.3233,-1.3327,-1.3133,-1.2906,-1.2906,-1.2672,-1.2478,-1.2585,-1.2525,-1.2425,-1.2338,-1.1764,-1.1229,-1.1029,-1.0508,-1.0194,-1.0381,-1.0247,-1.0187,-1.0388,-1.0154,-0.9893,-0.9706,-0.9419,-0.9064,-0.8831,-0.8898,-0.8911,-0.8811,-0.8898,-0.8911,-0.8811,-0.8804,-0.8804,-0.8804,-0.8804,-0.8804,-0.8804,0.0,0.0,0.0,0.0,0.0,0.0,0.0,0.0,0.0,0.0,0.0,0.0,0.0,0.0,0.0,0.0,0.0,0.0,0.0,0.0,0.0,0.0,0.0,-0.7733,-1.0423,-1.2383,-1.2401,-1.3762,-1.4549,-1.4267,-1.4502,-1.4823,-1.5391,-1.5705,-1.6119,-1.6787,-1.7995,-1.8784,-1.889,-2.0208,-2.1743,-2.3432,-2.3432,-2.4225,-2.5752,-2.5771,-2.5537,-2.5088,-2.5088,-2.4844,-2.4394,-2.3984,-2.3799,-2.376,-2.3242,-2.2413,-2.1391,-2.2589,-2.207,-2.056,-1.9419,-1.8041,-1.6565,-1.6152,-1.5368,-1.4649,-1.5427,-1.512,-1.4482,-1.4202,-1.3915,-1.3741,-1.4035,-1.3707,-1.3327,-1.3601,-1.3454,-1.324,-1.3227,-1.2986,-1.2839,-1.3146,-1.2973,-1.2929,-1.3153,-1.2505,-1.1724,-1.1136,-1.1015,-1.1002,-1.0995,-1.0508,0.0,-1.0909,-1.0234,-0.9713,-0.9713,-0.9452,-0.9103,-0.8864,-0.9092,-0.907,-0.8824,-0.9072,-0.9044,-0.8818,-0.8804,-0.8804,-0.8804,-0.8804,-0.8804,-0.8804,0.0,0.0,0.0,0.0,0.0,0.0,0.0,0.0,0.0,0.0,0.0,0.0,0.0,0.0,0.0,0.0,0.0,0.0,0.0,0.0,0.0,0.0,-1.223,-1.085,-1.312,-1.5061,-1.5519,-1.7318,-1.8126,-1.7143,-1.7327,-1.7206,-1.6431,-1.662,-1.7344,-1.8606,-1.913,-2.0476,-2.2854,-2.253,-2.3814,-2.6804,-2.5664,-2.583,-2.7513,-2.6894,-2.6269,-2.5557,-2.5557,-2.5137,-2.4414,-2.4297,-2.4072,-2.3689,-2.2734,-2.1942,-2.1293,-2.1667,-2.0962,-1.9709,-1.8545,-1.7066,-1.5707,-1.5617,-1.5273,-1.4919,-1.5089,-1.5035,-1.483,-1.475,-1.4669,-1.4616,-1.4703,-1.4603,-1.4449,-1.4315,-1.4062,-1.3788,-1.3574,-1.33,-1.3106,-1.3193,-1.314,-1.3106,-1.3193,-1.3013,-1.2652,-1.2051,-1.159,-1.1236,-1.1022,-1.0855,0.0,-1.0688,-1.053,-1.0383,-1.0383,-1.0247,-0.9993,-0.9486,-0.9512,-0.9345,-0.8838,-0.8884,-0.8891,-0.8811,-0.8804,-0.8804,-0.8804,-0.8804,-0.8804,0.0,0.0,0.0,0.0,0.0,0.0,0.0,0.0,0.0,0.0,0.0,0.0,0.0,0.0,0.0,0.0,0.0,0.0,0.0,0.0,0.0,0.0,-1.3743,-1.4647,-1.3627,-1.5472,-1.727,-1.8336,-1.9589,-2.0066,-1.9319,-1.9626,-1.9589,-1.8959,-1.9169,-1.9758,-2.057,-2.1409,-2.2578,-2.4126,-2.5074,-2.6436,-2.8261,-2.7994,-2.8098,-2.8554,-2.786,-2.7063,-2.6006,-2.582,-2.5459,0.0,-2.4775,-2.4166,-2.3192,-2.2373,-2.1133,0.0,0.0,0.0,0.0,0.0,-1.6292,-1.5398,-1.5398,-1.5284,-1.5124,-1.5003,-1.505,-1.5124,-1.4997,-1.4963,-1.4937,-1.481,-1.4776,-1.471,-1.4416,-1.4215,-1.4041,-1.3868,-1.3607,-1.3427,-1.3547,-1.348,-1.3427,-1.3554,-1.3474,0.0,-1.2766,-1.2191,-1.165,-1.1236,-1.1069,-1.0929,-1.0762,-1.0698,-1.0577,-1.0388,-1.0374,-1.014,-0.9546,-0.9613,0.0,0.0,0.0,-0.8931,-0.8811,-0.8804,0.0,0.0,0.0,-0.8804,-0.8804,0.0,0.0,0.0,-0.8804,-0.8804,0.0,0.0,0.0,0.0,0.0,0.0,0.0,0.0,0.0,0.0,0.0,0.0,0.0,0.0,0.0,0.0,-1.6223,-1.6833,-1.6996,-1.8082,-1.9445,-2.0787,-2.1239,-2.1272,-2.1176,-2.1539,-2.1828,-2.1978,-2.2336,-2.2649,-2.2649,0.0,0.0,0.0,0.0,-2.8873,-2.872,-3.027,-3.0469,-2.9314,-2.8866,-2.7914,-2.6523,-2.6133,-2.5898,-2.5791,-2.5189,-2.4127,-2.2577,-2.1853,-1.9969,-1.7591,-1.8672,-1.8403,-1.7318,-1.6197,-1.5665,-1.5444,-1.5444,0.0,0.0,-1.5144,-1.5237,-1.5398,-1.5137,-1.5064,-1.5003,-1.4743,-1.4643,-1.4556,-1.4262,-1.4188,-1.4168,-1.4102,-1.3908,-1.3808,-1.4041,-1.3881,-1.3774,-1.4035,-1.3874,-1.3601,-1.3307,-1.2759,-1.2151,-1.1563,-1.1229,-1.1029,-1.0995,-1.0742,-1.0474,-1.0241,0.0,0.0,-0.9336,-0.9579,-0.9466,-0.8844,-0.9051,-0.9072,-0.8818,-0.8804,-0.8804,-0.8804,-0.8804,-0.8804,-0.8804,-0.8804,-0.8804,-0.8804,-0.8804,-0.8804,0.0,0.0,0.0,0.0,0.0,0.0,0.0,0.0,0.0,0.0,0.0,0.0,0.0,0.0,0.0,-2.2866,-2.272,-2.2691,-2.4177,-2.345,-2.2679,-2.2162,-2.3717,-2.4375,-2.3251,-2.3895,-2.3817,-2.2745,-2.2988,-2.3725,-2.4898,-2.5182,0.0,-2.7353,-2.8441,-2.9565,-3.0931,-3.1325,-3.137,-3.0976,0.0,0.0,-2.7422,-2.7334,-2.6914,-2.616,-2.5011,-2.3761,-2.2407,-2.0215,-1.8111,-1.6197,-1.6379,-1.6379,-1.6109,-1.592,-1.5792,-1.5745,-1.5745,-1.5745,-1.5732,-1.5678,-1.5698,-1.5732,-1.5678,-1.5665,0.0,-1.5591,-1.5411,-1.5157,-1.487,-1.4796,-1.4676,-1.4202,-1.4222,-1.4302,-1.4128,-1.4041,-1.4015,-1.4075,-1.4041,-1.3908,-1.3614,-1.306,-1.2533,-1.187,-1.153,-1.1256,-1.1022,-1.0742,-1.0628,-1.0802,-1.0828,-1.0581,-0.9993,-1.0,-0.9679,-0.8858,-0.8858,-0.8864,-0.8811,-0.8804,-0.8804,-0.8804,-0.8804,-0.8804,-0.8804,-0.8804,-0.8804,-0.8804,-0.8804,-0.8804,0.0,0.0,0.0,0.0,0.0,0.0,0.0,0.0,0.0,0.0,0.0,-1.7908,0.0,0.0,-2.2115,-2.5565,-2.561,-2.5722,-2.7172,-2.6389,-2.5376,-2.4572,-2.5182,-2.5653,-2.5418,-2.5872,-2.5897,-2.5249,-2.5638,-2.6114,-2.6673,-2.6746,-2.7093,-2.7656,-2.9635,-3.0921,-3.1603,-3.3235,-3.3667,-3.2984,-3.1584,-3.0162,-2.8644,-2.7515,-2.6464,-2.5318,-2.4373,-2.2714,-2.0457,-1.8201,-1.6258,-1.4854,-1.4854,-1.5242,-1.573,-1.5045,-1.5242,-1.5832,-1.5832,-1.5832,-1.5832,-1.5832,-1.5832,-1.5832,-1.5832,-1.5832,-1.5798,-1.5651,-1.5504,-1.5331,-1.5037,-1.4963,-1.489,-1.4596,-1.4636,-1.4663,-1.4369,-1.4302,-1.4262,-1.4115,-1.4088,-1.3988,-1.3694,-1.3394,-1.2946,-1.2198,-1.1837,-1.149,-1.1049,-1.0868,-1.0775,-1.0775,-1.0775,-1.0595,-1.0154,-0.9846,-0.9426,-0.8844,-0.8804,-0.8804,-0.8804,-0.8804,-0.8804,-0.8804,-0.8804,-0.8804,-0.8804,-0.8804,-0.8884,-0.9025,-0.9025,-0.9025,0.0,0.0,0.0,0.0,0.0,0.0,0.0,0.0,-1.5265,-1.655,-1.9056,-2.213,-2.6184,-2.5073,-2.4207,-2.6574,-2.695,-2.7292,-2.814,-2.7861,-2.7418,-2.6801,-2.633,-2.633,-2.6987,-2.7376,-2.762,-2.762,-2.8076,-2.8174,-2.7785,-2.8135,-2.8114,-2.7806,-3.0675,-3.2252,-3.2264,-3.5039,-3.5763,-3.4374,-3.2643,-3.1063,-2.9751,-2.7652,-2.5914,-2.435,-2.33,-2.1122,-1.8306,-1.6629,-1.5127,-1.3949,-1.3607,-1.4268,-1.5337,-1.4268,-1.4752,-1.5832,-1.5832,-1.5832,-1.5832,-1.5832,-1.5832,-1.5832,-1.5832,-1.5832,-1.5778,-1.5545,-1.5438,-1.5344,-1.511,-1.505,-1.503,-1.4977,-1.501,-1.4963,-1.4669,-1.4563,-1.4449,-1.4215,-1.4128,-1.4008,-1.3768,-1.3681,-1.336,-1.2512,-1.2138,-1.1764,-1.1229,-1.1116,-1.0962,-1.0739,-1.0705,-1.0501,-1.0147,-0.9633,-0.9198,-0.8911,-0.8891,-0.8864,-0.8811,-0.8864,-0.8864,-0.8804,-0.8864,-0.8891,-0.8891,-0.8891,-0.9045,-0.9269,-0.9329,-0.9323,-1.2513,-1.2469,0.0,-1.2822,-1.4979,-1.756,0.0,0.0,-2.0926,-2.1558,-2.3453,-2.571,-2.7707,-2.7242,-2.6875,-2.7988,-2.8398,-2.8563,-2.8291,-2.8251,-2.793,-2.7398,-2.7435,-2.7321,-2.7035,-2.7699,-2.8213,-2.8213,-2.8262,-2.8291,-2.8199,-2.831,-2.904,-3.0462,-3.1695,-3.2921,-3.4095,-3.563,-3.5763,-3.4385,-3.2898,-3.1545,-3.013,-2.873,-2.6893,-2.4738,-2.1212,-1.8853,-1.7354,-1.6558,-1.542,-1.4091,-1.2699,-1.2909,-1.407,-1.3974,-1.4752,-1.5832,-1.5832,-1.5832,-1.5832,-1.5832,-1.5832,-1.5832,-1.5832,-1.5832,-1.5818,-1.5792,-1.5591,-1.5391,-1.5357,-1.5351,-1.5284,-1.5023,-1.5164,-1.5271,-1.4977,-1.4703,-1.4509,-1.4476,-1.4262,-1.4075,-1.4041,-1.3814,-1.3427,-1.2869,-1.2445,-1.2138,-1.1817,-1.1543,-1.1269,-1.0975,-1.0949,-1.0722,-1.0167,-0.982,-0.9506,-0.9157,-0.9137,-0.9024,-0.8818,-0.9058,-0.9072,-0.8811,-0.9058,-0.9137,-0.9137,-0.9137,-0.9345,-0.9639,-0.99,-0.988,-1.3623,0.0,0.0,0.0,-1.8688,-2.0833,-2.219,-2.4079,-2.5495,-2.5314,-2.6289,-2.7169,-2.6988,-2.6151,-2.58,0.0,-2.6955,-2.6991,-2.8164,-2.8301,-2.7951,-2.6995,-2.7153,-2.7393,-2.7761,-2.7803,-2.7892,-2.8271,-2.8251,-2.8298,-2.8324,-2.9995,-3.1162,-3.1677,-3.342,-3.4738,-3.5365,-3.6702,-3.7007,-3.6505,-3.5141,-3.3549,-3.1946,-3.035,-2.7284,-2.3228,-1.9791,-1.7812,-1.7108,-1.6513,-1.5464,-1.4132,-1.252,-1.2716,-1.3782,-1.3006,-1.4076,-1.5832,-1.5832,-1.5832,-1.5832,-1.5832,-1.5832,-1.5832,-1.5832,-1.5832,-1.5832,-1.5832,-1.5745,-1.5651,-1.5651,-1.5651,-1.5618,-1.5498,-1.5558,-1.5571,-1.5277,-1.5117,-1.493,-1.4583,-1.4422,-1.4282,-1.4115,-1.3981,-1.3754,-1.3333,-1.2866,-1.2452,-1.2158,-1.1864,-1.1503,-1.1042,-1.0995,-1.0755,-1.0167,-1.0007,-0.9813,-0.9519,-0.9499,-0.9446,-0.9325,-0.9432,-0.9439,-0.9319,-0.9439,-0.9499,-0.9499,-0.9499,-0.9646,-0.994,-1.006,-1.014,-1.6294,0.0,0.0,-2.056,-2.2444,-2.3699,-2.4413,-2.632,-2.7816,-2.7533,-2.7488,-2.7137,-2.6078,-2.4766,-2.4394,-2.6179,-2.5743,-2.6021,-2.8047,-2.8193,-2.7783,-2.6672,-2.6491,-2.678,-2.7505,-2.7898,-2.8187,-2.8337,-2.9246,-2.9941,-3.0186,-3.2146,-3.3364,-3.3667,-3.5201,-3.6225,-3.6691,-3.7606,-3.8002,-3.8002,-3.663,-3.5011,-3.307,-2.9932,-2.636,-2.2336,-1.9084,-1.7542,-1.7221,-1.6633,-1.5678,-1.433,-1.2932,-1.3011,-1.3782,-1.2818,-1.3884,-1.5832,-1.5832,-1.5832,-1.5832,-1.5832,-1.5832,-1.5832,-1.5832,-1.5832,-1.5832,-1.5832,-1.5832,-1.5832,-1.5832,-1.5832,-1.5832,-1.5832,-1.5832,-1.5772,-1.5565,-1.5451,-1.5271,-1.4843,-1.4629,-1.4449,-1.4242,-1.4142,-1.4015,-1.3801,-1.3327,-1.2852,-1.2478,-1.2098,-1.1677,-1.1169,-1.1042,-1.0788,-1.0281,-1.0241,-1.0114,-0.982,-0.98,-0.9766,-0.9686,-0.976,-0.9766,-0.9686,-0.9766,-0.98,-0.98,-0.98,-0.9953,-1.0241,-1.0241,-1.0354,-2.1257,0.0,-2.1702,-2.474,-2.6027,-2.6784,-2.7864,-2.761,-2.7202,-2.7653,-2.6437,-2.5307,-2.5213,-2.3765,-2.3235,-2.5466,-2.6054,-2.6772,-2.8077,-2.7939,-2.7363,-2.6504,-2.5644,-2.5303,0.0,-2.8255,-2.9436,-2.8431,-3.1775,-3.4211,-3.5046,-3.4414,-3.5108,-3.7738,-3.6609,-3.6779,-3.8538,-3.8176,-3.8002,-3.8002,-3.663,-3.5011,-3.2956,-2.6598,-2.3311,-2.2707,-1.942,-1.7856,-1.7522,-1.6934,-1.5966,-1.4684,-1.4072,-1.3872,-1.3878,-1.3872,-1.4657,-1.5832,-1.5832,-1.5832,-1.5832,-1.5832,-1.5832,-1.5832,-1.5832,-1.5832,-1.5832,-1.5832,-1.5832,-1.5832,-1.5832,-1.5832,-1.5832,-1.5832,-1.5832,-1.5825,-1.5818,-1.5591,-1.5391,-1.5378,-1.491,-1.4516,-1.4509,-1.4275,-1.4082,-1.4075,-1.3814,-1.34,-1.2889,-1.2298,-1.175,-1.1443,-1.1162,-1.0868,-1.0631,-1.0611,-1.0421,-1.012,-1.01,-0.9973,-0.9693,-0.9953,-0.9973,-0.9693,-0.996,-1.01,-1.01,-1.01,-1.0254,-1.0611,-1.0611,-1.0618,-1.8935,0.0,-2.4456,-2.5448,-2.6563,-2.7439,-2.7772,-2.7924,-2.7744,-2.7324,-2.5594,-2.389,-2.2767,-2.127,-2.0647,-2.1982,-2.351,-2.5098,-2.6571,-2.7841,-2.7871,-2.6162,-2.6201,0.0,0.0,0.0,0.0,-2.7855,-3.0915,-3.3565,-3.5574,-3.705,-3.8234,-3.9079,-3.8687,-3.8711,-3.9309,-3.9157,-3.9132,-3.912,-3.6125,-3.4336,-3.3507,-2.6763,-2.356,-2.3087,-1.975,-1.817,-1.7842,-1.7248,-1.679,-1.6209,-1.4733,-1.4722,-1.5402,-1.4328,-1.4752,-1.5832,-1.5832,-1.5832,-1.5832,-1.5832,-1.5832,-1.5832,-1.5832,-1.5832,-1.5832,-1.5832,-1.5832,-1.5832,-1.5832,-1.5832,-1.5832,-1.5832,-1.5832,-1.5832,-1.5832,-1.5752,-1.5625,-1.5431,-1.5237,-1.4977,-1.4583,-1.4442,-1.4309,-1.4115,-1.3834,-1.3427,-1.2903,-1.2647,-1.2265,-1.177,-1.1456,-1.1162,-1.0868,-1.0675,-1.0577,-1.0414,-1.0414,-1.0367,-1.0329,-1.0361,-1.0367,-1.0329,-1.0361,-1.0414,-1.0414,-1.0414,-1.0461,-1.0624,-1.0624,-1.0732,-1.8068,-2.1924,-2.5942,-2.6267,-2.6931,-2.7413,-2.7378,-2.698,-2.6199,-2.5191,-2.3178,-2.1122,-1.9805,-1.8179,-1.7653,-1.9252,-2.1025,-2.3117,-2.5468,-2.692,-2.7383,-2.6318,-2.6406,0.0,0.0,0.0,0.0,-2.8736,-3.1696,-3.4193,-3.5816,-3.8327,-3.9755,-3.9755,-3.9653,-3.9697,-3.9697,-3.9697,-3.9697,-3.9672,-3.5864,-3.3754,-3.3043,-2.6729,-2.3337,-2.232,-1.9644,-1.8263,-1.7842,-1.7348,-1.7148,-1.7101,-1.5689,-1.5652,-1.6149,-1.5164,-1.523,-1.5832,-1.5832,-1.5832,-1.5832,-1.5832,-1.5832,-1.5832,-1.5832,-1.5832,-1.5832,-1.5832,-1.5832,-1.5832,-1.5832,-1.5832,-1.5832,-1.5832,-1.5832,-1.5832,-1.5832,-1.5832,-1.5772,-1.5585,-1.5471,-1.5244,-1.4763,-1.4502,-1.4302,-1.4115,-1.3928,-1.3587,-1.2993,-1.2889,-1.2593,-1.1931,-1.1603,-1.1309,-1.1015,-1.0728,-1.0624,-1.0624,-1.0624,-1.0624,-1.0624,-1.0624,-1.0624,-1.0624,-1.0624,-1.0672,-1.0715,-1.0387,-1.0238,-1.0333,-1.0333,-1.0428,-1.8877,-2.2663,-2.637,-2.7178,-2.717,-2.69,-2.6583,-2.4861,-2.2897,-2.1611,-1.9293,-1.7305,0.0,0.0,-1.4537,-1.7529,-1.912,-2.1208,-2.4724,-2.5585,-2.6221,0.0,0.0,0.0,0.0,0.0,0.0,-3.106,0.0,-3.5895,-3.6033,-3.8329,-3.9697,-3.9697,-3.9697,-3.9697,-3.9697,-3.9697,-3.9672,-3.9506,-3.5736,-3.3171,-3.1516,-2.617,-2.2664,-2.0629,-1.9133,-1.8156,-1.7582,-1.7288,-1.7174,-1.7141,-1.6847,-1.656,-1.6313,-1.6286,-1.6092,-1.5852,-1.5832,-1.5832,-1.5832,-1.5832,-1.5832,-1.5832,-1.5832,-1.5832,-1.5832,-1.5832,-1.5832,-1.5832,-1.5832,-1.5832,-1.5832,-1.5832,-1.5832,-1.5832,-1.5832,-1.5832,-1.5832,-1.5832,-1.5591,-1.5304,-1.5017,-1.4489,-1.4108,-1.4088,-1.4088,-1.3874,-1.3287,-1.2953,-1.262,-1.1951,-1.1623,-1.1336,-1.1062,-1.0755,-1.0645,-1.0645,-1.0645,-1.0645,-1.0645,-1.0658,-1.0665,-1.0665,-1.0665,-1.0742,-1.0943,-0.9995,-0.9643,-0.9875,-0.9875,-0.995,-1.7339,-2.1561,-2.6016,-2.6332,-2.5952,-2.5248,-2.4446,-2.3339,-2.1979,-2.0584,-1.7887,-1.5763,0.0,0.0,0.0,-1.6448,-1.9431,0.0,-2.4353,-2.6948,0.0,-2.8018,0.0,-2.9177,-3.0756,-3.0933,0.0,0.0,-3.5547,-3.5771,-3.6546,-3.8539,-3.9697,-3.9697,-3.9697,-3.9697,-3.9697,-3.9697,-3.8741,-3.6853,-3.497,-3.2466,-2.9479,-2.5639,-2.2791,-2.095,-1.9223,-1.8277,-1.7903,-1.7602,-1.7468,-1.7442,-1.7148,-1.6994,-1.6874,-1.6433,-1.6226,-1.6126,-1.5905,-1.5832,-1.5832,-1.5832,-1.5832,-1.5832,-1.5832,-1.5832,-1.5832,-1.5832,-1.5832,-1.5832,-1.5832,-1.5832,-1.5832,-1.5832,-1.5832,-1.5832,-1.5832,-1.5832,-1.5832,-1.5832,-1.5591,-1.5304,-1.5017,-1.4656,-1.4335,-1.4122,-1.4088,-1.3874,-1.3287,-1.314,-1.2859,-1.2258,-1.1931,-1.1724,-1.1657,-1.1176,-1.0882,-1.0882,-1.0882,-1.0882,-1.0882,-1.1089,-1.1209,-1.1209,-1.1209,-1.0824,-1.02,-0.992,-0.9811,-0.9875,-0.9875,-1.0475,-1.7668,-2.0965,-2.4776,-2.492,-2.4436,-2.3626,-2.2376,-2.0508,-1.8716,-1.7573,-1.5233,0.0,0.0,0.0,0.0,0.0,0.0,0.0,-2.3578,-2.6664,-2.876,0.0,-2.9277,0.0,-3.2463,-3.2081,-3.3142,0.0,-3.6548,-3.6843,-3.7977,-3.9308,-4.0162,-4.0413,-3.9982,-3.9744,-3.9697,-3.9697,-3.8563,-3.627,-3.3221,-3.0519,-2.7791,-2.4376,-2.1773,-1.9903,0.0,-1.8243,-1.7829,-1.7655,-1.7582,-1.7569,-1.7402,-1.7261,-1.7108,-1.678,-1.6493,-1.6253,-1.6079,-1.6025,-1.6005,-1.5872,-1.5832,-1.5832,-1.5832,-1.5832,-1.5832,-1.5832,-1.5832,-1.5832,-1.5832,-1.5832,-1.5832,-1.5832,-1.5832,-1.5832,-1.5832,-1.5832,-1.5832,-1.5832,-1.5591,-1.5344,-1.5177,-1.4803,-1.4469,-1.4302,-1.4168,-1.3921,-1.346,-1.3287,-1.3026,-1.2552,-1.2118,-1.187,-1.187,-1.145,-1.1182,-1.1182,-1.1182,-1.1182,-1.1182,-1.1336,-1.1217,-1.0723,-1.0723,-1.0281,-0.9395,-0.8969,-0.8811,-0.899,-0.9424,-0.9785,-1.9021,-2.0738,-2.2959,-2.3291,-2.284,-2.1918,-2.0367,-1.7422,-1.4703,-1.3913,0.0,-1.131,-1.187,-1.2204,-1.2832,-1.4282,0.0,-2.0197,-2.2775,-2.5729,-2.8116,-2.9502,-2.9921,-3.1023,-3.3479,-3.2728,-3.343,-3.6542,-3.7215,-3.8019,-3.9362,-4.0032,-4.0626,-4.1103,-4.0196,-3.971,-3.9697,-3.944,-3.8344,-3.6341,-3.1444,-2.808,-2.6011,-2.3006,-2.0485,-1.8544,0.0,0.0,-1.7695,-1.7615,-1.7609,-1.7642,-1.7602,-1.7428,-1.7201,-1.7161,-1.6827,-1.638,-1.6346,-1.6306,-1.6226,-1.5925,-1.5879,-1.5932,-1.5852,-1.5852,-1.5879,-1.5838,-1.5832,-1.5832,-1.5832,-1.5832,-1.5832,-1.5832,-1.5832,-1.5832,-1.5832,-1.5832,-1.5832,-1.5832,-1.5625,-1.5444,-1.5404,-1.497,-1.4609,-1.4529,-1.4309,-1.4041,-1.3741,-1.3447,-1.3133,-1.2856,-1.2365,-1.1971,-1.1931,-1.1657,-1.1483,-1.1483,-1.1483,-1.1414,-1.127,-1.1309,-1.083,-0.9839,-0.9839,-0.9444,-0.8695,-0.7816,-0.7538,-0.7859,-0.8694,-0.8694,-2.0073,-2.0808,-2.1409,-2.1161,-2.0495,-1.9576,-1.8156,-1.5628,0.0,0.0,-1.1169,-1.0538,-1.0496,-1.1732,0.0,-1.4315,0.0,0.0,0.0,0.0,-2.7535,0.0,0.0,0.0,0.0,0.0,0.0,0.0,0.0,-3.7571,-3.7914,-3.9111,-3.9885,-3.9973,-3.9798,-3.971,-3.9697,-3.8085,-3.6285,-3.4437,-3.104,-2.7207,-2.2999,-2.2099,-2.0607,-1.8831,-1.8597,0.0,-1.8297,-1.7789,-1.7736,-1.7943,-1.7682,-1.7549,-1.7475,-1.7241,-1.7081,-1.6961,-1.6714,-1.6473,-1.6226,-1.5925,-1.6159,-1.6466,-1.5972,-1.5999,-1.6146,-1.5899,-1.5832,-1.5832,-1.5832,-1.5832,-1.5832,-1.5832,-1.5832,-1.5832,-1.5832,-1.5832,-1.5832,-1.5832,-1.5792,-1.5678,-1.5438,-1.5311,-1.5077,-1.4596,-1.4476,-1.4342,-1.4048,-1.3754,-1.3353,-1.2882,-1.2728,-1.2492,-1.2245,-1.1957,-1.179,-1.179,-1.179,-1.143,-1.0628,-1.0761,-1.0438,-0.9404,-0.9404,-0.89,-0.7956,-0.7804,-0.7749,-0.7783,-0.8008,-0.8389,-1.8998,-2.0,-2.0975,-2.053,-1.9579,-1.8444,-1.6647,0.0,0.0,0.0,-1.009,-0.9602,-1.0055,0.0,0.0,0.0,0.0,0.0,0.0,0.0,0.0,0.0,0.0,0.0,0.0,0.0,0.0,0.0,0.0,-3.8203,-3.8998,-4.0047,-4.0413,-4.0136,-4.017,-3.994,-3.9697,-3.7433,-3.5141,-3.2831,-2.8591,-2.4889,-2.191,-2.0714,-1.9624,-1.8691,-1.8551,0.0,-1.8009,-1.7876,-1.7816,-1.7789,-1.7642,-1.7582,-1.7562,-1.7428,-1.7281,-1.723,-1.6987,-1.6847,-1.668,-1.638,-1.6373,-1.6426,-1.6146,-1.6266,-1.644,-1.6139,-1.6059,-1.6025,-1.5872,-1.5832,-1.5832,-1.5832,-1.5832,-1.5832,-1.5832,-1.5832,-1.5832,-1.5832,-1.5832,-1.5785,-1.5645,-1.5498,-1.5304,-1.5017,-1.4716,-1.4469,-1.4329,-1.4055,-1.3707,-1.326,-1.308,-1.2933,-1.2786,-1.2498,-1.2399,-1.2399,-1.1726,-1.1126,-1.0601,-1.0315,-0.9684,-0.8613,-0.8613,-0.8199,-0.7202,-0.719,-0.7194,-0.7202,-0.7752,-0.7936,-1.7784,-1.9175,-2.0795,-2.0267,-1.9165,-1.7689,-1.5549,-1.2742,0.0,0.0,-0.9013,-0.8808,-0.9542,0.0,-1.2661,0.0,0.0,0.0,0.0,0.0,0.0,0.0,0.0,0.0,0.0,0.0,0.0,0.0,0.0,0.0,-4.057,-4.099,-4.0965,-4.0526,-4.0513,-4.0132,-3.9258,-3.6787,-3.414,-3.1117,-2.6509,-2.3166,-2.0947,-1.9484,-1.8704,-1.849,-1.8424,0.0,0.0,-1.7969,-1.7943,-1.7776,-1.7776,-1.7736,-1.7682,-1.7682,-1.7495,-1.7241,-1.7241,-1.7201,-1.7114,-1.6874,-1.6687,-1.6533,-1.64,-1.6567,-1.6727,-1.6373,-1.6273,-1.6206,-1.5905,-1.5832,-1.5832,-1.5832,-1.5832,-1.5832,-1.5832,-1.5832,-1.5832,-1.5832,-1.5832,-1.5832,-1.5832,-1.5645,-1.5471,-1.5404,-1.495,-1.4589,-1.4529,-1.4269,-1.4001,-1.3761,-1.348,-1.328,-1.3213,-1.2986,-1.2762,-1.2524,-1.153,-1.072,-1.0258,-0.9589,-0.8736,-0.7709,-0.7709,-0.7381,-0.6702,-0.658,-0.6583,-0.6698,-0.7514,-0.736,-1.7937,-1.9164,-2.0234,-1.992,-1.8551,-1.6665,-1.4389,0.0,0.0,-0.7753,-0.8003,-0.8503,-0.823,-1.0037,-1.2011,-1.3448,-1.4388,-1.6484,0.0,0.0,0.0,0.0,0.0,0.0,0.0,0.0,0.0,0.0,0.0,0.0,-4.1121,-4.084,-4.0563,-4.0513,-4.0513,-3.9581,-3.769,-3.5741,-3.2868,-2.9339,-2.704,-2.3517,-1.907,-1.8918,-1.8648,-1.8477,-1.8203,0.0,0.0,-1.815,-1.819,-1.841,-1.841,-1.8243,-1.8003,-1.8003,-1.7809,-1.7542,-1.7542,-1.7368,-1.7148,-1.7114,-1.7268,-1.7361,-1.6827,-1.6874,-1.6994,-1.6433,-1.6273,-1.6206,-1.5905,-1.5832,-1.5832,-1.5832,-1.5832,-1.5832,-1.5832,-1.5832,-1.5832,-1.5832,-1.5832,-1.5832,-1.5832,-1.5805,-1.5698,-1.5438,-1.5124,-1.4823,-1.4556,-1.4269,-1.4075,-1.4048,-1.3781,-1.3494,-1.3233,-1.3186,-1.2752,-1.1694,-1.1505,-1.053,-0.8517,-0.8376,-0.7816,-0.6843,-0.6843,-0.6767,-0.6702,-0.6685,-0.6685,-0.6702,-0.6781,-0.6774,-1.6003,-1.7991,-2.0074,-1.9432,-1.7936,-1.6031,-1.3665,0.0,-0.8764,-0.7211,-0.7564,-0.8169,-0.8057,-0.988,-1.1772,-1.3056,-1.3449,0.0,0.0,0.0,0.0,0.0,0.0,0.0,0.0,0.0,0.0,0.0,0.0,0.0,-4.1184,-4.0814,-4.0362,-4.0036,-4.0023,-3.9074,-3.7106,-3.4877,-3.1732,-2.7659,-2.4798,-2.201,-1.9135,-1.839,-1.8223,-1.8339,-1.7975,0.0,0.0,-1.8023,-1.8116,-1.8223,-1.8223,-1.815,-1.805,-1.805,-1.7849,-1.7582,-1.7582,-1.7508,-1.7408,-1.7408,-1.7368,-1.7281,-1.7048,-1.7054,-1.7068,-1.6653,-1.6533,-1.6426,-1.5952,-1.5832,-1.5872,-1.6052,-1.5959,-1.5832,-1.5832,-1.5832,-1.5832,-1.5832,-1.5832,-1.5832,-1.5832,-1.5832,-1.5792,-1.5671,-1.5411,-1.5184,-1.5064,-1.4796,-1.4616,-1.4616,-1.4195,-1.3861,-1.3748,-1.2902,-1.2213,-1.1793,-1.0345,-0.9136,-0.8246,-0.7697,-0.7253,-0.6837,-0.6837,-0.6878,-0.6963,-0.6878,-0.6881,-0.6963,-0.6963,-0.6919,-1.4136,-1.669,-1.9279,-1.8571,-1.7068,-1.5127,0.0,0.0,-0.8206,-0.6655,-0.7246,-0.8027,-0.8027,-0.9939,-1.1878,-1.3138,-1.3494,-1.5016,-1.8856,0.0,0.0,0.0,0.0,0.0,0.0,0.0,0.0,0.0,0.0,0.0,0.0,-4.0502,-4.0337,-3.9948,-3.9332,-3.8105,-3.6145,-3.3391,-3.0017,-2.5865,-2.3029,-2.0801,-1.8908,-1.8021,-1.7789,-1.803,0.0,0.0,0.0,-1.7909,-1.8043,-1.8056,-1.8143,-1.8123,-1.805,-1.805,-1.7849,-1.7582,-1.7582,-1.7582,-1.7569,-1.7482,-1.7255,-1.7034,-1.7121,-1.7148,-1.7088,-1.6787,-1.6707,-1.6573,-1.5985,-1.5892,-1.5992,-1.6112,-1.5979,-1.5832,-1.5832,-1.5832,-1.5832,-1.5832,-1.5832,-1.5832,-1.5832,-1.5832,-1.5832,-1.5832,-1.5585,-1.5398,-1.5398,-1.5144,-1.4867,-1.4405,-1.3973,-1.3861,-1.4215,-1.2632,-1.155,-1.1562,-0.9563,-0.8242,-0.7911,-0.7272,-0.699,-0.699,-0.699,-0.7041,-0.7139,-0.7041,-0.7044,-0.7139,-0.7139,-0.7088,-1.2652,-1.5161,-1.7542,-1.7241,-1.5845,-1.3866,0.0,0.0,-0.7827,-0.5852,-0.6793,-0.8027,-0.8027,-1.0059,-1.2367,-1.4031,-1.4932,-1.6492,-1.9461,0.0,0.0,0.0,0.0,0.0,0.0,0.0,0.0,0.0,0.0,0.0,0.0,-3.9603,-4.0513,-4.0513,-3.8521,-3.6565,-3.4657,-3.1013,-2.7422,-2.4036,-2.2468,-2.0384,-1.805,-1.7729,-1.7589,0.0,0.0,0.0,0.0,-1.7896,-1.8029,-1.8076,-1.837,-1.8303,-1.805,-1.805,-1.7849,-1.7582,-1.7582,-1.7582,-1.7535,-1.7248,-1.6954,-1.6767,-1.7061,-1.7148,-1.7088,-1.6787,-1.6707,-1.6573,-1.5985,-1.6046,-1.6192,-1.5905,-1.5832,-1.5832,-1.5832,-1.5832,-1.5832,-1.5832,-1.5832,-1.5832,-1.5832,-1.5832,-1.5832,-1.5832,-1.5585,-1.5398,-1.5398,-1.5144,-1.4501,-1.32,-1.2868,-1.3254,-1.4422,-1.2192,-1.0755,-1.0621,-0.9575,-0.836,-0.7136,-0.7136,-0.7139,-0.7139,-0.7139,-0.7139,-0.7139,-0.7139,-0.7139,-0.7139,-0.7139,-0.7139,-1.0222,-1.2102,-1.3794,-1.3359,-1.2428,-1.1107,-0.9239,-0.8009,-0.6858,-0.5631,-0.6793,-0.8027,-0.8027,-0.978,-1.2007,-1.4329,-1.5138,-1.6585,0.0,0.0,0.0,0.0,0.0,0.0,0.0,0.0,0.0,0.0,0.0,0.0,0.0,-3.9728,-3.9506,-3.8497,-3.7532,-3.5432,-3.2286,-2.9574,-2.648,-2.3079,-2.1141,-1.955,-1.8158,-1.7729,0.0,0.0,0.0,0.0,0.0,-1.7682,-1.7729,-1.7813,-1.8034,-1.813,-1.805,-1.805,-1.7849,-1.7582,-1.7582,-1.7582,-1.7535,-1.7241,-1.6947,-1.6727,-1.682,-1.6847,-1.6827,-1.6734,-1.6707,-1.666,-1.6473,-1.6353,-1.6353,-1.666,-1.6273,-1.5885,-1.6086,-1.5972,-1.5832,-1.5832,-1.5832,-1.5832,-1.5832,-1.5832,-1.5832,-1.5832,-1.5752,-1.5396,-1.4527,-1.4264,-1.3732,-1.24,-1.1382,-1.1219,-1.2106,-1.0538,-0.9531,-0.9593,-0.8336,-0.7489,-0.7139,-0.7139,-0.7139,-0.7139,-0.7139,-0.7139,-0.7139,-0.7139,-0.7139,-0.7139,-0.7139,-0.7139,-0.8417,-1.0055,-1.1283,-1.0975,-1.0317,-0.9332,-0.8054,-0.7107,-0.6444,-0.5997,-0.6985,-0.8091,-0.842,-1.0283,-1.2322,-1.4115,-1.5141,0.0,0.0,0.0,0.0,0.0,0.0,0.0,0.0,0.0,0.0,0.0,0.0,0.0,0.0,-3.9141,-3.8146,-3.6412,-3.6097,-3.4374,-3.1116,-2.7795,-2.4921,-2.2336,-1.9902,-1.8282,-1.766,-1.7462,0.0,0.0,0.0,0.0,0.0,-1.7582,-1.7576,-1.7628,-1.7755,-1.7869,-1.7869,-1.7869,-1.7749,-1.7582,-1.7582,-1.7582,-1.7515,-1.7114,-1.6854,-1.6727,-1.684,-1.6874,-1.6874,-1.6874,-1.6954,-1.6987,-1.6767,-1.6653,-1.664,-1.6787,-1.648,-1.6152,-1.6112,-1.6046,-1.5965,-1.5852,-1.5832,-1.5832,-1.5832,-1.5832,-1.5832,-1.5832,-1.5832,-1.5337,-1.407,-1.3878,-1.3199,-1.1361,-1.0418,-0.9921,-0.994,-0.9003,-0.8675,-0.9167,-0.7993,-0.7288,-0.7227,-0.7227,-0.72,-0.7143,-0.7139,-0.7139,-0.7139,-0.7139,-0.717,-0.7224,-0.7166,-0.7173,0.0,-0.8662,-0.9791,-0.9591,-0.9113,-0.8379,-0.7369,-0.6837,0.0,-0.6685,-0.7437,-0.8361,-0.9163,-1.1281,-1.3087,-1.3642,0.0,0.0,0.0,0.0,0.0,0.0,0.0,0.0,0.0,0.0,0.0,0.0,0.0,0.0,0.0,-3.8311,-3.653,-3.4668,-3.4482,-3.3222,-3.0916,-2.5963,-2.3042,-2.1878,-1.8702,-1.7007,-1.6747,-1.7001,0.0,0.0,0.0,0.0,0.0,-1.7582,-1.7582,-1.7582,-1.7582,-1.7582,-1.7582,-1.7582,-1.7582,-1.7582,-1.7582,-1.7582,-1.7488,-1.6921,-1.674,-1.6787,-1.7068,-1.7161,-1.7174,-1.7257,-1.7361,-1.7448,-1.6887,-1.6941,-1.7021,-1.6493,-1.6526,-1.6533,-1.6005,-1.6079,-1.6159,-1.5885,-1.5832,-1.5832,-1.5832,-1.5832,-1.5832,-1.5832,-1.573,-1.5242,-1.3878,-1.368,-1.2614,-1.0096,-0.9744,-0.9231,-0.8124,-0.7889,-0.8214,-0.9096,-0.8157,-0.7536,-0.7394,-0.7377,-0.7309,-0.7177,-0.7173,-0.7166,-0.7156,-0.7156,-0.7231,-0.7366,-0.7224,-0.7241,-0.5097,0.0,-0.6013,-0.6089,-0.651,-0.6706,0.0,-0.6681,-0.7445,-0.6841,-0.7897,-0.9133,-0.9526,-1.0987,-1.2696,0.0,0.0,0.0,0.0,0.0,0.0,0.0,0.0,0.0,0.0,0.0,0.0,0.0,0.0,0.0,0.0,-3.7959,-3.6274,-3.4657,-3.2866,-3.0789,-2.8476,-2.4916,-2.2565,-2.1752,-1.8694,-1.7114,-1.7041,-1.6881,0.0,0.0,0.0,0.0,-1.7582,-1.7582,-1.7582,-1.7582,-1.7582,-1.7582,-1.7582,-1.7582,-1.7582,-1.7582,-1.7582,-1.7582,-1.7522,-1.7161,-1.7048,-1.7061,-1.723,-1.7301,-1.7435,-1.7215,-1.7361,-1.7502,-1.7141,-1.7094,-1.7174,-1.7255,-1.6814,-1.64,-1.648,-1.6199,-1.5912,-1.5845,-1.5832,-1.5832,-1.5832,-1.5832,-1.5832,-1.5832,-1.4949,-1.3878,-1.2528,-1.1551,-1.0288,-0.8627,-0.8396,-0.8294,-0.8038,-0.7801,-0.7773,-0.8133,-0.7848,-0.7584,-0.7546,-0.7434,-0.7411,-0.7489,-0.7492,-0.7434,-0.7316,-0.7316,-0.7336,-0.737,-0.7333,-0.74,-0.4945,-0.4862,-0.4841,-0.5352,-0.588,-0.6256,-0.6129,-0.7019,-0.777,-0.7544,0.0,0.0,0.0,0.0,0.0,0.0,0.0,0.0,0.0,0.0,0.0,0.0,0.0,0.0,0.0,0.0,0.0,0.0,0.0,0.0,0.0,-3.7056,-3.5187,-3.4005,-3.1275,-2.9142,-2.7676,-2.4536,-2.2316,-2.1246,-1.8304,-1.6807,-1.6547,-1.6653,-1.6794,0.0,0.0,0.0,-1.7582,-1.6823,-1.7041,-1.7582,-1.7582,-1.7582,-1.7582,-1.7582,-1.7582,-1.7582,-1.7582,-1.7495,-1.7382,-1.7355,-1.7255,-1.7174,-1.7308,-1.7455,-1.7549,-1.7388,-1.7462,-1.7549,-1.7388,-1.7348,-1.7355,-1.7375,-1.7121,-1.6807,-1.656,-1.6366,-1.6152,-1.5879,-1.5832,-1.5832,-1.5832,-1.5832,-1.5832,-1.5832,-1.5242,-1.4076,-1.2139,-1.1268,-1.0096,-0.8237,-0.8038,-0.8038,-0.8038,-0.7892,-0.7834,-0.7913,-0.7845,-0.777,-0.7699,-0.7617,-0.7584,-0.76,-0.76,-0.756,-0.7478,-0.7478,-0.7509,-0.7573,-0.7506,-0.7556,-0.5651,-0.535,-0.5231,-0.6158,-0.6561,-0.6771,-0.7333,-0.788,-0.8304,0.0,0.0,0.0,0.0,0.0,0.0,0.0,0.0,0.0,0.0,0.0,0.0,0.0,0.0,0.0,0.0,0.0,0.0,0.0,0.0,0.0,0.0,-3.6178,-3.4227,-3.3106,-3.0161,-2.816,-2.748,-2.4421,-2.222,-2.0928,-1.8159,-1.6513,-1.6046,-1.65,-1.6734,0.0,0.0,0.0,-1.7477,-1.628,-1.6499,-1.7582,-1.7582,-1.7582,-1.7582,-1.7582,-1.7582,-1.7582,-1.7582,-1.7422,-1.7255,-1.7502,-1.7415,-1.7261,-1.7508,-1.7582,-1.7582,-1.7582,-1.7582,-1.7582,-1.7582,-1.7582,-1.7522,-1.7275,-1.7368,-1.7315,-1.6567,-1.6526,-1.6493,-1.5992,-1.5858,-1.5832,-1.5832,-1.5832,-1.573,-1.5534,-1.5534,-1.4561,-1.1945,-1.1658,-1.0681,-0.8233,-0.8038,-0.8038,-0.8038,-0.8038,-0.8038,-0.8038,-0.8038,-0.797,-0.7818,-0.7834,-0.778,-0.7634,-0.7655,-0.7655,-0.7631,-0.7631,-0.7692,-0.7807,-0.7689,-0.7709,-0.6421,-0.6522,-0.6695,-0.7231,-0.8062,-0.8627,-0.8218,-0.9426,-1.0309,0.0,0.0,0.0,0.0,0.0,0.0,0.0,0.0,0.0,0.0,0.0,0.0,0.0,0.0,0.0,0.0,0.0,0.0,0.0,0.0,0.0,0.0,0.0,-3.4361,-3.2645,-3.0574,-2.8564,-2.6592,-2.3788,-2.2125,-2.1578,-1.8593,-1.7034,-1.6941,-1.678,-1.684,-1.7088,0.0,-1.714,-1.7582,-1.7364,-1.7364,-1.7582,-1.7582,-1.7582,-1.7582,-1.7582,-1.7582,-1.7582,-1.7582,-1.7555,-1.7522,-1.7569,-1.7555,-1.7522,-1.7569,-1.7582,-1.7582,-1.7582,-1.7582,-1.7582,-1.7582,-1.7582,-1.7569,-1.7528,-1.7361,-1.7174,-1.7041,-1.666,-1.6313,-1.6219,-1.6005,-1.5832,-1.5832,-1.5832,-1.5439,-1.4364,-1.4166,-1.3295,-1.0583,-1.0288,-0.9702,-0.8137,-0.8038,-0.8038,-0.8038,-0.8038,-0.8038,-0.8038,-0.8038,-0.797,-0.7818,-0.7936,-0.7933,-0.778,-0.7906,-0.7909,-0.778,-0.778,-0.779,-0.7811,-0.7787,-0.7862,-0.7283,-0.7258,-0.758,-0.856,-0.9192,-0.9748,-1.0172,-1.1405,-1.2235,0.0,0.0,0.0,0.0,0.0,0.0,0.0,0.0,0.0,0.0,0.0,0.0,0.0,0.0,0.0,0.0,0.0,0.0,0.0,0.0,0.0,0.0,0.0,-3.4363,-3.2431,-3.0421,-2.8489,-2.6728,-2.356,-2.1827,-2.1445,-1.8513,-1.7068,-1.6907,-1.6934,-1.6599,-1.5994,0.0,-1.6274,-1.6387,-1.6387,-1.6929,-1.7582,-1.7582,-1.7582,-1.7582,-1.7582,-1.7582,-1.7582,-1.7582,-1.7582,-1.7582,-1.7582,-1.7582,-1.7582,-1.7582,-1.7582,-1.7582,-1.7582,-1.7582,-1.7582,-1.7582,-1.7582,-1.7582,-1.7582,-1.7482,-1.7295,-1.6981,-1.67,-1.6413,-1.6092,-1.5925,-1.5832,-1.5832,-1.5242,-1.4555,-1.3974,-1.3295,-1.2134,-1.019,-0.9998,-0.9509,-0.8137,-0.8038,-0.8038,-0.8038,-0.8038,-0.8038,-0.8038,-0.8038,-0.8007,-0.7936,-0.8001,-0.8007,-0.7936,-0.8004,-0.8004,-0.7933,-0.7933,-0.7933,-0.7933,-0.7933,-0.7974,-0.8143,-0.809,-0.8508,-0.9703,-1.0192,-1.0617,-1.1681,-1.2992,-1.392,0.0,0.0,0.0,0.0,0.0,0.0,0.0,0.0,0.0,0.0,0.0,0.0,0.0,0.0,0.0,0.0,0.0,0.0,0.0,0.0,0.0,0.0,0.0,-3.4209,-3.2106,-3.0275,-2.8338,-2.6285,-2.3265,-2.1603,-2.1329,-1.8549,-1.7134,-1.6921,-1.6826,-1.6185,-1.5135,-1.5329,-1.5417,-1.5417,-1.5743,-1.6605,-1.7582,-1.7582,-1.7582,-1.7582,-1.7582,-1.7582,-1.7582,-1.7582,-1.7582,-1.7582,-1.7582,-1.7582,-1.7582,-1.7582,-1.7582,-1.7582,-1.7582,-1.7582,-1.7582,-1.7582,-1.7582,-1.7582,-1.7582,-1.7582,-1.7455,-1.7007,-1.6807,-1.6573,-1.6119,-1.5925,-1.573,-1.5439,-1.4561,-1.368,-1.3102,-1.2328,-1.1361,-0.9702,-0.9805,-0.9509,-0.8137,-0.8038,-0.8038,-0.8038,-0.8038,-0.8038,-0.8038,-0.8038,-0.8038,-0.8038,-0.8038,-0.8038,-0.8038,-0.8038,-0.8038,-0.8038,-0.8038,-0.8038,-0.8038,-0.8038,-0.8038,-0.8903,-0.9152,-0.9806,-1.0559,-1.1075,-1.1503,-1.1869,-1.3727,0.0,-1.4887,0.0,0.0,0.0,0.0,0.0,0.0,0.0,0.0,0.0,0.0,0.0,0.0,0.0,0.0,0.0,0.0,0.0,0.0,0.0,0.0,0.0,0.0,0.0,-3.1191,-3.0471,-2.8136,-2.3981,-2.2492,-2.1736,-2.161,-1.8873,-1.7542,-1.7515,-1.6131,-1.55,-1.5394,-1.5405,-1.5417,-1.5524,-1.6929,-1.7477,-1.7582,-1.7582,-1.7582,-1.7582,-1.7582,-1.7582,-1.7582,-1.7582,-1.7582,-1.7582,-1.7582,-1.7582,-1.7582,-1.7582,-1.7582,-1.7582,-1.7582,-1.7582,-1.7582,-1.7582,-1.7582,-1.7582,-1.7582,-1.7582,-1.7569,-1.7528,-1.7088,-1.6693,-1.6653,-1.6199,-1.5439,-1.4262,-1.3968,-1.3102,-1.0681,-1.1165,-1.097,-0.8432,-0.9217,-0.9509,-0.8137,-0.8038,-0.8038,-0.8038,-0.8038,-0.8038,-0.8038,-0.8038,-0.8038,-0.8038,-0.8038,-0.8038,-0.8038,-0.8038,-0.8038,-0.8038,-0.8038,-0.8038,-0.8038,-0.8038,-0.8038,-1.0218,-1.0068,-1.0227,-1.0667,-1.1494,-1.2535,0.0,-1.5633,-1.7069,-1.7216,-1.8155,0.0,0.0,0.0,0.0,0.0,0.0,0.0,0.0,0.0,0.0,0.0,0.0,0.0,0.0,0.0,0.0,0.0,0.0,0.0,0.0,0.0,0.0,-3.1551,-3.0959,-2.8602,-2.4153,-2.2477,-2.1245,-2.0333,-1.8506,-1.7582,-1.7582,-1.7041,-1.5743,-1.4234,-1.5956,-1.5743,-1.4234,-1.6611,-1.7582,-1.7582,-1.7582,-1.7582,-1.7582,-1.7582,-1.7582,-1.7582,-1.7582,-1.7582,-1.7582,-1.7582,-1.7582,-1.7582,-1.7582,-1.7582,-1.7582,-1.7582,-1.7582,-1.7582,-1.7582,-1.7582,-1.7582,-1.7582,-1.7582,-1.7528,-1.7355,-1.7141,-1.6927,-1.674,-1.6526,-1.5914,-1.4436,-1.3526,-1.2299,-1.031,-0.9702,-0.9114,-0.8137,-0.8432,-0.8528,-0.8038,-0.8038,-0.8038,-0.8038,-0.8038,-0.8038,-0.8038,-0.8038,-0.8038,-0.8038,-0.8038,-0.8038,-0.8038,-0.8038,-0.8038,-0.8038,-0.8038,-0.8038,-0.8038,-0.8038,-0.8038,-1.0939,-1.0716,-1.0717,-1.1208,-1.2425,-1.3956,-1.5792,-1.7363,-1.8501,-1.8936,-1.9898,0.0,0.0,0.0,0.0,0.0,0.0,0.0,0.0,0.0,0.0,0.0,0.0,0.0,0.0,0.0,0.0,0.0,0.0,0.0,0.0,0.0,0.0,0.0,-3.078,-2.8282,-2.3565,-2.2165,-2.0726,-1.8916,-1.8005,-1.7495,-1.7582,-1.6611,-1.5423,-1.4019,-1.553,-1.5423,-1.4126,-1.6605,-1.7582,-1.7582,-1.7582,-1.7582,-1.7582,-1.7582,-1.7582,-1.7582,-1.7582,-1.7582,-1.7582,-1.7582,-1.7582,-1.7582,-1.7582,-1.7582,-1.7582,-1.7582,-1.7582,-1.7582,-1.7582,-1.7582,-1.7582,-1.7582,-1.7582,-1.7528,-1.7328,-1.6891,-1.6459,-1.6259,-1.5739,-1.4873,-1.3297,-1.2269,-1.1206,-0.9632,-0.8627,-0.8038,-0.8038,-0.8038,-0.8038,-0.8038,-0.8082,-0.8092,-0.8041,-0.8038,-0.8038,-0.8038,-0.8038,-0.8038,-0.8038,-0.8038,-0.8038,-0.8038,-0.8038,-0.8038,-0.8038,-0.8038,-0.8038,-0.8038,-0.8038,-0.8038,-1.0864,-1.1,-1.1444,0.0,0.0,0.0,-1.7607,-1.8672,-1.9466,-1.9961,0.0,-2.084,0.0,0.0,0.0,0.0,0.0,0.0,0.0,0.0,0.0,0.0,0.0,0.0,0.0,0.0,0.0,0.0,0.0,0.0,0.0,0.0,0.0,0.0,-2.9665,-2.6876,-2.1744,-2.1379,-1.9985,-1.7569,-1.7288,-1.7301,-1.7477,-1.4669,-1.4126,-1.531,-1.3911,-1.4126,-1.5524,-1.7041,-1.7582,-1.7582,-1.7582,-1.7582,-1.7582,-1.7582,-1.7582,-1.7582,-1.7582,-1.7582,-1.7582,-1.7582,-1.7582,-1.7582,-1.7582,-1.7582,-1.7582,-1.7582,-1.7582,-1.7582,-1.7582,-1.7582,-1.7582,-1.7582,-1.7582,-1.7582,-1.7582,-1.6174,-1.4931,-1.4931,-1.3588,-1.1923,-1.05,-1.0163,-0.9706,-0.8258,-0.8038,-0.8038,-0.8038,-0.8038,-0.8038,-0.8038,-0.8177,-0.8208,-0.8052,-0.8038,-0.8038,-0.8038,-0.8038,-0.8038,-0.8038,-0.8038,-0.8038,-0.8038,-0.8038,-0.8038,-0.8038,-0.8038,-0.8038,-0.8038,-0.8038,-0.8038,-1.2276,-1.2127,0.0,-1.3327,0.0,0.0,0.0,-1.8672,0.0,0.0,0.0,0.0,0.0,0.0,0.0,0.0,0.0,0.0,0.0,0.0,0.0,0.0,0.0,0.0,0.0,0.0,0.0,0.0,0.0,0.0,0.0,0.0,0.0,0.0,-2.9757,-2.692,-2.1362,-2.1006,-1.952,-1.6967,-1.7088,-1.7301,-1.7582,-1.6717,-1.5962,-1.5417,-1.6068,-1.5962,-1.5524,-1.7041,-1.7582,-1.7582,-1.7582,-1.7582,-1.7582,-1.7582,-1.7582,-1.7582,-1.7582,-1.7582,-1.7582,-1.7582,-1.7582,-1.7582,-1.7582,-1.7582,-1.7582,-1.7582,-1.7582,-1.7582,-1.7582,-1.7582,-1.7582,-1.7582,-1.6823,-1.6019,-1.594,-1.4813,-1.3758,-1.3588,-1.3319,-1.2524,-1.0819,-1.0557,-0.9945,-0.8275,-0.8038,-0.8038,-0.8038,-0.8038,-0.8038,-0.8038,-0.8079,-0.8089,-0.8041,-0.8038,-0.8038,-0.8038,-0.8038,-0.8038,-0.8038,-0.8038,-0.8038,-0.8038,-0.8038,-0.8038,-0.8038,-0.8038,-0.8038,-0.8038,-0.8038,-0.8038,-1.2578,-1.2453,0.0,-1.4202,-1.526,-1.642,-1.8582,0.0,0.0,0.0,0.0,0.0,0.0,0.0,0.0,0.0,0.0,0.0,0.0,0.0,0.0,0.0,0.0,0.0,0.0,0.0,0.0,0.0,0.0,0.0,0.0,0.0,0.0,0.0,-2.8619,-2.5961,-2.0989,-2.0633,-1.9179,-1.6707,-1.6774,-1.6954,-1.7241,-1.6826,-1.6605,-1.628,-1.7259,-1.7147,-1.6387,-1.7252,-1.7582,-1.7582,-1.7582,-1.7582,-1.7569,-1.7455,-1.7482,-1.7549,-1.7315,-1.7315,-1.7388,-1.7275,-1.7235,-1.7255,-1.7375,-1.7408,-1.7435,-1.7549,-1.7582,-1.7582,-1.7582,-1.7582,-1.7582,-1.7582,-1.6499,-1.5111,-1.3953,-1.3067,-1.2337,-1.223,-1.1763,-1.1108,-0.9975,-0.9768,-0.9328,-0.8175,-0.8038,-0.8038,-0.8038,-0.8092,-0.8106,-0.8045,-0.8096,-0.8106,-0.8045,-0.8038,-0.8038,-0.8038,-0.8038,-0.8038,-0.8038,-0.8038,-0.8038,-0.8038,-0.8038,-0.8038,-0.8038,-0.8038,-0.8038,-0.8038,-0.8038,-0.8038,-1.2168,0.0,0.0,-1.4893,-1.6523,0.0,0.0,0.0,0.0,0.0,0.0,0.0,0.0,0.0,0.0,0.0,0.0,0.0,0.0,0.0,0.0,0.0,0.0,0.0,0.0,0.0,0.0,0.0,0.0,0.0,0.0,0.0,0.0,-2.7939,-2.6732,-2.433,-2.0616,-2.0063,-1.882,0.0,-1.6386,-1.6413,-1.6687,-1.5866,-1.6225,-1.7542,-1.7569,-1.7582,-1.7582,-1.7582,-1.7582,-1.7582,-1.7555,-1.7542,-1.7508,-1.7215,-1.7275,-1.7428,-1.6894,-1.6881,-1.7061,-1.6794,-1.6707,-1.676,-1.7061,-1.7148,-1.7215,-1.7502,-1.7582,-1.7582,-1.7582,-1.7562,-1.7542,-1.7325,-1.6268,-1.4663,-1.2258,-1.1305,-1.0828,-1.0732,-0.9655,-0.8662,-0.8509,-0.8364,-0.8218,-0.8062,-0.8038,-0.8038,-0.8038,-0.8163,-0.8197,-0.8055,-0.8167,-0.8194,-0.8052,-0.8038,-0.8038,-0.8038,-0.8038,-0.8038,-0.8038,-0.8038,-0.8038,-0.8038,-0.8038,-0.8038,-0.8038,-0.8038,-0.8038,-0.8038,-0.8038,-0.8038,-1.2627,-1.2988,0.0,0.0,-1.7402,-1.9668,0.0,0.0,0.0,0.0,0.0,0.0,0.0,0.0,0.0,0.0,0.0,0.0,0.0,0.0,0.0,0.0,0.0,0.0,0.0,0.0,0.0,0.0,0.0,0.0,0.0,0.0,0.0,-2.7928,-2.5565,-2.3047,-2.0235,-1.8871,-1.7443,0.0,-1.6192,-1.6306,-1.638,-1.6419,-1.6708,-1.7255,-1.7482,-1.7582,-1.7582,-1.7582,-1.7582,-1.7562,-1.7328,-1.7241,-1.7208,-1.6907,-1.684,-1.6881,-1.6747,-1.6747,-1.6794,-1.6727,-1.6707,-1.676,-1.7061,-1.7148,-1.7215,-1.7502,-1.7582,-1.7582,-1.7582,-1.7415,-1.6918,-1.5401,-1.4982,-1.4624,-1.3947,-1.13,-0.9173,-0.9107,-0.8838,-0.8662,-0.8509,-0.8364,-0.8218,-0.8062,-0.8038,-0.8038,-0.8038,-0.8069,-0.8075,-0.8041,-0.8069,-0.8075,-0.8041,-0.8038,-0.8038,-0.8038,-0.8038,-0.8038,-0.8038,-0.8038,-0.8038,-0.8038,-0.8038,-0.8038,-0.8038,-0.8038,-0.8038,-0.8038,-0.8038,-0.8038,-1.2101,0.0,0.0,-1.5065,0.0,0.0,0.0,0.0,0.0,0.0,0.0,0.0,0.0,0.0,0.0,0.0,0.0,0.0,0.0,0.0,0.0,0.0,0.0,0.0,0.0,0.0,0.0,0.0,0.0,0.0,0.0,-2.8976,-2.7656,-2.6454,-2.3899,-2.1735,-1.9861,-1.8412,-1.7037,-1.5832,-1.5985,-1.6059,-1.6079,-1.6506,-1.6794,-1.6954,-1.7248,-1.7375,-1.7388,-1.7522,-1.7582,-1.7555,-1.7261,-1.7148,-1.7094,-1.666,-1.6587,-1.6667,-1.6386,-1.638,-1.6473,-1.6333,-1.6286,-1.6366,-1.68,-1.6941,-1.6919,-1.6596,-1.6499,-1.6467,-1.6441,-1.6197,-1.5878,-1.4908,-1.4206,-1.334,-1.1713,-0.9929,-0.8716,-0.8455,-0.8499,-0.8554,-0.8408,-0.8258,-0.8133,-0.8052,-0.8038,-0.8038,-0.8038,-0.8102,-0.815,-0.815,-0.815,-0.815,-0.815,-0.8082,-0.8072,-0.8147,-0.8079,-0.8072,-0.8147,-0.8079,-0.8038,-0.8038,-0.8038,-0.8038,-0.8038,-0.8038,-0.8038,-0.8038,-0.8038,-0.8038,-1.162,0.0,-1.259,-1.5084,-1.6413,0.0,0.0,0.0,0.0,0.0,0.0,0.0,0.0,0.0,0.0,0.0,0.0,0.0,0.0,0.0,0.0,0.0,0.0,0.0,0.0,0.0,0.0,0.0,0.0,0.0,-2.8521,-2.6919,-2.5463,-2.4367,-2.2032,-2.0223,-1.9117,-1.7864,-1.68,-1.5832,-1.5832,-1.5832,-1.5845,-1.6333,-1.658,-1.6647,-1.6941,-1.7101,-1.7271,-1.7408,-1.7535,-1.7549,-1.7208,-1.7074,-1.7001,-1.6413,-1.6346,-1.6486,-1.5999,-1.5992,-1.6152,-1.5912,-1.5865,-1.6005,-1.654,-1.6539,-1.6272,-1.5605,-1.5204,-1.4933,-1.4681,-1.4579,-1.4539,-1.4286,-1.3231,-1.1671,-0.9184,-0.8786,-0.8777,-0.8353,-0.8367,-0.8397,-0.8255,-0.8126,-0.8038,-0.8038,-0.8038,-0.8038,-0.8038,-0.8174,-0.8272,-0.8272,-0.8272,-0.8282,-0.8306,-0.8167,-0.8133,-0.8262,-0.815,-0.8126,-0.8225,-0.8106,-0.8038,-0.8038,-0.8038,-0.8038,-0.8038,-0.8038,-0.8038,-0.8038,-0.8038,-0.8038,0.0,0.0,-1.3386,0.0,-1.5836,-1.6411,0.0,0.0,0.0,0.0,0.0,0.0,0.0,0.0,0.0,0.0,0.0,0.0,0.0,0.0,0.0,0.0,0.0,0.0,0.0,0.0,0.0,0.0,0.0,0.0,-2.69,-2.497,-2.3408,-2.2307,-1.9983,-1.8353,-1.7492,-1.6345,-1.5765,-1.5832,-1.5832,-1.5832,-1.5832,-1.5912,-1.6086,-1.6346,-1.664,-1.6914,-1.7154,-1.7194,-1.7355,-1.7528,-1.6981,-1.6767,-1.6693,-1.6106,-1.5912,-1.5932,-1.5852,-1.5852,-1.5879,-1.5838,-1.6005,-1.6273,-1.6607,-1.6049,-1.5255,-1.5335,-1.4556,-1.3536,-1.3298,-1.3096,-1.2592,-1.1291,-1.0742,-1.0676,-1.1008,-0.9875,-0.8759,-0.8333,-0.8286,-0.8252,-0.8096,-0.8055,-0.8038,-0.8038,-0.8038,-0.8038,-0.8038,-0.8174,-0.8272,-0.8272,-0.8272,-0.8319,-0.8442,-0.8323,-0.8248,-0.8269,-0.8252,-0.8187,-0.8075,-0.8052,-0.8038,-0.8038,-0.8038,-0.8038,-0.8038,-0.8038,-0.8038,-0.8038,-0.8038,-0.8038,-1.1199,-1.1322,-1.1812,0.0,-1.3563,0.0,0.0,0.0,0.0,0.0,0.0,0.0,0.0,0.0,0.0,0.0,0.0,0.0,0.0,0.0,0.0,0.0,0.0,0.0,0.0,0.0,0.0,0.0,0.0,-2.5831,-2.4882,-2.3198,-2.1808,-2.0995,-1.8726,-1.735,-1.6973,-1.5763,-1.5297,-1.5585,-1.5752,-1.5832,-1.5832,-1.5832,-1.5899,-1.6039,-1.6333,-1.654,-1.6673,-1.6834,-1.7074,-1.7281,-1.6693,-1.656,-1.6633,-1.6046,-1.5832,-1.5832,-1.5832,-1.5832,-1.5832,-1.5832,-1.6032,-1.6195,-1.5505,-1.5226,-1.474,-1.3259,-1.2524,-1.2004,-1.1682,-1.1431,-1.1214,-1.0412,-1.0344,-1.0215,-0.9804,-0.9212,-0.8628,-0.8313,-0.8201,-0.8119,-0.8052,-0.8038,-0.8038,-0.8038,-0.8038,-0.8072,-0.816,-0.8299,-0.8421,-0.8509,-0.8516,-0.854,-0.8604,-0.8401,-0.8303,-0.8384,-0.8231,-0.815,-0.8167,-0.8085,-0.8038,-0.8038,-0.8038,-0.8038,-0.8038,-0.8038,-0.8038,-0.8038,-0.8038,-0.8038,0.0,0.0,-1.0316,-1.102,-1.1752,0.0,0.0,0.0,0.0,0.0,0.0,0.0,0.0,0.0,0.0,0.0,0.0,0.0,0.0,0.0,0.0,0.0,0.0,0.0,0.0,0.0,0.0,0.0,0.0,-2.4147,-2.2854,-2.1261,-1.9963,-1.9252,-1.7347,-1.6346,-1.6096,-1.5403,-1.511,-1.5398,-1.5618,-1.5758,-1.5832,-1.5832,-1.5832,-1.5838,-1.6059,-1.6206,-1.6293,-1.6506,-1.6774,-1.6987,-1.6473,-1.6406,-1.6533,-1.6019,-1.5832,-1.5832,-1.5832,-1.5832,-1.5832,-1.5832,-1.5827,-1.5562,-1.4556,-1.4106,-1.3561,-1.1456,-1.0746,-1.0494,-1.0075,-0.9959,-0.9884,-0.9709,-0.9768,-0.9534,-0.8543,-0.8381,-0.8384,-0.8241,-0.815,-0.7982,-0.8045,-0.8038,-0.8038,-0.8038,-0.8038,-0.8079,-0.8197,-0.834,-0.8472,-0.8587,-0.8632,-0.8669,-0.8706,-0.8509,-0.8428,-0.8533,-0.8296,-0.8187,-0.8269,-0.8123,-0.8038,-0.8038,-0.8038,-0.8038,-0.8038,-0.8038,-0.8038,-0.8038,-0.8038,-0.8038,0.0,-0.9829,0.0,-1.1194,0.0,0.0,0.0,0.0,0.0,0.0,0.0,0.0,0.0,0.0,0.0,0.0,0.0,0.0,0.0,0.0,0.0,0.0,0.0,0.0,0.0,0.0,0.0,0.0,0.0,-2.1013,-2.0973,-1.9126,-1.7557,-1.6412,-1.5747,-1.5049,-1.4213,-1.4771,-1.511,-1.5398,-1.5411,-1.5565,-1.5832,-1.5832,-1.5832,-1.5832,-1.5845,-1.6012,-1.6273,-1.6293,-1.6466,-1.67,-1.6393,-1.6286,-1.6259,-1.5945,-1.5832,-1.5832,-1.5832,-1.5832,-1.5832,-1.5832,-1.5139,-1.4359,-1.4353,-1.2777,-1.1035,-1.0928,-1.0,-0.901,-0.8845,-0.8694,-0.8549,-0.8405,-0.8378,-0.8416,-0.8334,-0.8157,-0.8028,-0.7982,-0.7958,-0.8001,-0.7962,-0.8038,-0.8038,-0.8038,-0.8038,-0.8041,-0.8052,-0.8187,-0.8286,-0.8292,-0.8414,-0.8554,-0.8699,-0.8696,-0.8689,-0.8699,-0.855,-0.8401,-0.8275,-0.8123,-0.8038,-0.8038,-0.8038,-0.8038,-0.8038,-0.8038,-0.8038,-0.8038,-0.8038,-0.8038,0.0,0.0,0.0,-1.0418,0.0,0.0,0.0,0.0,0.0,0.0,0.0,0.0,0.0,0.0,0.0,0.0,0.0,0.0,0.0,0.0,0.0,0.0,0.0,0.0,0.0,0.0,0.0,0.0,0.0,0.0,-1.9,-1.7358,-1.608,-1.5319,-1.4381,-1.3897,-1.3801,-1.4389,-1.473,-1.4836,-1.5217,-1.5451,-1.5558,-1.5745,-1.5832,-1.5832,-1.5832,-1.5885,-1.5985,-1.5985,-1.6159,-1.64,-1.6099,-1.6106,-1.6239,-1.5939,-1.5832,-1.5832,-1.5832,-1.5832,-1.5832,-1.5832,-1.5133,-1.4126,-1.3084,-1.1861,-1.0535,-0.9606,-0.9098,-0.8777,-0.8723,-0.8598,-0.8445,-0.8303,-0.8272,-0.8286,-0.8333,-0.8123,-0.8002,-0.8048,-0.7982,-0.8002,-0.8048,-0.8123,-0.8187,-0.8187,-0.8187,-0.8221,-0.8313,-0.8292,-0.8306,-0.8397,-0.8452,-0.8543,-0.8699,-0.8621,-0.8604,-0.8703,-0.8482,-0.8323,-0.8272,-0.8123,-0.8038,-0.8038,-0.8038,-0.8038,-0.8038,-0.8038,-0.8038,-0.8038,-0.8038,-0.8038,-0.9159,0.0,0.0,0.0,0.0,0.0,0.0,0.0,0.0,0.0,0.0,0.0,0.0,0.0,0.0,0.0,0.0,0.0,0.0,0.0,0.0,0.0,0.0,0.0,0.0,0.0,0.0,0.0,0.0,0.0,-1.7297,-1.5802,-1.4731,-1.4168,-1.343,-1.3247,-1.3641,-1.4028,-1.4329,-1.4529,-1.5017,-1.5304,-1.5404,-1.5698,-1.5832,-1.5832,-1.5832,-1.5832,-1.5832,-1.5832,-1.5945,-1.6106,-1.5905,-1.5952,-1.6099,-1.5905,-1.5832,-1.5832,-1.5832,-1.5832,-1.5832,-1.5832,-1.4781,-1.3313,-1.2186,-1.0952,-0.9719,-0.879,-0.8628,-0.8788,-0.8788,-0.8635,-0.8472,-0.8428,-0.8303,-0.8221,-0.8319,-0.8221,-0.7999,-0.8048,-0.7979,-0.7999,-0.8048,-0.8167,-0.8252,-0.8201,-0.8238,-0.8286,-0.8326,-0.8252,-0.8228,-0.8323,-0.8421,-0.8506,-0.8557,-0.856,-0.8581,-0.8632,-0.8408,-0.8272,-0.8272,-0.8123,-0.8038,-0.8038,-0.8038,-0.8038,-0.8038,-0.8038,-0.8038,-0.8038,-0.8038,-0.8038,0.0,0.0,0.0,0.0,0.0,0.0,0.0,0.0,0.0,0.0,0.0,0.0,0.0,0.0,0.0,0.0,0.0,0.0,0.0,0.0,0.0,0.0,0.0,0.0,0.0,0.0,0.0,0.0,0.0,-1.5887,-1.5811,-1.4457,-1.3374,-1.2802,-1.2815,-1.3026,-1.3546,-1.3641,-1.3935,-1.4509,-1.481,-1.5104,-1.5391,-1.5685,-1.5818,-1.5832,-1.5832,-1.5832,-1.5832,-1.5832,-1.5832,-1.5832,-1.5832,-1.5832,-1.5832,-1.5832,-1.5832,-1.5832,-1.5832,-1.5832,-1.5825,-1.573,-1.3986,-1.1848,-1.1848,-1.0247,-0.8469,-0.8476,-0.8689,-0.892,-0.892,-0.8706,-0.8523,-0.8659,-0.8364,-0.813,-0.8408,-0.8253,-0.8008,-0.7965,-0.7955,-0.8008,-0.7972,-0.8174,-0.8225,-0.8075,-0.818,-0.8221,-0.8065,-0.8045,-0.8045,-0.8045,-0.8303,-0.8421,-0.8289,-0.8533,-0.8635,-0.8489,-0.8347,-0.8272,-0.8272,-0.8123,-0.8038,-0.8038,-0.8038,-0.8038,-0.8038,-0.8038,-0.8038,-0.8038,-0.8038,-0.8038,-1.0466,0.0,0.0,0.0,0.0,0.0,0.0,0.0,0.0,0.0,0.0,0.0,0.0,0.0,0.0,0.0,0.0,0.0,0.0,0.0,0.0,0.0,0.0,0.0,0.0,0.0,0.0,0.0,-1.6002,-1.509,-1.3771,-1.2866,-1.2408,-1.2412,-1.2632,-1.2933,-1.3327,-1.354,-1.3834,-1.4208,-1.4502,-1.4796,-1.5097,-1.5384,-1.5631,-1.5832,-1.5832,-1.5832,-1.5832,-1.5832,-1.5832,-1.5832,-1.5832,-1.5832,-1.5832,-1.5832,-1.5832,-1.5832,-1.5832,-1.5832,-1.5635,-1.4752,-1.3301,-1.1755,-1.0779,-0.9379,-0.8184,-0.8296,-0.8391,-0.8455,-0.8455,-0.855,-0.8577,-0.8292,-0.8292,-0.8323,-0.8191,-0.8029,-0.7989,-0.8048,-0.7972,-0.8123,-0.8299,-0.8433,-0.8411,-0.8364,-0.8394,-0.837,-0.8225,-0.8208,-0.8208,-0.8208,-0.8282,-0.8357,-0.8418,-0.8404,-0.8418,-0.8479,-0.8347,-0.8272,-0.8272,-0.8123,-0.8038,-0.8038,-0.8038,-0.8038,-0.8038,-0.8038,-0.8038,-0.8038,-0.8038,-0.8038,-1.0965,-1.1266,0.0,0.0,0.0,0.0,0.0,-1.2881,0.0,0.0,0.0,0.0,0.0,0.0,0.0,0.0,0.0,0.0,0.0,0.0,0.0,0.0,0.0,0.0,0.0,0.0,0.0,-1.5095,-1.4727,-1.3983,-1.2557,-1.2122,-1.2004,-1.2291,-1.2472,-1.2705,-1.3013,-1.3313,-1.3607,-1.3908,-1.4322,-1.4609,-1.4796,-1.5204,-1.5491,-1.5658,-1.5772,-1.5832,-1.5832,-1.5832,-1.5832,-1.5832,-1.5832,-1.5832,-1.5832,-1.5832,-1.5832,-1.5832,-1.5832,-1.5832,-1.5635,-1.4268,-1.3006,-1.1653,-1.0391,-0.9168,-0.8153,-0.8245,-0.8313,-0.836,-0.836,-0.8442,-0.8476,-0.8272,-0.8262,-0.8269,-0.8157,-0.8085,-0.8038,-0.8038,-0.8038,-0.8069,-0.8261,-0.8402,-0.8394,-0.8394,-0.8445,-0.8431,-0.8289,-0.8272,-0.8272,-0.8272,-0.8323,-0.8367,-0.8391,-0.8374,-0.834,-0.8299,-0.8221,-0.8174,-0.8174,-0.8089,-0.8038,-0.8038,-0.8038,-0.8038,-0.8038,-0.8038,-0.8038,-0.8038,-0.8038,-0.8038,-1.1225,-1.1466,-1.1922,0.0,0.0,0.0,-1.2891,-1.291,0.0,0.0,0.0,0.0,0.0,0.0,0.0,0.0,0.0,0.0,0.0,0.0,0.0,0.0,0.0,0.0,0.0,-1.6767,-1.5336,-1.4109,-1.3459,-1.2679,-1.1884,-1.1804,-1.1957,-1.2245,-1.2285,-1.2445,-1.2822,-1.3053,-1.3353,-1.3654,-1.4208,-1.4489,-1.4536,-1.5064,-1.5337,-1.5411,-1.5671,-1.5798,-1.5832,-1.5832,-1.5832,-1.5832,-1.5832,-1.5832,-1.5832,-1.5832,-1.5832,-1.5832,-1.5832,-1.5832,-1.5534,-1.4166,-1.2909,-1.1653,-1.0194,-0.9029,-0.8245,-0.8245,-0.8336,-0.8431,-0.8431,-0.835,-0.8299,-0.8408,-0.8245,-0.8099,-0.8218,-0.8136,-0.8038,-0.8038,-0.8038,-0.8045,-0.8062,-0.818,-0.8272,-0.8272,-0.8377,-0.8414,-0.8286,-0.8272,-0.8275,-0.8292,-0.8391,-0.8408,-0.8282,-0.837,-0.8319,-0.8055,-0.8038,-0.8038,-0.8038,-0.8038,-0.8038,-0.8038,-0.8038,-0.8038,-0.8038,-0.8038,-0.8038,-0.8038,-0.8038,-0.8038,0.0,0.0,0.0,0.0,0.0,0.0,-1.2959,-1.3145,0.0,0.0,0.0,0.0,0.0,0.0,0.0,0.0,0.0,0.0,0.0,0.0,0.0,0.0,0.0,0.0,0.0,-1.5026,-1.3998,-1.2856,-1.1759,-1.1175,-1.1142,-1.1383,-1.165,-1.1944,-1.2178,-1.2445,-1.2822,-1.3053,-1.3353,-1.3566,-1.4001,-1.4295,-1.4522,-1.4643,-1.495,-1.5398,-1.5458,-1.5611,-1.5832,-1.5832,-1.5832,-1.5832,-1.5832,-1.5832,-1.5832,-1.5832,-1.5832,-1.5832,-1.5832,-1.5832,-1.5439,-1.3011,-1.2139,-1.1458,-0.9118,-0.8258,-0.8085,-0.8085,-0.8106,-0.8126,-0.8126,-0.8197,-0.8245,-0.815,-0.8177,-0.8201,-0.8106,-0.8062,-0.8038,-0.8038,-0.8038,-0.8079,-0.8204,-0.8252,-0.8272,-0.8272,-0.8292,-0.8303,-0.8275,-0.8272,-0.8316,-0.8428,-0.8364,-0.8299,-0.8272,-0.818,-0.8102,-0.8041,-0.8038,-0.8038,-0.8038,-0.8038,-0.8038,-0.8038,-0.8038,-0.8038,-0.8038,-0.8038,-0.8038,-0.8038,-0.8038,-0.8038,0.0,0.0,0.0,-1.3145,0.0,0.0,0.0,-1.3193,-1.3193,0.0,0.0,0.0,0.0,0.0,0.0,0.0,0.0,0.0,0.0,0.0,0.0,0.0,0.0,0.0,0.0,-1.4133,-1.313,-1.1964,-1.0913,-1.0528,-1.0969,-1.1269,-1.1563,-1.1857,-1.2151,-1.2445,-1.2822,-1.2899,-1.32,-1.3559,-1.3794,-1.4021,-1.4309,-1.4456,-1.4763,-1.519,-1.5337,-1.5565,-1.5832,-1.5832,-1.5832,-1.5832,-1.5832,-1.5832,-1.5832,-1.5832,-1.5832,-1.5832,-1.5832,-1.5832,-1.5439,-1.3494,-1.2431,-1.1556,-0.9608,-0.8531,-0.8038,-0.8038,-0.8038,-0.8038,-0.8038,-0.8096,-0.8136,-0.8058,-0.8099,-0.8133,-0.8055,-0.8038,-0.8038,-0.8038,-0.8038,-0.8065,-0.8143,-0.8153,-0.818,-0.8258,-0.8272,-0.8272,-0.8272,-0.8374,-0.8402,-0.837,-0.8313,-0.8272,-0.8272,-0.8201,-0.8123,-0.8045,-0.8038,-0.8038,-0.8038,-0.8038,-0.8038,-0.8038,-0.8038,-0.8038,-0.8038,-0.8038,-0.8038,-0.8038,-0.8038,-0.8038,0.0,0.0,0.0,0.0,0.0,-1.3066,0.0,0.0,0.0,-1.3471,0.0,0.0,0.0,0.0,0.0,0.0,0.0,0.0,0.0,0.0,0.0,0.0,0.0,0.0,0.0,-1.3347,-1.2317,-1.1178,-1.0453,-1.0321,-1.0802,-1.1156,-1.1476,-1.177,-1.2064,-1.2365,-1.2735,-1.2856,-1.308,-1.3561,-1.3674,-1.3854,-1.4095,-1.4329,-1.4596,-1.4897,-1.5184,-1.5478,-1.5752,-1.5805,-1.5832,-1.5832,-1.5832,-1.5832,-1.5832,-1.5832,-1.5832,-1.5832,-1.5832,-1.5832,-1.5635,-1.4268,-1.2813,-1.1263,-0.9998,-0.8825,-0.8038,-0.8038,-0.8038,-0.8038,-0.8038,-0.8038,-0.8038,-0.8038,-0.8038,-0.8038,-0.8038,-0.8038,-0.8038,-0.8038,-0.8038,-0.8038,-0.8038,-0.8038,-0.8082,-0.8208,-0.8225,-0.8238,-0.8269,-0.8452,-0.8445,-0.8269,-0.8245,-0.8225,-0.8225,-0.8225,-0.8174,-0.8045,-0.8038,-0.8038,-0.8038,-0.8038,-0.8038,-0.8038,-0.8038,-0.8038,-0.8038,-0.8038,-0.8038,-0.8038,-0.8038,-0.8038,0.0,0.0,0.0,0.0,-1.3193,0.0,0.0,0.0,-1.3481,-1.3697,0.0,0.0,0.0,0.0,0.0,0.0,0.0,0.0,0.0,0.0,0.0,0.0,0.0,0.0,0.0,0.0,-1.118,-1.0474,-1.0224,-1.0147,-1.0214,-1.0742,-1.1176,-1.147,-1.1764,-1.2058,-1.2351,-1.2886,-1.3193,-1.3267,-1.3788,-1.4055,-1.4088,-1.4122,-1.4295,-1.4589,-1.4883,-1.5177,-1.5464,-1.5725,-1.5832,-1.5832,-1.5832,-1.5832,-1.5832,-1.5832,-1.5832,-1.5832,-1.5832,-1.5832,-1.5635,-1.4268,-1.2226,-0.9998,-0.8627,-0.8137,-0.8038,-0.8038,-0.8038,-0.8038,-0.8038,-0.8038,-0.8038,-0.8038,-0.8038,-0.8038,-0.8038,-0.8038,-0.8038,-0.8038,-0.8038,-0.8038,-0.8038,-0.8038,-0.8045,-0.8062,-0.8065,-0.8116,-0.8252,-0.8153,-0.8119,-0.8255,-0.8147,-0.8065,-0.8065,-0.8065,-0.8058,-0.8041,-0.8038,-0.8038,-0.8038,-0.8038,-0.8038,-0.8038,-0.8038,-0.8038,-0.8038,-0.8038,-0.8038,-0.8038,-0.8038,-0.8038,0.0,0.0,0.0,0.0,0.0,0.0,0.0,0.0,-1.3343,0.0,0.0,0.0,0.0,0.0,0.0,0.0,0.0,0.0,0.0,0.0,0.0,0.0,0.0,0.0,0.0,0.0,0.0,0.0,0.0,-0.994,-1.0107,-1.0675,-1.1129,-1.1416,-1.1717,-1.2091,-1.2552,-1.2812,-1.3113,-1.3467,-1.3714,-1.3921,-1.4088,-1.4088,-1.4335,-1.4783,-1.491,-1.5224,-1.5658,-1.5778,-1.5832,-1.5832,-1.5832,-1.5832,-1.5832,-1.5832,-1.5832,-1.5832,-1.5832,-1.5832,-1.5439,-1.3397,-1.1458,-0.9702,-0.8432,-0.8038,-0.8038,-0.8038,-0.8038,-0.8038,-0.8038,-0.8038,-0.8038,-0.8038,-0.8038,-0.8038,-0.8038,-0.8038,-0.8038,-0.8038,-0.8038,-0.8038,-0.8038,-0.8038,-0.8038,-0.8038,-0.8038,-0.8062,-0.813,-0.8079,-0.8065,-0.813,-0.8079,-0.8038,-0.8038,-0.8038,-0.8038,-0.8038,-0.8038,-0.8038,-0.8038,-0.8038,-0.8038,-0.8038,-0.8038,-0.8038,-0.8038,-0.8038,-0.8038,-0.7939,-0.7235,-0.6833,-1.2881,0.0,0.0,0.0,0.0,0.0,0.0,0.0,0.0,0.0,0.0,0.0,0.0,0.0,0.0,0.0,0.0,0.0,0.0,0.0,0.0,0.0,0.0,0.0,0.0,0.0,0.0,-0.9105,-0.9472,-0.9773,-0.9987,-1.0555,-1.1042,-1.1416,-1.1637,-1.2031,-1.2694,-1.2782,-1.3006,-1.3527,-1.3519,-1.3801,-1.4088,-1.4088,-1.4322,-1.4736,-1.4897,-1.5204,-1.5605,-1.5765,-1.5832,-1.5832,-1.5832,-1.5832,-1.5832,-1.5832,-1.5832,-1.573,-1.5439,-1.5051,-1.437,-1.2139,-1.0779,-0.9702,-0.8432,-0.8038,-0.8038,-0.8038,-0.8038,-0.8038,-0.8038,-0.8038,-0.8038,-0.8038,-0.8038,-0.8038,-0.8038,-0.8038,-0.8038,-0.8038,-0.8038,-0.8038,-0.8038,-0.8038,-0.8038,-0.8038,-0.8038,-0.8038,-0.8038,-0.8038,-0.8038,-0.8038,-0.8038,-0.8038,-0.8038,-0.8038,-0.8038,-0.8038,-0.8038,-0.8038,-0.8038,-0.8038,-0.8038,-0.8038,-0.8038,-0.8038,-0.8038,-0.8038,-0.7839,-0.7437,-0.6431,-0.6029,0.0,0.0,0.0,-1.29,0.0,0.0,0.0,0.0,-1.368,0.0,0.0,0.0,0.0,0.0,-1.488,-1.5499,-1.5588,0.0,0.0,0.0,0.0,0.0,0.0,0.0,0.0,0.0,0.0,-0.8871,-0.9359,-0.9686,-0.9699,-1.0254,-1.0835,-1.141,-1.1436,-1.1724,-1.2311,-1.2681,-1.2906,-1.3227,-1.3507,-1.3801,-1.4088,-1.4088,-1.4095,-1.4148,-1.4716,-1.4977,-1.5037,-1.5598,-1.5832,-1.5832,-1.5832,-1.5832,-1.5832,-1.5832,-1.5832,-1.5635,-1.4364,-1.3102,-1.1848,-1.0485,-0.9998,-0.9702,-0.8432,-0.8038,-0.8038,-0.8038,-0.8038,-0.8038,-0.8038,-0.8038,-0.8038,-0.8038,-0.8038,-0.8038,-0.8038,-0.8038,-0.8038,-0.8038,-0.8038,-0.8038,-0.8038,-0.8038,-0.8038,-0.8038,-0.8038,-0.8038,-0.8038,-0.8038,-0.8038,-0.8038,-0.8038,-0.8038,-0.8038,-0.8038,-0.8038,-0.8038,-0.8038,-0.8038,-0.8038,-0.8038,-0.8038,-0.8038,-0.8038,-0.8038,-0.8038,-0.8038,-0.7335,-0.6029,-0.6029,-0.6029,0.0,0.0,-1.2949,-1.3232,0.0,0.0,0.0,0.0,0.0,0.0,0.0,0.0,0.0,0.0,-1.5365,-1.5588,-1.5588,-1.5588,0.0,0.0,0.0,0.0,0.0,0.0,0.0,0.0,0.0,-0.8103,-0.9065,-0.9505,-0.9026,-0.9988,-1.0828,-1.141,-1.1423,-1.1703,-1.2291,-1.2599,-1.2906,-1.3213,-1.3507,-1.3801,-1.4088,-1.4088,-1.4195,-1.4382,-1.4583,-1.489,-1.5264,-1.5464,-1.5658,-1.5832,-1.5832,-1.5832,-1.5832,-1.5832,-1.5832,-1.5635,-1.4364,-1.2425,-1.0583,-1.0096,-0.941,-0.8627,-0.8137,-0.8038,-0.8038,-0.8038,-0.8038,-0.8038,-0.8038,-0.8038,-0.8038,-0.8038,-0.8038,-0.8038,-0.8038,-0.8038,-0.8038,-0.8038,-0.8038,-0.8038,-0.8038,-0.8038,-0.8038,-0.8038,-0.8038,-0.8038,-0.8038,-0.8038,-0.8038,-0.8038,-0.8038,-0.8038,-0.8038,-0.8038,-0.8038,-0.8038,-0.8038,-0.8038,-0.8038,-0.8038,-0.8038,-0.8038,-0.8038,-0.8038,-0.8038,-0.7132,-0.6431,-0.5929,-0.4221,-0.3317,-1.2881,-1.2881,0.0,-1.3213,-1.3398,0.0,-1.3691,0.0,0.0,0.0,0.0,0.0,0.0,0.0,-1.544,-1.5299,-1.5454,-1.5454,0.0,-1.3527,0.0,0.0,0.0,0.0,0.0,0.0,-0.8586,-0.8103,-0.9065,-0.9505,0.0,0.0,-1.0782,-1.1256,-1.1269,-1.1557,-1.2144,-1.2338,-1.2639,-1.3053,-1.3347,-1.3641,-1.3935,-1.4041,-1.4188,-1.4369,-1.4476,-1.4736,-1.5104,-1.5311,-1.5504,-1.5685,-1.5792,-1.5832,-1.5832,-1.5832,-1.5248,-1.4274,-1.3494,-1.1453,-0.9316,-0.9316,-0.8726,-0.8038,-0.8038,-0.8038,-0.8038,-0.8038,-0.8038,-0.8038,-0.8038,-0.8038,-0.8038,-0.8038,-0.8038,-0.8038,-0.8038,-0.8038,-0.8038,-0.8038,-0.8038,-0.8038,-0.8038,-0.8038,-0.8038,-0.8038,-0.8038,-0.8038,-0.8038,-0.8038,-0.8038,-0.8038,-0.8038,-0.8038,-0.8038,-0.8038,-0.8038,-0.8038,-0.8038,-0.8038,-0.8038,-0.8038,-0.8065,-0.8123,-0.7563,-0.7356,-0.7403,-0.5944,-0.5022,-0.4522,-0.2816,-0.1712]}]]